[[{"header":{"parameterUnit":"m.s-1","parameterCategory":1,"la1":31.0,"la2":29.5877,"lo1":-88.7671,"lo2":-86.6584,"dy":0.0162,"dx":0.0185,"nx":115,"ny":88,"refTime":"2025-07-31T00:00:00:Z","depth":0,"parameterNumber":2,"parameterNumberName":"U-component_of_WINDS"},"data":[0.0,0.0,0.0,0.0,0.0,0.0,0.0,0.0,0.0,0.0,0.0,0.0,0.0,0.0,0.0,0.0,0.0,0.0,0.0,0.0,0.0,0.0,0.0,0.0,0.0,0.0,0.0,0.0,0.0,0.0,0.0,0.0,0.0,0.0,0.0,0.0,0.0,0.0,0.0,0.0,0.0,0.0,0.0,0.0,0.0,0.0,0.0,0.0,0.0,0.0,0.0,0.0,0.0,0.0,0.0,0.0,0.0,0.0,0.0,0.0,0.0,0.0,0.0,0.0,0.0,0.0,0.0,0.0,0.0,0.0,0.0,0.0,0.0,0.0,0.0,0.0,0.0,0.0,0.0,0.0,0.0,0.0,0.0,0.0,0.0,0.0,0.0,0.0,0.0,0.0,0.0,0.0,0.0,0.0,0.0,0.0,0.0,0.0,0.0,0.0,0.0,0.0,0.0,0.0,0.0,0.0,0.0,0.0,0.0,0.0,0.0,0.0,0.0,0.0,0.0,0.0,0.0,0.0,0.0,0.0,0.0,0.0,0.0,0.0,0.0,0.0,0.0,0.0,0.0,0.0,0.0,0.0,0.0,0.0,0.0,0.0,0.0,0.0,0.0,0.0,0.0,0.0,0.0,0.0,0.0,0.0,0.0,0.0,0.0,0.0,0.0,0.0,0.0,0.0,0.0,0.0,0.0,0.0,0.0,0.0,0.0,0.0,0.0,0.0,0.0,0.0,0.0,0.0,0.0,0.0,0.0,0.0,0.0,0.0,0.0,0.0,0.0,0.0,0.0,0.0,0.0,0.0,0.0,0.0,0.0,0.0,0.0,0.0,0.0,0.0,0.0,0.0,0.0,0.0,0.0,0.0,0.0,0.0,0.0,0.0,0.0,0.0,0.0,0.0,0.0,0.0,0.0,0.0,0.0,0.0,0.0,0.0,0.0,0.0,0.0,0.0,0.0,0.0,0.0,0.0,0.0,0.0,0.0,0.0,0.0,0.0,0.0,0.0,0.0,0.0,0.0,0.0,0.0,0.0,0.0,0.0,0.0,0.0,0.0,0.0,0.0,0.0,0.0,0.0,0.0,0.0,0.0,0.0,0.0,0.0,0.0,0.0,0.0,0.0,0.0,0.0,0.0,0.0,0.0,0.0,0.0,0.0,0.0,0.0,0.0,0.0,0.0,0.0,0.0,0.0,0.0,0.0,0.0,0.0,0.0,0.0,0.0,0.0,0.0,0.0,0.0,0.0,0.0,0.0,0.0,0.0,0.0,0.0,0.0,0.0,0.0,0.0,0.0,0.0,0.0,0.0,0.0,0.0,0.0,0.0,0.0,0.0,0.0,0.0,0.0,0.0,0.0,0.0,0.0,0.0,0.0,0.0,0.0,0.0,0.0,0.0,0.0,0.0,0.0,0.0,0.0,0.0,0.0,0.0,0.0,0.0,0.0,0.0,0.0,0.0,0.0,0.0,0.0,0.0,0.0,0.0,0.0,0.0,0.0,0.0,0.0,0.0,0.0,0.0,0.0,0.0,0.0,0.0,0.0,0.0,0.0,0.0,0.0,0.0,0.0,0.0,0.0,0.0,0.0,0.0,0.0,0.0,0.0,0.0,0.0,0.0,0.0,0.0,0.0,0.0,0.0,0.0,0.0,0.0,0.0,0.0,0.0,0.0,0.0,0.0,0.0,0.0,0.0,0.0,0.0,0.0,0.0,0.0,0.0,0.0,0.0,0.0,0.0,0.0,0.0,0.0,0.0,0.0,0.0,0.0,0.0,0.0,0.0,0.0,0.0,0.0,0.0,0.0,0.0,0.0,0.0,0.0,0.0,0.0,0.0,0.0,0.0,0.0,0.0,0.0,0.0,0.0,0.0,0.0,0.0,0.0,0.0,0.0,0.0,0.0,0.0,0.0,0.0,0.0,0.0,0.0,0.0,0.0,0.0,0.0,0.0,0.0,0.0,0.0,0.0,0.0,0.0,0.0,0.0,0.0,0.0,0.0,0.0,0.0,0.0,0.0,0.0,0.0,0.0,0.0,0.0,0.0,0.0,0.0,0.0,0.0,0.0,0.0,0.0,0.0,0.0,0.0,0.0,0.0,0.0,0.0,0.0,0.0,0.0,0.0,0.0,0.0,0.0,0.0,0.0,0.0,0.0,0.0,0.0,0.0,0.0,0.0,0.0,0.0,0.0,0.0,0.0,0.0,0.0,0.0,0.0,0.0,0.0,0.0,0.0,0.0,0.0,0.0,0.0,0.0,0.0,0.0,0.0,0.0,0.0,0.0,0.0,0.0,0.0,0.0,0.0,0.0,0.0,0.0,0.0,0.0,0.0,0.0,0.0,0.0,0.0,0.0,0.0,0.0,0.0,0.0,0.0,0.0,0.0,0.0,0.0,0.0,0.0,0.0,0.0,0.0,0.0,0.0,0.0,0.0,0.0,0.0,0.0,0.0,0.0,0.0,0.0,0.0,0.0,0.0,0.0,0.0,0.0,0.0,0.0,0.0,0.0,0.0,0.0,0.0,0.0,0.0,0.0,0.0,0.0,0.0,0.0,0.0,0.0,0.0,0.0,0.0,0.0,0.0,0.0,0.0,0.0,0.0,0.0,0.0,0.0,0.0,0.0,0.0,0.0,0.0,0.0,0.0,0.0,0.0,0.0,0.0,0.0,0.0,0.0,0.0,0.0,0.0,0.0,0.0,0.0,0.0,0.0,0.0,0.0,0.0,0.0,0.0,0.0,0.0,0.0,0.0,0.0,0.0,0.0,0.0,0.0,0.0,0.0,0.0,0.0,0.0,0.0,0.0,0.0,0.0,0.0,0.0,0.0,0.0,0.0,0.0,0.0,0.0,0.0,0.0,0.0,0.0,0.0,0.0,0.0,0.0,0.0,0.0,0.0,0.0,0.0,0.0,0.0,0.0,0.0,0.0,0.0,0.0,0.0,0.0,0.0,0.0,0.0,0.0,0.0,0.0,0.0,0.0,0.0,0.0,0.0,0.0,0.0,0.0,0.0,0.0,0.0,0.0,0.0,0.0,0.0,0.0,0.0,0.0,0.0,0.0,0.0,0.0,0.0,0.0,0.0,0.0,0.0,0.0,0.0,0.0,0.0,0.0,0.0,0.0,0.0,0.0,0.0,0.0,0.0,0.0,0.0,0.0,0.0,0.0,0.0,0.0,0.0,0.0,0.0,0.0,0.0,0.0,0.0,0.0,0.0,0.0,0.0,0.0,0.0,0.0,0.0,0.0,0.0,0.0,0.0,0.0,0.0,0.0,0.0,0.0,0.0,0.0,0.0,0.0,0.0,0.0,0.0,0.0,0.0,0.0,0.0,0.0,0.0,0.0,0.0,0.0,0.0,0.0,0.0,0.0,0.0,0.0,0.0,0.0,0.0,0.0,0.0,0.0,0.0,0.0,0.0,0.0,0.0,0.0,0.0,0.0,0.0,0.0,0.0,0.0,0.0,0.0,0.0,0.0,0.0,0.0,0.0,0.0,0.0,0.0,0.0,0.0,0.0,0.0,0.0,0.0,0.0,0.0,0.0,0.0,0.0,0.0,0.0,0.0,0.0,0.0,0.0,0.0,0.0,0.0,0.0,0.0,0.0,0.0,0.0,0.0,0.0,0.0,0.0,0.0,0.0,0.0,0.0,0.0,0.0,0.0,0.0,0.0,0.0,0.0,0.0,0.0,0.0,0.0,0.0,0.0,0.0,0.0,0.0,0.0,0.0,0.0,0.0,0.0,0.0,0.0,0.0,0.0,0.0,0.0,0.0,0.0,0.0,0.0,0.0,0.0,0.0,0.0,0.0,0.0,0.0,0.0,0.0,0.0,0.0,0.0,0.0,0.0,0.0,0.0,0.0,0.0,0.0,0.0,0.0,0.0,0.0,0.0,0.0,0.0,0.0,0.0,0.0,0.0,0.0,0.0,0.0,0.0,0.0,0.0,0.0,0.0,0.0,0.0,0.0,0.0,0.0,0.0,0.0,0.0,0.0,0.0,0.0,0.0,0.0,0.0,0.0,0.0,0.0,0.0,0.0,0.0,0.0,0.0,0.0,0.0,0.0,0.0,0.0,0.0,0.0,0.0,0.0,0.0,0.0,0.0,0.0,0.0,0.0,0.0,0.0,0.0,0.0,0.0,0.0,0.0,0.0,0.0,0.0,0.0,0.0,0.0,0.0,0.0,0.0,0.0,0.0,0.0,0.0,0.0,0.0,0.0,0.0,0.0,0.0,0.0,0.0,0.0,0.0,0.0,0.0,0.0,0.0,0.0,-2.479,0.0,0.0,0.0,0.0,0.0,0.0,0.0,0.0,0.0,0.0,0.0,0.0,0.0,0.0,0.0,0.0,0.0,0.0,0.0,0.0,0.0,0.0,0.0,0.0,0.0,0.0,0.0,0.0,0.0,0.0,0.0,0.0,0.0,0.0,0.0,0.0,0.0,0.0,0.0,0.0,0.0,0.0,0.0,0.0,0.0,0.0,0.0,0.0,0.0,0.0,0.0,0.0,0.0,0.0,0.0,0.0,0.0,0.0,0.0,0.0,0.0,0.0,0.0,0.0,0.0,0.0,0.0,0.0,0.0,0.0,0.0,0.0,0.0,0.0,0.0,0.0,0.0,0.0,0.0,0.0,0.0,0.0,0.0,0.0,0.0,0.0,0.0,0.0,0.0,0.0,0.0,0.0,0.0,0.0,0.0,0.0,0.0,0.0,0.0,0.0,0.0,0.0,0.0,0.0,0.0,0.0,0.0,0.0,0.0,0.0,-2.3195,-2.3682,-2.3953,-2.43,-2.4782,0.0,0.0,0.0,0.0,0.0,0.0,0.0,0.0,0.0,0.0,0.0,0.0,0.0,0.0,0.0,0.0,0.0,0.0,0.0,0.0,0.0,0.0,0.0,0.0,0.0,0.0,0.0,0.0,0.0,0.0,0.0,0.0,0.0,0.0,0.0,0.0,0.0,0.0,0.0,0.0,0.0,0.0,0.0,0.0,0.0,0.0,0.0,0.0,0.0,0.0,0.0,0.0,0.0,0.0,0.0,0.0,0.0,0.0,0.0,0.0,0.0,0.0,0.0,0.0,0.0,0.0,0.0,0.0,0.0,0.0,0.0,0.0,0.0,0.0,0.0,0.0,0.0,0.0,0.0,0.0,0.0,0.0,0.0,0.0,0.0,0.0,0.0,0.0,0.0,0.0,0.0,0.0,0.0,0.0,0.0,0.0,0.0,0.0,0.0,0.0,0.0,0.0,0.0,0.0,0.0,0.0,0.0,0.0,0.0,0.0,0.0,0.0,-2.4717,-2.5088,-2.5528,0.0,0.0,0.0,0.0,0.0,0.0,0.0,0.0,0.0,0.0,0.0,0.0,0.0,0.0,0.0,0.0,0.0,0.0,0.0,0.0,0.0,0.0,0.0,0.0,0.0,0.0,0.0,0.0,0.0,0.0,0.0,0.0,0.0,0.0,0.0,0.0,0.0,0.0,0.0,0.0,0.0,0.0,0.0,0.0,0.0,0.0,0.0,0.0,0.0,0.0,0.0,0.0,0.0,0.0,0.0,0.0,0.0,0.0,0.0,0.0,0.0,0.0,0.0,0.0,0.0,0.0,0.0,0.0,0.0,0.0,0.0,0.0,0.0,0.0,0.0,0.0,0.0,0.0,0.0,0.0,0.0,0.0,0.0,0.0,0.0,0.0,0.0,0.0,0.0,0.0,0.0,0.0,0.0,0.0,0.0,0.0,0.0,0.0,0.0,0.0,0.0,0.0,0.0,0.0,0.0,0.0,0.0,0.0,0.0,0.0,-2.4295,-2.6606,-2.7164,0.0,-2.7791,0.0,0.0,0.0,0.0,0.0,0.0,0.0,0.0,0.0,0.0,0.0,0.0,0.0,0.0,0.0,0.0,0.0,0.0,0.0,0.0,0.0,0.0,0.0,0.0,0.0,0.0,0.0,0.0,0.0,0.0,0.0,0.0,0.0,0.0,0.0,0.0,0.0,0.0,0.0,0.0,0.0,0.0,0.0,0.0,0.0,0.0,0.0,0.0,0.0,0.0,0.0,0.0,0.0,0.0,0.0,0.0,0.0,0.0,0.0,0.0,0.0,0.0,0.0,0.0,0.0,0.0,0.0,0.0,0.0,0.0,0.0,0.0,0.0,0.0,0.0,0.0,0.0,0.0,0.0,0.0,0.0,0.0,0.0,0.0,0.0,0.0,0.0,0.0,0.0,0.0,0.0,0.0,0.0,0.0,0.0,0.0,0.0,0.0,0.0,0.0,0.0,0.0,0.0,0.0,0.0,0.0,0.0,0.0,0.0,0.0,-2.5689,-2.6902,-2.7606,-2.7954,0.0,0.0,0.0,0.0,0.0,0.0,0.0,0.0,0.0,0.0,0.0,0.0,0.0,0.0,0.0,0.0,0.0,0.0,0.0,0.0,0.0,0.0,0.0,0.0,0.0,0.0,0.0,0.0,0.0,0.0,0.0,0.0,0.0,0.0,0.0,0.0,0.0,0.0,0.0,0.0,0.0,0.0,0.0,0.0,0.0,0.0,0.0,0.0,0.0,0.0,0.0,0.0,0.0,0.0,0.0,0.0,0.0,0.0,0.0,0.0,0.0,0.0,0.0,0.0,0.0,0.0,0.0,0.0,0.0,0.0,0.0,0.0,0.0,0.0,0.0,0.0,0.0,0.0,0.0,0.0,0.0,0.0,0.0,0.0,0.0,0.0,0.0,0.0,0.0,0.0,0.0,0.0,0.0,0.0,0.0,0.0,0.0,0.0,0.0,0.0,0.0,0.0,0.0,0.0,0.0,0.0,0.0,0.0,0.0,0.0,-2.5701,0.0,-2.8078,-2.8705,-2.8616,-2.7835,0.0,0.0,0.0,0.0,0.0,0.0,0.0,0.0,0.0,0.0,0.0,0.0,0.0,0.0,0.0,0.0,0.0,0.0,0.0,0.0,0.0,0.0,0.0,0.0,0.0,0.0,0.0,0.0,0.0,0.0,0.0,0.0,0.0,0.0,0.0,0.0,0.0,0.0,0.0,0.0,0.0,0.0,0.0,0.0,0.0,0.0,0.0,0.0,0.0,0.0,0.0,0.0,0.0,0.0,0.0,0.0,0.0,0.0,0.0,0.0,0.0,0.0,0.0,0.0,0.0,0.0,0.0,0.0,0.0,0.0,0.0,0.0,0.0,0.0,0.0,0.0,0.0,0.0,0.0,0.0,0.0,0.0,0.0,0.0,0.0,0.0,0.0,0.0,0.0,0.0,0.0,0.0,0.0,0.0,0.0,0.0,0.0,0.0,0.0,0.0,0.0,0.0,0.0,0.0,0.0,0.0,0.0,0.0,0.0,-2.739,-2.8203,-3.1078,-3.1231,-3.0148,0.0,0.0,0.0,0.0,0.0,0.0,0.0,0.0,0.0,0.0,0.0,0.0,0.0,0.0,0.0,0.0,0.0,0.0,0.0,0.0,0.0,0.0,0.0,0.0,0.0,0.0,0.0,0.0,0.0,0.0,0.0,0.0,0.0,0.0,0.0,0.0,0.0,0.0,0.0,0.0,0.0,0.0,0.0,0.0,0.0,0.0,0.0,0.0,0.0,0.0,0.0,0.0,0.0,0.0,0.0,0.0,0.0,0.0,0.0,0.0,0.0,0.0,0.0,0.0,0.0,0.0,0.0,0.0,0.0,0.0,0.0,0.0,0.0,0.0,0.0,0.0,0.0,0.0,0.0,0.0,0.0,0.0,0.0,0.0,0.0,0.0,0.0,0.0,0.0,0.0,0.0,0.0,0.0,0.0,0.0,0.0,0.0,0.0,0.0,0.0,0.0,0.0,0.0,0.0,0.0,0.0,0.0,0.0,0.0,-2.4674,-2.6079,-2.9017,-3.3363,-3.0723,-2.9175,0.0,0.0,0.0,0.0,0.0,0.0,0.0,0.0,0.0,0.0,0.0,0.0,0.0,0.0,0.0,0.0,0.0,0.0,0.0,0.0,0.0,0.0,0.0,0.0,0.0,0.0,0.0,0.0,0.0,0.0,0.0,0.0,0.0,0.0,0.0,0.0,0.0,0.0,0.0,0.0,0.0,0.0,0.0,0.0,0.0,0.0,0.0,0.0,0.0,0.0,0.0,0.0,0.0,0.0,0.0,0.0,0.0,0.0,0.0,0.0,0.0,0.0,0.0,0.0,0.0,0.0,0.0,0.0,0.0,0.0,0.0,0.0,0.0,0.0,0.0,0.0,0.0,0.0,0.0,0.0,0.0,0.0,0.0,0.0,0.0,0.0,0.0,0.0,0.0,0.0,0.0,0.0,0.0,0.0,0.0,0.0,0.0,0.0,0.0,0.0,0.0,0.0,0.0,0.0,0.0,0.0,0.0,0.0,0.0,-2.4694,0.0,-3.0499,0.0,-3.0625,-2.8741,0.0,0.0,0.0,0.0,0.0,0.0,0.0,0.0,0.0,0.0,0.0,0.0,0.0,0.0,0.0,0.0,0.0,0.0,0.0,0.0,0.0,0.0,0.0,0.0,0.0,0.0,0.0,0.0,0.0,0.0,0.0,0.0,0.0,0.0,0.0,0.0,0.0,0.0,0.0,0.0,0.0,0.0,0.0,0.0,0.0,0.0,0.0,0.0,0.0,0.0,0.0,0.0,0.0,0.0,0.0,0.0,0.0,0.0,0.0,0.0,0.0,0.0,0.0,0.0,0.0,0.0,0.0,0.0,0.0,0.0,0.0,0.0,0.0,0.0,0.0,0.0,0.0,0.0,0.0,0.0,0.0,0.0,0.0,0.0,0.0,0.0,0.0,0.0,0.0,0.0,0.0,0.0,0.0,0.0,0.0,0.0,0.0,0.0,0.0,0.0,0.0,0.0,0.0,0.0,0.0,0.0,0.0,0.0,-2.4716,-2.9394,-3.195,-3.246,-3.0894,-3.1117,-2.9097,0.0,0.0,0.0,0.0,0.0,0.0,0.0,0.0,0.0,0.0,0.0,0.0,0.0,0.0,0.0,0.0,0.0,0.0,0.0,0.0,0.0,0.0,0.0,0.0,0.0,0.0,0.0,0.0,0.0,0.0,0.0,0.0,0.0,0.0,0.0,0.0,0.0,0.0,0.0,0.0,0.0,0.0,0.0,0.0,0.0,0.0,0.0,0.0,0.0,0.0,0.0,0.0,0.0,0.0,0.0,0.0,0.0,0.0,0.0,0.0,0.0,0.0,0.0,0.0,0.0,0.0,0.0,0.0,0.0,0.0,0.0,0.0,0.0,0.0,0.0,0.0,0.0,0.0,0.0,0.0,0.0,0.0,0.0,0.0,0.0,0.0,0.0,0.0,0.0,0.0,0.0,0.0,0.0,0.0,0.0,0.0,0.0,0.0,0.0,0.0,0.0,0.0,0.0,0.0,0.0,0.0,0.0,0.0,0.0,-2.7982,-3.0248,-3.2493,-3.4541,-3.1138,-2.9081,0.0,0.0,0.0,0.0,0.0,0.0,0.0,0.0,0.0,0.0,0.0,0.0,0.0,0.0,0.0,0.0,0.0,0.0,0.0,0.0,0.0,0.0,0.0,0.0,0.0,0.0,0.0,0.0,0.0,0.0,0.0,0.0,0.0,0.0,0.0,0.0,0.0,0.0,0.0,0.0,0.0,0.0,0.0,0.0,0.0,0.0,0.0,0.0,0.0,0.0,0.0,0.0,0.0,0.0,0.0,0.0,0.0,0.0,0.0,0.0,0.0,0.0,0.0,0.0,0.0,0.0,0.0,0.0,0.0,0.0,0.0,0.0,0.0,0.0,0.0,0.0,0.0,0.0,0.0,0.0,0.0,0.0,0.0,0.0,0.0,0.0,0.0,0.0,0.0,0.0,0.0,0.0,0.0,0.0,0.0,0.0,0.0,0.0,0.0,0.0,0.0,0.0,0.0,0.0,0.0,0.0,0.0,0.0,0.0,-2.9675,-3.2166,-3.4302,-3.5969,-3.2209,-2.9875,-2.9223,0.0,0.0,0.0,0.0,0.0,0.0,0.0,0.0,0.0,0.0,0.0,0.0,0.0,0.0,0.0,0.0,0.0,0.0,0.0,0.0,0.0,0.0,0.0,0.0,0.0,0.0,0.0,0.0,0.0,0.0,0.0,0.0,0.0,0.0,0.0,0.0,0.0,0.0,0.0,0.0,0.0,0.0,0.0,0.0,0.0,0.0,0.0,0.0,0.0,0.0,0.0,0.0,0.0,0.0,0.0,0.0,0.0,0.0,0.0,0.0,0.0,0.0,0.0,0.0,0.0,0.0,0.0,0.0,0.0,0.0,0.0,0.0,0.0,0.0,0.0,0.0,0.0,0.0,0.0,0.0,0.0,0.0,0.0,0.0,0.0,0.0,0.0,0.0,0.0,0.0,0.0,0.0,0.0,0.0,0.0,0.0,0.0,0.0,0.0,0.0,0.0,0.0,0.0,0.0,0.0,0.0,0.0,0.0,-3.3631,-3.7013,-3.7754,-3.5635,-3.4274,-3.1489,0.0,0.0,0.0,0.0,0.0,0.0,0.0,0.0,0.0,0.0,0.0,0.0,0.0,0.0,0.0,0.0,0.0,0.0,0.0,0.0,0.0,0.0,0.0,0.0,0.0,0.0,0.0,0.0,0.0,0.0,0.0,0.0,0.0,0.0,0.0,0.0,0.0,0.0,0.0,0.0,0.0,0.0,0.0,0.0,0.0,0.0,0.0,0.0,0.0,0.0,0.0,0.0,0.0,0.0,0.0,0.0,0.0,0.0,0.0,0.0,0.0,0.0,0.0,0.0,0.0,0.0,0.0,0.0,0.0,0.0,0.0,0.0,0.0,0.0,0.0,0.0,0.0,0.0,0.0,0.0,0.0,0.0,0.0,0.0,0.0,0.0,0.0,0.0,0.0,0.0,0.0,0.0,0.0,0.0,0.0,0.0,0.0,0.0,0.0,0.0,0.0,0.0,0.0,0.0,0.0,0.0,0.0,0.0,0.0,-3.4582,-3.8999,-4.1252,-4.0959,-3.689,-3.3613,0.0,0.0,0.0,0.0,0.0,0.0,0.0,0.0,0.0,0.0,0.0,0.0,0.0,0.0,0.0,0.0,0.0,0.0,0.0,0.0,0.0,0.0,0.0,0.0,0.0,0.0,0.0,0.0,0.0,0.0,0.0,0.0,0.0,0.0,0.0,0.0,0.0,0.0,0.0,0.0,0.0,0.0,0.0,0.0,0.0,0.0,0.0,0.0,0.0,0.0,0.0,0.0,0.0,0.0,0.0,0.0,0.0,0.0,0.0,0.0,0.0,0.0,0.0,0.0,0.0,0.0,0.0,0.0,0.0,0.0,0.0,0.0,0.0,0.0,0.0,0.0,0.0,0.0,0.0,0.0,0.0,0.0,0.0,0.0,0.0,0.0,0.0,0.0,0.0,0.0,0.0,0.0,0.0,0.0,0.0,0.0,0.0,0.0,0.0,0.0,0.0,0.0,0.0,0.0,0.0,0.0,0.0,0.0,-3.2968,-3.5825,-4.102,-4.3746,-4.3777,-3.9176,-3.5459,0.0,0.0,0.0,0.0,0.0,0.0,0.0,0.0,0.0,0.0,0.0,0.0,0.0,0.0,0.0,0.0,0.0,0.0,0.0,0.0,0.0,0.0,0.0,0.0,0.0,0.0,0.0,0.0,0.0,0.0,0.0,0.0,0.0,0.0,0.0,0.0,0.0,0.0,0.0,0.0,0.0,0.0,0.0,0.0,0.0,0.0,0.0,0.0,0.0,0.0,0.0,0.0,0.0,0.0,0.0,0.0,0.0,0.0,0.0,0.0,0.0,0.0,0.0,0.0,0.0,0.0,0.0,0.0,0.0,0.0,0.0,0.0,0.0,0.0,0.0,0.0,0.0,0.0,0.0,0.0,0.0,0.0,0.0,0.0,0.0,0.0,0.0,0.0,0.0,0.0,0.0,0.0,0.0,0.0,0.0,0.0,0.0,0.0,0.0,0.0,0.0,0.0,0.0,0.0,0.0,0.0,0.0,0.0,-3.4431,-3.7196,-4.2682,-4.5245,-4.4547,-4.1102,-3.7161,0.0,0.0,0.0,0.0,0.0,0.0,0.0,0.0,0.0,0.0,0.0,0.0,0.0,0.0,0.0,0.0,0.0,0.0,0.0,0.0,0.0,0.0,0.0,0.0,0.0,0.0,0.0,0.0,0.0,0.0,0.0,0.0,0.0,0.0,0.0,0.0,0.0,0.0,0.0,0.0,0.0,0.0,0.0,0.0,0.0,0.0,0.0,0.0,0.0,0.0,0.0,0.0,0.0,0.0,0.0,0.0,0.0,0.0,0.0,0.0,0.0,0.0,0.0,0.0,0.0,0.0,0.0,0.0,0.0,0.0,0.0,0.0,0.0,0.0,0.0,0.0,0.0,0.0,0.0,0.0,0.0,0.0,0.0,0.0,0.0,0.0,0.0,0.0,0.0,0.0,0.0,0.0,0.0,0.0,0.0,0.0,0.0,0.0,0.0,0.0,0.0,0.0,0.0,0.0,0.0,0.0,0.0,0.0,-3.4478,-3.779,-4.2311,-4.4636,-4.4587,-4.2083,-3.8903,0.0,0.0,0.0,0.0,0.0,0.0,0.0,0.0,0.0,0.0,0.0,0.0,0.0,0.0,0.0,0.0,0.0,0.0,0.0,0.0,0.0,0.0,0.0,0.0,0.0,0.0,0.0,0.0,0.0,0.0,0.0,0.0,0.0,0.0,0.0,0.0,0.0,0.0,0.0,0.0,0.0,0.0,0.0,0.0,0.0,0.0,0.0,0.0,-3.4964,0.0,0.0,0.0,0.0,0.0,0.0,0.0,0.0,0.0,0.0,0.0,0.0,0.0,0.0,0.0,0.0,0.0,0.0,0.0,0.0,0.0,0.0,0.0,0.0,0.0,0.0,0.0,0.0,0.0,0.0,0.0,0.0,0.0,0.0,0.0,0.0,0.0,0.0,0.0,0.0,0.0,0.0,0.0,0.0,0.0,0.0,0.0,0.0,0.0,0.0,0.0,0.0,0.0,0.0,0.0,0.0,0.0,0.0,0.0,-3.5851,-3.8924,-4.2904,-4.4876,-4.457,-4.3403,-4.0696,0.0,0.0,0.0,0.0,0.0,0.0,0.0,0.0,0.0,0.0,0.0,0.0,0.0,0.0,0.0,0.0,0.0,0.0,0.0,0.0,0.0,0.0,0.0,0.0,0.0,0.0,0.0,0.0,0.0,0.0,0.0,0.0,0.0,0.0,0.0,0.0,0.0,0.0,0.0,0.0,0.0,0.0,0.0,0.0,0.0,0.0,0.0,0.0,0.0,0.0,0.0,0.0,0.0,0.0,0.0,0.0,0.0,0.0,0.0,0.0,0.0,0.0,0.0,0.0,0.0,0.0,0.0,0.0,0.0,0.0,0.0,0.0,0.0,0.0,0.0,0.0,0.0,0.0,0.0,0.0,0.0,0.0,0.0,0.0,0.0,0.0,0.0,0.0,0.0,0.0,0.0,0.0,0.0,0.0,0.0,0.0,0.0,0.0,0.0,0.0,0.0,0.0,0.0,0.0,0.0,0.0,0.0,-3.3145,-3.7122,-4.0276,-4.3717,-4.5199,-4.4604,-4.4598,-4.2144,-3.7015,0.0,0.0,0.0,0.0,0.0,0.0,0.0,0.0,0.0,0.0,0.0,0.0,0.0,0.0,0.0,0.0,0.0,0.0,0.0,0.0,0.0,0.0,0.0,0.0,0.0,0.0,0.0,0.0,0.0,0.0,0.0,0.0,0.0,0.0,0.0,0.0,0.0,0.0,-2.664,-2.9042,0.0,0.0,0.0,0.0,0.0,0.0,0.0,0.0,-3.5262,0.0,0.0,0.0,0.0,0.0,0.0,0.0,0.0,0.0,0.0,0.0,0.0,0.0,0.0,0.0,0.0,0.0,0.0,0.0,0.0,0.0,0.0,0.0,0.0,0.0,0.0,0.0,0.0,0.0,0.0,0.0,0.0,0.0,0.0,0.0,0.0,0.0,0.0,0.0,0.0,0.0,0.0,0.0,0.0,0.0,0.0,0.0,0.0,0.0,0.0,0.0,0.0,0.0,0.0,0.0,0.0,-3.1599,-3.2795,-3.6036,-4.1533,-4.3604,-4.459,-4.4575,-4.4598,-4.2144,-3.7026,0.0,0.0,0.0,0.0,0.0,0.0,0.0,0.0,0.0,0.0,0.0,0.0,0.0,0.0,0.0,0.0,0.0,0.0,0.0,0.0,0.0,0.0,0.0,0.0,0.0,0.0,0.0,0.0,0.0,0.0,0.0,0.0,0.0,0.0,0.0,0.0,0.0,0.0,0.0,-3.2679,-3.4117,0.0,0.0,0.0,0.0,0.0,0.0,0.0,0.0,-3.5462,0.0,0.0,0.0,0.0,0.0,0.0,0.0,0.0,0.0,0.0,0.0,0.0,0.0,0.0,0.0,0.0,0.0,0.0,0.0,0.0,0.0,0.0,0.0,0.0,0.0,0.0,0.0,0.0,0.0,0.0,0.0,0.0,0.0,0.0,0.0,0.0,0.0,0.0,0.0,0.0,0.0,0.0,0.0,0.0,0.0,0.0,0.0,0.0,0.0,0.0,0.0,0.0,0.0,0.0,0.0,-3.0906,-3.4301,-3.795,-4.1869,-4.3649,-4.4548,-4.4553,-4.3081,-4.0408,0.0,0.0,0.0,0.0,0.0,0.0,0.0,0.0,0.0,0.0,0.0,0.0,0.0,0.0,0.0,0.0,0.0,0.0,0.0,0.0,0.0,0.0,0.0,0.0,0.0,0.0,0.0,0.0,0.0,0.0,0.0,0.0,0.0,0.0,0.0,0.0,0.0,0.0,0.0,0.0,-3.3355,-3.47,-3.654,0.0,0.0,0.0,0.0,0.0,0.0,-3.5719,-3.513,0.0,0.0,0.0,0.0,0.0,0.0,0.0,0.0,0.0,0.0,0.0,0.0,0.0,0.0,0.0,0.0,0.0,0.0,0.0,0.0,0.0,0.0,0.0,0.0,0.0,0.0,0.0,0.0,0.0,0.0,0.0,0.0,0.0,0.0,0.0,0.0,0.0,0.0,0.0,0.0,0.0,0.0,0.0,0.0,0.0,0.0,0.0,0.0,0.0,0.0,0.0,0.0,0.0,0.0,0.0,-2.9928,-3.5332,-3.9482,-4.2155,-4.3604,-4.4429,-4.4547,-4.1965,-3.9034,0.0,0.0,0.0,0.0,0.0,0.0,0.0,0.0,0.0,0.0,0.0,0.0,0.0,0.0,0.0,0.0,0.0,0.0,0.0,0.0,0.0,0.0,0.0,0.0,0.0,0.0,0.0,0.0,0.0,0.0,0.0,0.0,0.0,0.0,0.0,0.0,0.0,0.0,0.0,0.0,0.0,-3.5394,-3.7364,-3.7268,0.0,0.0,0.0,0.0,-3.6842,-3.6204,0.0,0.0,0.0,0.0,0.0,0.0,0.0,0.0,0.0,0.0,0.0,0.0,0.0,0.0,0.0,0.0,0.0,0.0,0.0,0.0,0.0,0.0,0.0,0.0,0.0,0.0,0.0,0.0,0.0,0.0,0.0,0.0,0.0,0.0,0.0,0.0,0.0,0.0,0.0,0.0,0.0,0.0,0.0,0.0,0.0,0.0,0.0,0.0,0.0,0.0,0.0,0.0,0.0,0.0,0.0,0.0,-3.0575,-3.3716,-3.7823,-4.2848,-4.3353,-4.3814,-4.4553,-4.2929,-3.985,0.0,0.0,0.0,0.0,0.0,0.0,0.0,0.0,0.0,0.0,0.0,0.0,0.0,0.0,0.0,0.0,0.0,0.0,0.0,0.0,0.0,0.0,0.0,0.0,0.0,0.0,0.0,0.0,0.0,0.0,0.0,0.0,0.0,0.0,0.0,0.0,0.0,0.0,0.0,0.0,0.0,-3.792,-3.6906,-3.7287,-3.7134,0.0,0.0,-3.8099,-3.7658,-3.8905,0.0,0.0,0.0,0.0,0.0,0.0,0.0,0.0,0.0,0.0,0.0,0.0,0.0,0.0,0.0,0.0,0.0,0.0,0.0,0.0,0.0,0.0,0.0,0.0,0.0,0.0,0.0,0.0,0.0,0.0,0.0,0.0,0.0,0.0,0.0,0.0,0.0,0.0,0.0,0.0,0.0,0.0,0.0,0.0,0.0,0.0,0.0,0.0,0.0,0.0,0.0,0.0,0.0,0.0,0.0,-2.75,-3.0795,-3.4898,-3.8809,-4.2407,-4.2552,-4.2754,-4.3122,-4.0135,-3.6812,0.0,0.0,0.0,0.0,0.0,0.0,0.0,0.0,0.0,0.0,0.0,0.0,0.0,0.0,0.0,0.0,0.0,0.0,0.0,0.0,0.0,0.0,0.0,0.0,0.0,0.0,0.0,0.0,0.0,0.0,0.0,0.0,0.0,0.0,0.0,0.0,0.0,0.0,0.0,0.0,0.0,0.0,-3.8864,-3.8983,0.0,0.0,0.0,-3.8451,-3.8185,0.0,0.0,0.0,0.0,0.0,0.0,0.0,0.0,0.0,0.0,0.0,0.0,0.0,0.0,0.0,0.0,0.0,0.0,0.0,0.0,0.0,0.0,0.0,0.0,0.0,0.0,0.0,0.0,0.0,0.0,0.0,0.0,0.0,0.0,0.0,0.0,0.0,0.0,0.0,0.0,0.0,0.0,0.0,0.0,0.0,0.0,0.0,0.0,0.0,0.0,0.0,0.0,0.0,0.0,0.0,0.0,0.0,-3.0851,-3.5812,-3.954,-4.1901,-4.1788,-4.1772,-4.1933,-3.8531,0.0,0.0,0.0,0.0,0.0,0.0,0.0,0.0,0.0,0.0,0.0,0.0,0.0,0.0,0.0,0.0,0.0,0.0,0.0,0.0,0.0,0.0,0.0,0.0,0.0,0.0,0.0,-2.0423,0.0,0.0,0.0,0.0,0.0,0.0,0.0,0.0,0.0,0.0,0.0,0.0,0.0,0.0,-3.7177,-3.9691,-4.0032,-4.0151,0.0,0.0,-3.8739,-3.8721,-3.8957,-3.8242,0.0,0.0,0.0,0.0,0.0,0.0,0.0,0.0,0.0,0.0,0.0,0.0,0.0,0.0,0.0,0.0,0.0,0.0,0.0,0.0,0.0,0.0,0.0,0.0,0.0,0.0,0.0,0.0,0.0,0.0,0.0,0.0,0.0,0.0,0.0,0.0,0.0,0.0,0.0,0.0,0.0,0.0,0.0,0.0,0.0,0.0,0.0,0.0,0.0,0.0,0.0,0.0,0.0,0.0,0.0,-3.0863,-3.5215,-3.8977,-4.1837,-4.1213,-4.118,-4.1933,-4.043,-3.7401,0.0,0.0,0.0,0.0,0.0,0.0,0.0,0.0,0.0,0.0,0.0,0.0,0.0,0.0,0.0,0.0,0.0,0.0,0.0,0.0,0.0,0.0,0.0,0.0,0.0,0.0,0.0,0.0,0.0,0.0,0.0,0.0,0.0,0.0,0.0,0.0,0.0,0.0,0.0,0.0,0.0,-3.7592,-3.762,-3.9358,-4.0608,0.0,0.0,-3.9346,-3.9346,-4.0374,-3.97,-3.5312,0.0,0.0,0.0,0.0,0.0,0.0,0.0,0.0,0.0,0.0,0.0,0.0,0.0,0.0,0.0,0.0,0.0,0.0,0.0,0.0,0.0,0.0,0.0,0.0,0.0,0.0,0.0,0.0,0.0,0.0,0.0,0.0,0.0,0.0,0.0,0.0,0.0,0.0,0.0,0.0,0.0,0.0,0.0,0.0,0.0,0.0,0.0,0.0,0.0,0.0,0.0,0.0,0.0,-2.887,-3.142,-3.5365,-3.8656,-4.1051,-4.0328,-4.006,-4.0393,-3.9075,-3.6351,0.0,0.0,0.0,0.0,0.0,0.0,0.0,0.0,0.0,0.0,0.0,0.0,0.0,0.0,0.0,0.0,0.0,0.0,0.0,0.0,0.0,0.0,0.0,0.0,0.0,0.0,0.0,0.0,-2.4837,-2.5598,-2.5241,0.0,0.0,0.0,0.0,0.0,0.0,0.0,0.0,0.0,0.0,-3.8248,-4.0259,-4.0863,0.0,0.0,-4.1055,-4.0487,-4.0083,-4.0442,-3.9619,-3.6267,-3.5385,0.0,0.0,0.0,0.0,0.0,0.0,0.0,0.0,0.0,0.0,0.0,0.0,0.0,0.0,0.0,0.0,0.0,0.0,0.0,0.0,0.0,0.0,0.0,0.0,0.0,0.0,0.0,0.0,0.0,0.0,0.0,0.0,0.0,0.0,0.0,0.0,0.0,0.0,0.0,0.0,0.0,0.0,0.0,0.0,0.0,0.0,0.0,0.0,0.0,0.0,0.0,0.0,-2.9066,-3.1427,-3.5555,-3.8525,-4.0243,-3.9702,-3.9388,-3.9358,-3.8302,-3.6133,0.0,0.0,0.0,0.0,0.0,0.0,0.0,0.0,0.0,0.0,0.0,0.0,0.0,0.0,0.0,0.0,0.0,0.0,0.0,0.0,0.0,0.0,0.0,0.0,0.0,0.0,0.0,0.0,-2.563,-2.6123,-2.5636,0.0,0.0,0.0,0.0,0.0,0.0,0.0,0.0,0.0,0.0,-3.8873,-4.1208,-4.1293,-4.1265,-4.1752,-4.0883,-4.0158,-4.0113,-3.9955,-3.9056,-3.6836,0.0,0.0,0.0,0.0,0.0,0.0,0.0,0.0,0.0,0.0,0.0,0.0,0.0,0.0,0.0,0.0,0.0,0.0,0.0,0.0,0.0,0.0,0.0,0.0,0.0,0.0,0.0,0.0,0.0,0.0,-2.2398,0.0,0.0,0.0,0.0,0.0,0.0,0.0,0.0,0.0,0.0,0.0,0.0,0.0,0.0,0.0,0.0,0.0,0.0,0.0,0.0,0.0,0.0,-2.9247,-3.058,-3.5731,-3.8706,-3.943,-3.9409,-3.9388,-3.9373,-3.8736,-3.7434,-3.5385,0.0,0.0,0.0,0.0,0.0,0.0,0.0,0.0,0.0,0.0,0.0,0.0,0.0,0.0,0.0,0.0,0.0,0.0,0.0,0.0,0.0,0.0,0.0,0.0,0.0,0.0,-2.4649,-2.5217,-2.563,0.0,0.0,0.0,0.0,0.0,0.0,0.0,0.0,0.0,0.0,-3.7285,-3.9394,-3.952,-4.0023,-4.0487,-4.0502,-3.8892,-3.8017,-3.9298,-3.8891,-3.7982,0.0,0.0,0.0,0.0,0.0,0.0,0.0,0.0,0.0,0.0,0.0,0.0,0.0,0.0,0.0,0.0,0.0,0.0,0.0,0.0,0.0,0.0,0.0,0.0,0.0,0.0,0.0,-3.0531,-2.8942,0.0,0.0,0.0,0.0,0.0,0.0,0.0,0.0,0.0,0.0,0.0,-3.2587,-3.3983,0.0,0.0,0.0,0.0,0.0,0.0,0.0,0.0,0.0,0.0,0.0,0.0,-3.0103,-3.1943,-3.6163,-3.8721,-3.9358,-3.9388,-3.9388,-3.9409,-3.9164,-3.7734,-3.4938,0.0,0.0,0.0,0.0,0.0,0.0,0.0,0.0,0.0,0.0,0.0,0.0,0.0,0.0,0.0,0.0,0.0,0.0,0.0,0.0,0.0,0.0,0.0,0.0,0.0,-2.5929,0.0,0.0,0.0,0.0,0.0,0.0,0.0,0.0,0.0,0.0,0.0,-3.4218,-3.6163,-3.7764,-3.905,-3.9948,-4.0262,-4.0711,0.0,0.0,0.0,0.0,0.0,0.0,0.0,0.0,0.0,0.0,0.0,0.0,0.0,0.0,-4.0263,-3.4728,-3.4641,-3.5532,-3.5654,0.0,0.0,0.0,0.0,0.0,0.0,0.0,0.0,0.0,0.0,0.0,0.0,0.0,0.0,0.0,0.0,-3.2747,0.0,0.0,0.0,0.0,0.0,0.0,0.0,0.0,-3.5411,-3.6761,-3.6615,-3.7853,-3.8018,0.0,-3.5639,-3.3006,0.0,0.0,0.0,0.0,0.0,0.0,0.0,0.0,-3.112,-3.2931,-3.6746,-3.896,-3.9358,-3.9388,-3.9388,-3.9388,-3.9388,-3.8182,-3.5579,-3.3619,-3.1593,0.0,0.0,0.0,0.0,0.0,0.0,0.0,0.0,0.0,0.0,0.0,0.0,0.0,0.0,0.0,0.0,0.0,0.0,0.0,0.0,0.0,0.0,0.0,-2.7021,0.0,0.0,0.0,0.0,0.0,0.0,0.0,0.0,0.0,-3.326,-3.4981,-3.6926,-3.8871,-3.9499,-3.9933,-4.0337,0.0,0.0,0.0,0.0,0.0,0.0,0.0,-3.942,-3.9429,-3.9673,-4.0157,-4.1235,-4.2632,-4.3574,-4.3419,0.0,0.0,-3.8179,-3.8103,-3.891,-3.9071,-3.9471,-4.0074,-4.0905,-4.1265,-4.1429,0.0,0.0,0.0,0.0,0.0,0.0,0.0,0.0,-3.9377,-3.8954,0.0,-3.7381,0.0,0.0,0.0,0.0,0.0,-3.404,0.0,0.0,-3.9535,-4.104,-4.0442,-4.0472,-4.0487,-4.0457,-3.9768,-3.8467,-3.6432,-3.2152,0.0,0.0,0.0,0.0,0.0,0.0,-3.2243,-3.3679,-3.7434,-3.9409,-3.9388,-3.9388,-3.9388,-3.9388,-3.9388,-3.8811,-3.7524,-3.6806,-3.5362,-3.2893,-3.0202,0.0,0.0,0.0,0.0,0.0,0.0,0.0,0.0,0.0,0.0,0.0,0.0,0.0,0.0,0.0,0.0,0.0,0.0,0.0,0.0,-2.6881,0.0,0.0,0.0,0.0,0.0,0.0,0.0,0.0,0.0,0.0,-3.6731,-3.8287,-4.0172,-4.2021,0.0,0.0,0.0,0.0,-4.095,-3.9798,-3.9528,-3.9795,-4.0495,-4.1058,-4.1439,-4.1498,0.0,0.0,-4.3484,-4.3932,-4.4257,-4.3574,-4.5068,-4.6142,-4.5319,-4.3962,-4.3305,-4.3389,-4.292,-4.256,-4.2605,-4.315,-4.3484,-4.4807,0.0,0.0,0.0,0.0,-4.3064,-4.4282,-4.6143,-4.6143,-4.5128,-4.342,-4.2702,0.0,0.0,0.0,0.0,0.0,0.0,-3.7496,-3.8377,-4.0427,-4.1534,-4.1856,-4.2282,-4.2438,-4.2438,-4.1818,-4.1272,-4.0628,-3.8407,-3.4382,-2.8843,0.0,0.0,0.0,0.0,-3.4292,-3.5684,-3.8138,-3.9388,-3.9388,-3.9388,-3.9388,-3.9388,-3.9388,-3.923,-3.8841,-3.8212,-3.7121,-3.5483,-3.318,0.0,0.0,0.0,0.0,0.0,0.0,0.0,0.0,0.0,0.0,0.0,0.0,0.0,0.0,0.0,0.0,0.0,0.0,0.0,-2.7575,-2.8068,-2.8742,0.0,0.0,0.0,0.0,0.0,0.0,0.0,0.0,0.0,-4.1175,-4.1025,-4.0861,0.0,0.0,-4.0651,-3.9813,-4.0666,-4.1579,-4.2079,0.0,0.0,0.0,-4.2599,-4.2421,-4.3322,-4.4713,-4.5636,-4.5457,-4.6007,-4.6381,-4.6172,-4.6621,-4.6965,-4.6726,-4.5893,-4.5499,-4.5977,-4.5537,-4.5191,-4.5768,-4.6052,-4.6157,-5.0845,-4.8359,-4.6358,-4.5889,-4.6599,-4.6857,-4.7936,-4.9458,-4.9746,-4.912,-4.7868,-4.7411,-4.5483,-4.2375,-3.9772,0.0,0.0,0.0,-4.0165,-4.0973,-4.2058,-4.2611,-4.2776,-4.311,-4.3305,-4.3275,-4.294,-4.2611,-4.2381,-4.1294,-3.8063,-3.2856,0.0,0.0,-3.1643,-3.4039,-3.5836,-3.6881,-3.8542,-3.9388,-3.9388,-3.9388,-3.9388,-3.9388,-3.9388,-3.9388,-3.9388,-3.902,-3.8442,-3.7746,-3.5652,-3.3318,0.0,0.0,0.0,0.0,0.0,0.0,0.0,0.0,0.0,0.0,0.0,-2.4343,0.0,0.0,0.0,0.0,-2.6961,-2.9056,-3.0776,-3.1165,0.0,0.0,0.0,0.0,0.0,0.0,0.0,-3.9155,-4.0891,-4.2387,-4.3514,-4.3254,-4.288,-4.2761,-4.2282,-4.1803,-4.1414,0.0,-4.312,-4.3604,-4.3902,-4.4231,-4.4613,-4.4277,-4.4292,-4.5308,-4.6157,-4.6696,-4.6726,-4.7055,-4.7294,-4.7309,-4.7309,-4.7309,-4.7309,-4.6877,-4.6638,-4.7167,-4.6873,-4.6817,-4.7549,-4.7698,-4.7758,-5.5412,-5.4346,-4.9543,-4.7868,-4.8379,-4.9086,-4.9746,-5.0405,-5.1099,-5.1337,-5.1302,-5.1302,-5.0071,-4.7858,-4.4821,0.0,-4.1881,-4.298,-4.3424,-4.3469,-4.4062,-4.3988,-4.3379,-4.3319,-4.3305,-4.3305,-4.3305,-4.303,-4.247,-4.1826,-4.0187,-3.7764,-3.706,-3.6061,-3.4818,-3.6001,-3.6956,-3.7569,-3.876,-3.9388,-3.9388,-3.9388,-3.9388,-3.9388,-3.9379,-3.9298,-3.9334,-3.9275,-3.93,-3.9354,-3.7558,-3.5679,-3.3785,0.0,0.0,0.0,0.0,0.0,0.0,0.0,0.0,0.0,0.0,0.0,0.0,0.0,0.0,0.0,-3.1539,0.0,-3.4683,-3.537,0.0,0.0,0.0,-3.8033,-3.8781,-4.0531,-4.1923,-4.256,0.0,0.0,-4.4481,0.0,-4.5618,-4.6307,-4.5244,-4.4362,-4.4332,-4.484,-4.517,-4.4601,-4.5035,-4.5472,-4.5528,-4.5911,-4.6399,-4.6995,-4.7309,-4.7279,-4.7264,-4.7294,-4.7309,-4.7309,-4.7309,-4.7309,-4.7309,-4.7279,-4.7324,-4.7384,-4.7384,-4.7593,-4.8222,-4.8371,-4.8506,-5.6444,-5.6139,-5.4329,-5.3044,-5.2215,-5.2367,-5.2536,-5.2706,-5.2892,-5.2621,-5.2046,-5.2046,-5.1043,-4.9243,-4.7715,-4.6529,-4.5588,-4.5052,-4.4825,-4.4811,-4.4481,-4.4227,-4.4022,-4.3544,-4.3305,-4.3305,-4.3305,-4.3215,-4.306,-4.2485,-4.1587,-4.0464,-3.929,-3.7808,-3.6133,-3.7319,-3.8257,-3.8895,-3.926,-3.9388,-3.9388,-3.9388,-3.9388,-3.9388,-3.8901,-3.8631,-3.8631,-3.8153,-3.7912,-3.7888,-3.703,-3.5859,-3.4348,-3.1037,0.0,0.0,0.0,0.0,0.0,0.0,0.0,0.0,0.0,-2.9238,-2.4948,0.0,-3.1928,0.0,-3.3036,-3.5519,-3.7285,-3.7599,0.0,0.0,-4.0352,-4.1085,-4.2716,-4.3763,-4.4421,-4.4586,-4.5319,-4.5801,-4.5816,-4.5978,-4.6322,-4.695,-4.5918,-4.487,-4.4436,-4.5293,-4.6022,-4.5918,-4.6367,-4.6845,-4.6759,-4.6937,-4.7115,-4.7279,-4.7309,-4.7309,-4.7309,-4.7309,-4.7309,-4.7309,-4.7309,-4.7309,-4.7309,-4.7309,-4.7504,-4.7923,-4.8176,-4.8445,-4.8955,-4.9075,-4.909,-5.7087,-5.6765,-5.6376,-5.553,-5.4465,-5.4126,-5.3974,-5.3957,-5.3653,-5.3247,-5.2824,-5.2824,-5.2033,-5.0683,-4.9676,-4.8697,-4.771,-4.6686,-4.6022,-4.5723,-4.5379,-4.4885,-4.4302,-4.3943,-4.3574,-4.3305,-4.3305,-4.3305,-4.3275,-4.2955,-4.2462,-4.1841,-4.1085,-3.9888,-3.8287,-3.8048,-3.8138,-3.8527,-3.8811,-3.911,-3.9373,-3.9388,-3.926,-3.8975,-3.8586,-3.8242,-3.7973,-3.7614,-3.7285,-3.7015,-3.6671,-3.6013,-3.4966,-3.2362,-3.0432,0.0,0.0,0.0,0.0,0.0,0.0,0.0,0.0,0.0,0.0,0.0,-3.4592,0.0,-3.6776,-3.911,-4.0457,-4.11,-4.1805,-4.2581,-4.3738,-4.4649,-4.5138,-4.6293,-4.695,-4.6651,-4.6965,-4.7085,-4.6815,-4.677,-4.689,-4.7249,-4.6651,-4.6067,-4.5783,-4.6322,-4.6756,-4.6743,-4.707,-4.7309,-4.7309,-4.7309,-4.7309,-4.7309,-4.7309,-4.7309,-4.7309,-4.7309,-4.7309,-4.7309,-4.7309,-4.7309,-4.7309,-4.7309,-4.7593,-4.8491,-4.882,-4.9075,-4.9568,-4.9703,-4.9748,-5.7526,-5.6951,-5.6934,-5.6562,-5.5953,-5.5192,-5.4769,-5.4549,-5.3923,-5.3585,-5.3518,-5.3518,-5.299,-5.2029,-5.1043,-4.9993,-4.8948,-4.7961,-4.7109,-4.6456,-4.6367,-4.5663,-4.4451,-4.4347,-4.3973,-4.3319,-4.3305,-4.3305,-4.3305,-4.3305,-4.3015,-4.2425,-4.2321,-4.1662,-4.0367,-3.8586,-3.7674,-3.7674,-3.8153,-3.8691,-3.9275,-3.92,-3.8886,-3.8302,-3.8217,-3.7883,-3.733,-3.721,-3.6911,-3.6402,-3.6357,-3.6133,-3.5624,-3.3814,-3.2512,0.0,-3.0195,0.0,0.0,0.0,0.0,0.0,0.0,0.0,0.0,-3.6345,-3.7734,-3.8931,-4.1332,-4.3039,-4.3618,-4.49,-4.5365,-4.4611,-4.6725,-4.7759,-4.6444,-4.7955,-4.8924,-4.8343,-4.8298,-4.8057,-4.7519,-4.7429,-4.7429,-4.7339,-4.7369,-4.7294,-4.7264,-4.7234,-4.7249,-4.7309,-4.7309,-4.7309,-4.7309,-4.7309,-4.7309,-4.7309,-4.7309,-4.7309,-4.7309,-4.7309,-4.7309,-4.7309,-4.7309,-4.7309,-4.7309,-4.7309,-4.7758,-4.9,-4.9254,-4.9479,-5.0152,-5.0315,-5.051,-5.7814,-5.7679,-5.7695,-5.7594,-5.7425,-5.6697,-5.57,-5.4583,-5.4431,-5.4059,-5.3518,-5.3518,-5.3382,-5.311,-5.2082,-5.1043,-5.0048,-4.8988,-4.7996,-4.71,-4.6533,-4.5861,-4.511,-4.4571,-4.3973,-4.3319,-4.3305,-4.3305,-4.3305,-4.3305,-4.3015,-4.241,-4.1871,-4.1175,-4.0397,0.0,0.0,0.0,-3.8601,-3.8452,-3.8556,-3.8063,-3.7719,-3.7584,-3.712,0.0,-3.6641,-3.6163,-3.5818,-3.5699,-3.5684,0.0,0.0,0.0,0.0,0.0,0.0,0.0,0.0,0.0,0.0,0.0,-3.8138,-3.7579,-3.7,-3.958,-4.1602,-4.2318,-4.3838,-4.502,-4.5708,-4.695,-4.7229,-4.6054,-4.7258,-4.7659,-4.6363,-4.7518,-4.8329,-4.8261,-4.8263,-4.8252,-4.8117,-4.8087,-4.7908,-4.7459,-4.7758,-4.7863,-4.7384,-4.7324,-4.7309,-4.7309,-4.7309,-4.7309,-4.7309,-4.7309,-4.7309,-4.7309,-4.7309,-4.7309,-4.7309,-4.7309,-4.7309,-4.7309,-4.7309,-4.7309,-4.7309,-4.7309,-4.7743,-4.9015,-4.9299,-4.9674,-5.0765,-5.0988,-5.1079,-5.7881,0.0,-5.7881,-5.7881,0.0,-5.7492,-5.6714,-5.5632,-5.4905,-5.4177,-5.3518,-5.3518,-5.3213,-5.2662,-5.1631,-5.0589,-4.9575,-4.8543,-4.7792,-4.7294,-4.6965,-4.6456,-4.5783,-4.511,-4.4466,-4.3783,-4.3454,-4.3536,-4.4028,-4.4043,-4.3876,-4.3602,-4.3229,-4.2516,-4.1407,-4.0726,-4.0068,-3.9388,-3.8736,-3.8556,-3.8871,-3.8586,-3.8242,-3.7898,0.0,0.0,0.0,0.0,0.0,0.0,0.0,0.0,0.0,0.0,0.0,-3.6866,-3.6611,-3.6716,-3.736,-3.8033,-3.926,-4.1205,-4.2228,-4.2079,-4.0435,-4.2776,-4.4451,-4.4755,-4.5708,-4.6561,-4.7234,-4.8192,-4.8355,-4.7402,-4.8665,-4.8895,-4.7209,-4.8428,-4.926,-4.8432,-4.8803,-4.9045,-4.8371,-4.8596,-4.8491,-4.7923,-4.8057,-4.8177,-4.7833,-4.7504,-4.7309,-4.7309,-4.7309,-4.7309,-4.7309,-4.7309,-4.7309,-4.7309,-4.7309,-4.7309,-4.7309,-4.7309,-4.7309,-4.7309,-4.7309,-4.7309,-4.7339,-4.7549,-4.8072,-4.8791,-4.9388,-5.0032,-5.0958,-5.1229,-5.1229,-5.7881,-5.7881,-5.7881,-5.7881,-5.7881,-5.7881,-5.7476,-5.6697,0.0,0.0,0.0,-5.3687,-5.3159,-5.2117,-5.1134,-5.0071,-4.9029,-4.803,-4.7452,-4.7309,-4.7309,-4.695,-4.6249,-4.5738,-4.5147,-4.4529,-4.3972,-4.4173,-4.502,-4.5058,-4.4946,-4.4812,-4.4812,-4.4059,-4.2584,-4.1916,-4.1025,-3.9963,-3.905,-3.8781,-3.9194,-3.923,-3.8975,-3.8392,-3.8512,-3.8317,-3.7793,-3.7764,-3.7524,-3.703,-3.7015,-3.7285,-3.7898,-3.7928,-3.8482,-3.9649,-3.9888,-4.0217,-4.0876,-4.1534,-4.2462,-4.3723,-4.5442,-4.5711,-4.3947,-4.5442,-4.6503,-4.6651,-4.716,-4.7743,-4.8401,-4.9045,-4.9095,-4.8326,-4.9795,-4.981,-4.767,-4.9259,-5.0066,-4.8837,-4.9437,-4.9747,-4.8686,-4.8925,-4.906,-4.8461,-4.8401,-4.8431,-4.8237,-4.7698,-4.7309,-4.7309,-4.7309,-4.7309,-4.7309,-4.7309,-4.7309,-4.7309,-4.7309,-4.7309,-4.7309,-4.7309,-4.7309,-4.7309,-4.7309,-4.7369,-4.7489,-4.7908,-4.8402,-4.879,-4.9551,-5.0375,-5.1035,-5.1229,-5.1229,-5.7881,-5.7881,-5.7881,-5.7881,-5.7881,-5.7881,-5.7476,-5.6748,-5.5919,-5.5141,-5.4448,-5.4448,-5.4007,-5.323,-5.217,-5.1117,-5.0126,-4.9085,-4.8141,0.0,-4.7309,-4.6965,-4.6337,-4.6175,-4.5923,-4.5541,-4.5411,-4.5572,-4.5953,-4.6012,-4.5613,-4.4909,-4.4812,-4.4236,-4.3229,-4.2551,-4.2171,-4.1946,-4.0187,-3.9035,-3.8542,-3.8527,-3.8482,-3.8422,-3.899,-3.9245,-3.914,-3.9104,-3.9095,-3.902,-3.897,-3.9305,-3.9933,-3.9963,-4.0307,-4.1055,-4.1677,-4.2237,-4.2841,-4.3539,-4.4481,-4.5783,-4.6681,-4.6785,-4.598,-4.6681,-4.7399,-4.7938,-4.8072,-4.8416,-4.912,-4.9703,-4.9554,-4.8509,-4.8982,-4.8837,-4.7415,-4.8589,-4.9475,-4.9086,-4.9716,-4.9956,-4.9314,-4.9269,-4.909,-4.8581,-4.8835,-4.894,-4.8327,-4.7728,-4.7354,-4.7309,-4.7309,-4.7309,-4.7309,-4.7309,-4.7309,-4.7309,-4.7309,-4.7309,-4.7309,-4.7309,-4.7309,-4.7309,-4.7309,-4.7504,-4.7982,-4.8207,-4.8701,-4.9432,-5.0,-5.0465,-5.1109,-5.1229,-5.1229,-5.7881,-5.7881,-5.7881,-5.7881,-5.7881,-5.7881,-5.7712,-5.7374,-5.7036,-5.6258,-5.5192,-5.4769,-5.4087,-5.3142,-5.1721,-5.0855,-5.0336,-4.8733,-4.803,-4.8072,-4.7538,-4.7145,-4.6845,-4.6444,-4.649,-4.6794,-4.6501,-4.6792,-4.7482,-4.7554,-4.6875,-4.5556,-4.4533,-4.3732,-4.3314,-4.303,-4.2701,-4.2381,-4.113,-4.0322,-4.0023,-4.0044,-4.0008,-4.0008,-4.0337,-4.0487,-4.0487,-4.0487,-4.0487,-4.0487,-4.0487,-4.0786,-4.1414,-4.1459,-4.1758,-4.2402,-4.306,-4.3554,-4.3798,-4.4784,-4.5828,-4.677,-4.713,-4.7189,-4.689,-4.7459,-4.7967,-4.8267,-4.8596,-4.909,-4.9718,-5.0001,-5.0069,-4.9878,-5.0125,-4.9727,-4.8688,-4.947,-4.9984,-4.9455,-5.0099,-5.048,-4.9883,-4.9793,-4.9703,-4.9419,-4.9643,-4.9419,-4.8461,-4.8042,-4.7698,-4.7384,-4.7309,-4.7309,-4.7309,-4.7309,-4.7309,-4.7309,-4.7309,-4.7309,-4.7309,-4.7309,-4.7309,-4.7309,-4.7309,-4.7563,-4.8177,-4.864,-4.9119,-4.9716,-5.0388,-5.0838,-5.1154,-5.1229,-5.1229,-5.7881,-5.7881,-5.7881,-5.7881,-5.7881,-5.7881,-5.7881,-5.7881,-5.7865,-5.7256,-5.6173,-5.526,-5.4285,-5.3235,-5.1517,-5.0741,-5.0435,-4.8569,-4.8072,-4.8636,-4.7764,-4.7309,-4.7292,-4.6954,-4.7328,-4.805,-4.787,-4.832,-4.9159,-4.9078,-4.8061,-4.6166,-4.4251,-4.3305,-4.3305,-4.3305,-4.309,-4.262,-4.2073,-4.1683,-4.1437,-4.1519,-4.1647,-4.1647,-4.1743,-4.1818,-4.1818,-4.1818,-4.1833,-4.1818,-4.1818,-4.2058,-4.2575,-4.277,-4.303,-4.3514,-4.4167,-4.4616,-4.4811,-4.5873,-4.6756,-4.7249,-4.7444,-4.7534,-4.7578,-4.8282,-4.8656,-4.8611,-4.9164,-4.9748,-5.0285,-5.042,-5.0614,-5.1169,-5.1229,-5.0745,-4.9921,-5.0588,-5.0855,-4.9921,-5.0335,-5.054,-5.0282,-4.9935,-4.9783,-5.0075,-5.0196,-4.9702,-4.876,-4.8401,-4.8027,-4.7534,-4.7309,-4.7309,-4.7309,-4.7309,-4.7309,-4.7309,-4.7309,-4.7309,-4.7309,-4.7309,-4.7309,-4.7324,-4.7474,-4.7833,-4.8401,-4.9045,-4.9673,-5.0194,-5.0764,-5.1184,-5.1214,-5.1229,-5.1229,-5.7881,-5.7881,-5.7881,-5.7881,-5.7881,-5.7881,-5.7881,-5.7881,-5.7881,-5.7848,-5.7476,-5.6224,-5.5191,-5.4257,-5.2536,-5.1756,-5.1614,-4.9599,-4.8743,-4.8702,-4.7749,-4.7309,-4.7424,-4.8133,-4.8754,-4.927,-4.9965,-5.0461,-5.0806,-5.0165,-4.8663,-4.6253,-4.4266,-4.3305,-4.3305,-4.3305,-4.326,-4.3215,-4.314,-4.2581,-4.1489,-4.2006,-4.2321,-4.2321,-4.2851,-4.311,-4.3035,-4.311,-4.311,-4.311,-4.3095,-4.314,-4.326,-4.3793,-4.4152,-4.4242,-4.484,-4.5469,-4.6097,-4.68,-4.7219,-4.7339,-4.7848,-4.8162,-4.8222,-4.9299,-4.9793,-4.9434,-4.9778,-5.036,-5.102,-5.1109,-5.1109,-5.1184,-5.1229,-5.1105,-5.0964,-5.1105,-5.1105,-5.1073,-4.9921,-4.9591,-4.988,-4.9357,-4.911,-5.0103,-5.0285,-5.0032,-4.9224,-4.8671,-4.8102,-4.7519,-4.7309,-4.7309,-4.7309,-4.7309,-4.7309,-4.7309,-4.7309,-4.7309,-4.7309,-4.7309,-4.7309,-4.7354,-4.7773,-4.8312,-4.8985,-4.9703,-5.024,-5.0719,-5.1048,-5.1229,-5.1229,-5.1229,-5.1229,-5.7881,-5.7881,-5.7881,-5.7881,-5.7881,-5.7881,-5.7881,-5.7881,-5.7881,-5.7881,-5.7763,-5.6799,-5.5953,-5.5139,-5.3346,-5.2655,-5.2696,-5.0703,-4.9718,-4.9655,-4.8692,-4.8183,-4.8252,-4.8594,-4.9481,-5.0786,-5.128,-5.1571,-5.1413,-4.9592,-4.7879,-4.671,-4.4504,-4.3305,-4.3305,-4.3305,-4.3305,-4.3305,-4.3305,-4.3021,-4.2641,-4.2791,-4.2925,-4.2955,-4.3195,-4.3305,-4.3305,-4.3305,-4.3305,-4.3319,-4.3688,-4.3873,-4.3928,-4.4526,-4.4885,-4.493,-4.5529,-4.6202,-4.686,-4.7174,-4.7309,-4.7309,-4.7908,-4.8297,-4.8341,-4.9479,-5.0061,-4.9987,-5.039,-5.0898,-5.1184,-5.1229,-5.1229,-5.1229,-5.1229,-5.1214,-5.1229,-5.0508,-5.0032,-4.9936,-4.8802,-4.8418,-4.9407,-4.9842,-4.9994,-5.0329,-5.0465,-5.0376,-4.9509,-4.906,-4.8446,-4.7578,-4.7309,-4.7309,-4.7309,-4.7309,-4.7309,-4.7309,-4.7309,-4.7309,-4.7309,-4.7309,-4.7309,-4.7309,-4.7908,-4.8536,-4.9105,-4.9793,-5.0375,-5.0975,-5.1229,-5.1229,-5.1229,-5.1229,-5.1229,-5.7881,-5.7881,-5.7881,-5.7881,-5.7881,-5.7881,-5.7881,-5.7881,-5.7881,-5.7881,-5.7848,-5.7323,-5.6697,-5.5813,-5.42,-5.3447,-5.3101,-5.129,-5.0242,-4.9891,-4.8866,-4.8377,-4.8388,-4.9013,-4.9993,-5.1303,-5.1743,-5.1756,-5.1237,-4.8877,-4.7262,-4.6571,-4.4616,-4.3469,-4.3319,-4.3305,-4.3305,-4.3305,-4.3305,-4.3305,-4.329,-4.3305,-4.3305,-4.3305,-4.3305,-4.3305,-4.3305,-4.3469,-4.3559,-4.3574,-4.4186,-4.4586,-4.4601,-4.5214,-4.5648,-4.5858,-4.6307,-4.68,-4.7279,-4.7474,-4.7578,-4.7638,-4.8327,-4.882,-4.9015,-4.9853,-5.0405,-5.0495,-5.0898,-5.1199,-5.1229,-5.1229,-5.1229,-5.1229,-5.1229,-5.1105,-5.0636,-4.9713,-4.9098,-4.8653,-4.7808,-4.7619,-4.8999,-5.0258,-5.0958,-5.0644,-5.0689,-5.0601,-4.9584,-4.912,-4.8536,-4.7504,-4.7309,-4.7309,-4.7309,-4.7309,-4.7309,-4.7309,-4.7309,-4.7309,-4.7309,-4.7309,-4.7309,-4.7384,-4.8042,-4.8656,-4.9239,-4.9853,-5.0524,-5.1005,-5.1229,-5.1229,-5.1229,-5.1229,-5.1229,-5.7881,-5.7881,-5.7881,-5.7881,-5.7881,-5.7881,-5.7881,-5.7881,-5.7881,-5.7881,-5.7881,-5.7831,-5.7425,-5.6664,-5.5223,-5.3976,-5.2937,-5.1367,-5.0041,-4.9069,-4.803,-4.7409,-4.7495,-4.9352,-5.0397,-5.0779,-5.1525,-5.1145,-4.963,-4.8364,-4.7083,-4.5827,-4.4789,-4.3902,-4.3439,-4.3319,-4.3305,-4.3305,-4.3349,-4.3305,-4.3319,-4.3319,-4.3379,-4.3364,-4.3305,-4.3305,-4.3394,-4.3902,-4.4257,-4.4272,-4.49,-4.5259,-4.5304,-4.5903,-4.6546,-4.707,-4.7204,-4.7264,-4.7399,-4.7863,-4.8207,-4.8386,-4.9329,-5.0046,-4.9956,-5.0599,-5.105,-5.1154,-5.1169,-5.1229,-5.1229,-5.1229,-5.1229,-5.1229,-5.1229,-5.065,-4.947,-4.921,-4.8525,-4.7568,-4.7159,-4.7605,-4.895,-5.035,-5.1058,-5.1005,-5.0629,-5.0062,-4.9404,-4.8805,-4.8117,-4.7578,-4.7309,-4.7309,-4.7309,-4.7309,-4.7309,-4.7309,-4.7309,-4.7309,-4.7309,-4.7309,-4.7309,-4.7578,-4.8431,-4.9105,-4.9434,-5.0047,-5.0825,-5.1229,-5.1229,-5.1229,-5.1229,-5.1229,-5.1229,-5.7881,-5.7881,-5.7881,-5.7881,-5.7881,-5.7881,-5.7881,-5.7881,-5.7881,-5.7881,-5.7881,-5.7881,-5.7746,-5.7442,-5.6461,-5.527,-5.4028,-5.3356,-5.1925,-4.9978,-4.9416,-4.8922,-4.846,-4.9734,-5.0779,-5.1357,-5.1724,-5.1263,-4.9959,-4.8537,-4.757,-4.6815,-4.5188,-4.4142,-4.3928,-4.3499,-4.3305,-4.3349,-4.3678,-4.3723,-4.3454,-4.4152,-4.4407,-4.3917,-4.3499,-4.3484,-4.3902,-4.4197,-4.4496,-4.4915,-4.5574,-4.5963,-4.6022,-4.6591,-4.7055,-4.7264,-4.7309,-4.7489,-4.7878,-4.8147,-4.8476,-4.897,-4.9718,-5.0226,-5.03,-5.0825,-5.1229,-5.1229,-5.1229,-5.1229,-5.1229,-5.1229,-5.1229,-5.1229,-5.1167,-5.065,-4.9421,-4.8439,-4.7299,-4.6279,-4.6487,-4.7364,-4.8239,-4.9824,-5.112,-5.1169,-5.0599,-4.9987,-4.9359,-4.876,-4.8027,-4.7504,-4.7309,-4.7309,-4.7309,-4.7309,-4.7309,-4.7309,-4.7309,-4.7324,-4.7324,-4.7384,-4.7399,-4.7728,-4.8611,-4.9404,-4.9703,-5.0331,-5.1079,-5.1229,-5.1229,-5.1229,-5.1229,-5.1229,-5.1229,-5.7881,-5.7881,-5.7881,-5.7881,-5.7881,-5.7881,-5.7881,-5.7881,-5.7881,-5.7881,-5.7881,-5.7881,-5.7881,-5.7814,-5.7374,-5.6494,-5.5276,-5.4473,-5.2708,-5.0342,-4.9986,-4.9512,-4.9013,-4.9536,-5.0419,-5.1176,-5.1043,-5.0381,-4.94,-4.8229,-4.7553,-4.7181,-4.5664,-4.4825,-4.4601,-4.4182,-4.3932,-4.4062,-4.4407,-4.4407,-4.4137,-4.4825,-4.5095,-4.4646,-4.4157,-4.4152,-4.4616,-4.484,-4.5155,-4.5633,-4.6292,-4.6651,-4.6681,-4.7055,-4.7309,-4.7324,-4.7519,-4.7803,-4.8267,-4.8656,-4.9119,-4.9553,-5.0182,-5.051,-5.0554,-5.0975,-5.1184,-5.1229,-5.1229,-5.1229,-5.1229,-5.1229,-5.1229,-5.1229,-5.1229,-5.0445,-4.8738,-4.767,-4.6539,-4.5608,-4.6279,-4.7146,-4.7909,-4.9873,-5.0964,-5.1214,-5.0496,-4.9748,-4.9344,-4.8506,-4.7863,-4.7414,-4.7309,-4.7309,-4.7309,-4.7309,-4.7309,-4.7309,-4.7399,-4.7399,-4.7549,-4.7563,-4.7743,-4.8057,-4.8611,-4.9374,-5.0062,-5.069,-5.1005,-5.1184,-5.1229,-5.1229,-5.1229,-5.1229,-5.1229,-5.7881,-5.7881,-5.7881,-5.7881,-5.7881,-5.7881,-5.7881,-5.7881,-5.7881,-5.7881,-5.7881,-5.7881,-5.7881,-5.7865,-5.7797,-5.7408,-5.6419,-5.4548,-5.2406,-5.0344,-4.96,-4.9181,-4.8988,-4.911,-4.9536,-5.0304,-4.9376,-4.8418,-4.7609,-4.7405,-4.7034,-4.6484,-4.6304,-4.5828,-4.5304,-4.517,-4.517,-4.517,-4.5229,-4.5259,-4.5289,-4.5379,-4.5439,-4.5334,-4.5304,-4.5334,-4.5364,-4.5903,-4.616,-4.6324,-4.6905,-4.7279,-4.7219,-4.7294,-4.7309,-4.7474,-4.7923,-4.8252,-4.8491,-4.9479,-5.0001,-5.0255,-5.0764,-5.1109,-5.1094,-5.1169,-5.1229,-5.1229,-5.1229,-5.1229,-5.1229,-5.1229,-5.1229,-5.1229,-5.1229,-5.0128,-4.7974,-4.7057,-4.6539,-4.5462,-4.6122,-4.7568,-4.8901,-5.008,-5.0917,-5.0911,-5.0257,-4.9508,-4.9404,-4.8521,-4.7593,-4.7399,-4.7459,-4.7519,-4.7414,-4.7309,-4.7309,-4.7324,-4.7459,-4.7563,-4.7952,-4.8117,-4.8401,-4.873,-4.9254,-4.9987,-5.0526,-5.1065,-5.1094,-5.1229,-5.1229,-5.1229,-5.1229,-5.1229,-5.1229,-5.7881,-5.7881,-5.7881,-5.7881,-5.7881,-5.7881,-5.7881,-5.7881,-5.7881,-5.7881,-5.7881,-5.7881,-5.7881,-5.7881,-5.7881,-5.7763,-5.7422,-5.6102,-5.4315,-5.2275,-5.1744,-5.0968,-5.0033,-4.9891,-4.9679,-4.9336,-4.8988,-4.8293,-4.7467,-4.7309,-4.7174,-4.6965,-4.6546,-4.619,-4.6007,-4.5559,-4.5289,-4.5334,-4.5768,-4.5798,-4.5454,-4.6217,-4.6456,-4.6112,-4.6426,-4.6681,-4.6681,-4.6456,-4.6561,-4.6965,-4.7189,-4.7309,-4.7309,-4.7309,-4.7519,-4.7923,-4.8162,-4.8745,-4.9538,-4.9941,-5.042,-5.0779,-5.1109,-5.1199,-5.1229,-5.1229,-5.1229,-5.1229,-5.1229,-5.1229,-5.1229,-5.1229,-5.1229,-5.1229,-5.1182,-5.0143,-4.7466,-4.5515,-4.4684,-4.4994,-4.5409,-4.6279,-4.7619,-4.8999,-5.0239,-5.0999,-5.0436,-4.9898,-4.9763,-4.9105,-4.8461,-4.8117,-4.8012,-4.7698,-4.7444,-4.7309,-4.7309,-4.7444,-4.7623,-4.7923,-4.8312,-4.8775,-4.9075,-4.9464,-5.0002,-5.0405,-5.1005,-5.1229,-5.1229,-5.1229,-5.1229,-5.1229,-5.1229,-5.1229,-5.1229,-5.7881,-5.7881,-5.7881,-5.7881,-5.7881,-5.7881,-5.7881,-5.7881,-5.7881,-5.7881,-5.7881,-5.7881,-5.7881,-5.7881,-5.7881,-5.7881,-5.7831,-5.7391,-5.6073,-5.4103,-5.3188,-5.2046,-5.0515,-4.9931,-4.9271,-4.8418,-4.8267,-4.7919,-4.7352,-4.7309,-4.7309,-4.7204,-4.689,-4.6696,-4.6666,-4.6277,-4.6037,-4.6112,-4.6471,-4.6471,-4.6307,-4.686,-4.71,-4.6815,-4.7085,-4.7294,-4.7264,-4.689,-4.6875,-4.7219,-4.7309,-4.7399,-4.7623,-4.7698,-4.7967,-4.8536,-4.8925,-4.9404,-5.0106,-5.039,-5.0719,-5.1154,-5.1229,-5.1229,-5.1229,-5.1229,-5.1229,-5.1229,-5.1229,-5.1229,-5.1229,-5.1229,-5.1229,-5.1229,-5.1229,-4.9984,-4.7415,-4.4684,-4.3492,-4.4126,-4.4671,-4.5661,-4.694,-4.8325,-4.9664,-5.078,-5.0614,-5.0196,-5.0076,-4.9658,-4.906,-4.8551,-4.8252,-4.7863,-4.7414,-4.7309,-4.7309,-4.7549,-4.7818,-4.8252,-4.8701,-4.9299,-4.9733,-5.0152,-5.0646,-5.075,-5.1199,-5.1214,-5.1229,-5.1229,-5.1229,-5.1229,-5.1229,-5.1229,-5.1229,-5.7881,-5.7881,-5.7881,-5.7881,-5.7881,-5.7881,-5.7881,-5.7881,-5.7881,-5.7881,-5.7881,-5.7881,-5.7881,-5.7881,-5.7881,-5.7845,-5.7738,-5.7614,-5.6783,-5.525,-5.3855,-5.2193,-5.0493,-4.9456,-4.8486,-4.7581,-4.7424,-4.7352,-4.7309,-4.7309,-4.7309,-4.7294,-4.7249,-4.7279,-4.7189,-4.7249,-4.7145,-4.7115,-4.7219,-4.7204,-4.7174,-4.7264,-4.7294,-4.7234,-4.7279,-4.7309,-4.7294,-4.7234,-4.7249,-4.7309,-4.7309,-4.7578,-4.8117,-4.8282,-4.855,-4.9224,-4.9912,-5.0106,-5.036,-5.0764,-5.1154,-5.1214,-5.1229,-5.1229,-5.1229,-5.1229,-5.1229,-5.1229,-5.1229,-5.1229,-5.1229,-5.1229,-5.1229,-5.1167,-5.076,-4.947,-4.7466,-4.4792,-4.3436,-4.3449,-4.4264,-4.5449,-4.6799,-4.8239,-4.947,-5.0718,-5.0689,-5.045,-5.0285,-4.9972,-4.9224,-4.8895,-4.8805,-4.8089,-4.77,-4.7653,-4.7683,-4.7936,-4.8221,-4.8641,-4.9149,-4.9763,-5.027,-5.075,-5.1005,-5.1124,-5.1199,-5.1214,-5.1229,-5.1229,-5.1229,-5.1229,-5.1229,-5.1229,-5.1229,-5.7881,-5.7881,-5.7881,-5.7881,-5.7881,-5.7881,-5.7881,-5.7881,-5.7881,-5.7881,-5.7881,-5.7881,-5.7881,-5.7881,-5.7881,-5.7463,-5.6908,-5.6756,-5.6193,-5.5243,-5.4262,-5.2481,-5.0566,-4.9296,-4.8293,-4.7424,-4.7309,-4.7309,-4.7309,-4.7309,-4.7309,-4.7309,-4.7309,-4.7309,-4.7309,-4.7309,-4.7309,-4.7309,-4.7309,-4.7309,-4.7309,-4.7309,-4.7309,-4.7309,-4.7309,-4.7309,-4.7309,-4.7309,-4.7309,-4.7309,-4.7309,-4.7608,-4.8237,-4.8371,-4.888,-4.9823,-5.0091,-5.0435,-5.0885,-5.1109,-5.1214,-5.1229,-5.1229,-5.1229,-5.1229,-5.1229,-5.1229,-5.1229,-5.1229,-5.1229,-5.1229,-5.1229,-5.1229,-5.0949,-4.9616,-4.8425,-4.7859,-4.5409,-4.3338,-4.4222,-4.3907,-4.4887,-4.6539,-4.767,-4.8802,-5.0511,-5.105,-5.0838,-5.075,-5.069,-5.0152,-4.9927,-4.9613,-4.8641,-4.8075,-4.8058,-4.8102,-4.8385,-4.8715,-4.9105,-4.9613,-5.0212,-5.0705,-5.1107,-5.1124,-5.1199,-5.1214,-5.1229,-5.1229,-5.1229,-5.1229,-5.1229,-5.1229,-5.1229,-5.1229,-5.7881,-5.7881,-5.7881,-5.7881,-5.7881,-5.7881,-5.7881,-5.7881,-5.7881,-5.7881,-5.7881,-5.7881,-5.7881,-5.7881,-5.7881,-5.7243,-5.6321,-5.6718,-5.598,-5.4335,-5.3288,-5.1926,-5.045,-4.9311,-4.8293,-4.7381,-4.7309,-4.7309,-4.7309,-4.7309,-4.7309,-4.7309,-4.7309,-4.7309,-4.7309,-4.7309,-4.7309,-4.7309,-4.7309,-4.7309,-4.7309,-4.7309,-4.7309,-4.7309,-4.7309,-4.7309,-4.7309,-4.7309,-4.7309,-4.7369,-4.7563,-4.8012,-4.8685,-4.8985,-4.9583,-5.0571,-5.0599,-5.0808,-5.1109,-5.1229,-5.1229,-5.1229,-5.1229,-5.1229,-5.1229,-5.1229,-5.1229,-5.1229,-5.1229,-5.1229,-5.1229,-5.1229,-5.0902,-5.0176,-4.8375,-4.7466,-4.8275,-4.5088,-4.3657,-4.3852,-4.4113,-4.4576,-4.685,-4.7568,-4.9014,-5.0555,-5.1214,-5.1169,-5.1154,-5.1199,-5.1003,-5.0554,-5.0272,-4.9433,-4.888,-4.8775,-4.879,-4.8999,-4.9329,-4.9719,-5.0107,-5.0661,-5.0915,-5.1214,-5.1214,-5.1229,-5.1229,-5.1229,-5.1229,-5.1229,-5.1229,-5.1229,-5.1229,-5.1229,-5.1229,-5.7881,-5.7881,-5.7881,-5.7881,-5.7881,-5.7881,-5.7881,-5.7881,-5.7881,-5.7881,-5.7881,-5.7881,-5.7881,-5.7881,-5.7881,-5.7206,-5.6047,-5.6679,-5.562,-5.4009,-5.27,-5.1743,-5.0623,-4.9358,-4.8309,-4.7424,-4.7309,-4.7309,-4.7309,-4.7309,-4.7309,-4.7309,-4.7309,-4.7309,-4.7309,-4.7309,-4.7309,-4.7309,-4.7309,-4.7309,-4.7309,-4.7309,-4.7309,-4.7309,-4.7309,-4.7309,-4.7309,-4.7309,-4.7339,-4.7429,-4.7967,-4.8521,-4.9224,-4.9838,-5.0435,-5.099,-5.1124,-5.1154,-5.1167,-5.1229,-5.1229,-5.1229,-5.1229,-5.1229,-5.1229,-5.1229,-5.1229,-5.1229,-5.1229,-5.1229,-5.1229,-5.1229,-5.0807,-4.9873,-4.8339,-4.7453,-4.6643,-4.4684,-4.303,-4.324,-4.4331,-4.5568,-4.7108,-4.8389,-4.9679,-5.076,-5.1229,-5.1229,-5.1229,-5.1214,-5.102,-5.0614,-5.0406,-5.0258,-4.9838,-4.9569,-4.9584,-4.9734,-5.0078,-5.0406,-5.0676,-5.105,-5.1124,-5.1229,-5.1229,-5.1229,-5.1229,-5.1229,-5.1229,-5.1229,-5.1229,-5.1229,-5.1229,-5.1229,-5.1229,-5.7881,-5.7881,-5.7881,-5.7881,-5.7881,-5.7881,-5.7881,-5.7881,-5.7881,-5.7881,-5.7881,-5.7881,-5.7881,-5.7881,-5.7792,-5.6849,-5.515,-5.5256,-5.4534,-5.3825,-5.4205,-5.3003,-5.1341,-4.9671,-4.8355,-4.751,-4.7309,-4.7309,-4.7309,-4.7309,-4.7309,-4.7309,-4.7309,-4.7309,-4.7309,-4.7309,-4.7309,-4.7309,-4.7309,-4.7309,-4.7309,-4.7309,-4.7309,-4.7309,-4.7309,-4.7309,-4.7309,-4.7309,-4.7549,-4.7967,-4.8267,-4.8686,-4.9314,-4.9942,-5.0524,-5.105,-5.1229,-5.1229,-5.1229,-5.1229,-5.1229,-5.1229,-5.1229,-5.1229,-5.1229,-5.1229,-5.1229,-5.1229,-5.1229,-5.1229,-5.1229,-5.1229,-5.0917,-5.0287,-4.9357,-4.8189,-4.6954,-4.4725,-4.3713,-4.4277,-4.49,-4.5925,-4.8275,-4.8851,-4.9936,-5.0917,-5.1229,-5.1229,-5.1229,-5.1229,-5.105,-5.0749,-5.0362,-5.0152,-4.99,-4.9632,-4.9662,-4.9968,-5.0402,-5.0779,-5.1109,-5.1229,-5.1229,-5.1229,-5.1229,-5.1229,-5.1229,-5.1229,-5.1229,-5.1229,-5.1229,-5.1229,-5.1229,-5.1229,-5.1229,-5.7881,-5.7881,-5.7881,-5.7881,-5.7881,-5.7881,-5.7881,-5.7881,-5.7881,-5.7881,-5.7881,-5.7881,-5.7881,-5.7881,-5.7792,-5.6679,-5.4713,-5.3455,-5.344,-5.3623,-5.3791,-5.279,-5.1884,-5.03,-4.8998,-4.7589,-4.7309,-4.7309,-4.7309,-4.7309,-4.7309,-4.7309,-4.7309,-4.7309,-4.7309,-4.7309,-4.7309,-4.7309,-4.7309,-4.7309,-4.7309,-4.7309,-4.7309,-4.7309,-4.7309,-4.7309,-4.7309,-4.7309,-4.7668,-4.8177,-4.8596,-4.9045,-4.9688,-5.0331,-5.0808,-5.1124,-5.1229,-5.1229,-5.1229,-5.1229,-5.1229,-5.1229,-5.1229,-5.1229,-5.1229,-5.1229,-5.1229,-5.1229,-5.1229,-5.1229,-5.1229,-5.1229,-5.1026,-5.0239,-4.9664,-4.8653,-4.7159,-4.5249,-4.4113,-4.4981,-4.5608,-4.7005,-4.8439,-4.947,-5.0143,-5.1167,-5.1229,-5.1229,-5.1229,-5.1229,-5.1229,-5.0954,-5.0371,-5.0015,-4.9747,-4.9582,-4.9549,-4.9893,-5.0449,-5.0847,-5.1184,-5.1229,-5.1229,-5.1229,-5.1229,-5.1229,-5.1229,-5.1229,-5.1229,-5.1229,-5.1229,-5.1229,-5.1229,-5.1229,-5.1229,-5.7645,-5.7665,-5.7845,-5.7881,-5.7881,-5.7881,-5.7881,-5.7881,-5.7881,-5.7881,-5.7881,-5.7881,-5.7881,-5.7881,-5.7881,-5.6641,-5.4531,-5.253,-5.2393,-5.3755,-5.2907,-5.2317,-5.1728,-5.1029,-4.9824,-4.7814,-4.7578,-4.7534,-4.7504,-4.7354,-4.7309,-4.7309,-4.7309,-4.7309,-4.7309,-4.7309,-4.7309,-4.7309,-4.7309,-4.7309,-4.7309,-4.7309,-4.7309,-4.7309,-4.7309,-4.7309,-4.7354,-4.7489,-4.7803,-4.8416,-4.9105,-4.9718,-5.0346,-5.0855,-5.1229,-5.1229,-5.1229,-5.1229,-5.1229,-5.1229,-5.1229,-5.1229,-5.1229,-5.1229,-5.1229,-5.1229,-5.1229,-5.1229,-5.1229,-5.1229,-5.1229,-5.1229,-5.0665,-4.9984,-4.9616,-4.8851,-4.7605,-4.6317,-4.6017,-4.6017,-4.6888,-4.8189,-4.9323,-5.0397,-5.087,-5.1229,-5.1229,-5.1229,-5.1229,-5.1182,-5.1182,-5.087,-5.0287,-4.9147,-4.8763,-5.0037,-4.9938,-4.9775,-5.0353,-5.0887,-5.1229,-5.1229,-5.1229,-5.1229,-5.1229,-5.1229,-5.1229,-5.1229,-5.1229,-5.1229,-5.1229,-5.1229,-5.1229,-5.1229,-5.1229,-5.6492,-5.6586,-5.7517,-5.7881,-5.7881,-5.7881,-5.7881,-5.7881,-5.7845,-5.7881,-5.7845,-5.7881,-5.7881,-5.7881,-5.7881,-5.6641,-5.4489,-5.244,-5.188,-5.3033,-5.2595,-5.229,-5.1783,-5.157,-5.0581,-4.9252,-4.8476,-4.8207,-4.7923,-4.7608,-4.7399,-4.7339,-4.7309,-4.7309,-4.7309,-4.7309,-4.7309,-4.7309,-4.7309,-4.7309,-4.7309,-4.7309,-4.7309,-4.7309,-4.7309,-4.7309,-4.7444,-4.7848,-4.8416,-4.912,-4.9718,-5.0361,-5.084,-5.1139,-5.1214,-5.1229,-5.1229,-5.1229,-5.1229,-5.1229,-5.1229,-5.1229,-5.1229,-5.1229,-5.1229,-5.1229,-5.1229,-5.1229,-5.1229,-5.1229,-5.1229,-5.1229,-5.1167,-5.0855,-5.0636,-5.0224,-4.9161,-4.8539,-4.8289,-4.8225,-4.8738,-4.9161,-5.0143,-5.0807,-5.1026,-5.1229,-5.1229,-5.1229,-5.1229,-5.1167,-5.112,-5.0665,-5.008,-4.8802,-4.7628,-4.9558,-5.0481,-4.9863,-5.0176,-5.0949,-5.1229,-5.1229,-5.1229,-5.1229,-5.1229,-5.1229,-5.1229,-5.1229,-5.1229,-5.1229,-5.1229,-5.1229,-5.1229,-5.1229,-5.1229,-5.6204,-5.6321,-5.7426,-5.7881,-5.7881,-5.7881,-5.7537,-5.7168,-5.7645,-5.7537,-5.7335,-5.7591,-5.7881,-5.7881,-5.7881,-5.6679,-5.4489,-5.2275,-5.1588,-5.1987,-5.1987,-5.1896,-5.1561,-5.1561,-5.1077,-5.0289,-4.9628,-4.888,-4.8327,-4.7997,-4.7623,-4.7354,-4.7309,-4.7309,-4.7309,-4.7309,-4.7309,-4.7309,-4.7309,-4.7309,-4.7309,-4.7309,-4.7309,-4.7309,-4.7309,-4.7309,-4.7429,-4.7938,-4.8581,-4.9269,-4.9883,-5.0541,-5.1005,-5.1229,-5.1229,-5.1229,-5.1229,-5.1229,-5.1229,-5.1229,-5.1229,-5.1229,-5.1229,-5.1229,-5.1229,-5.1229,-5.1229,-5.1229,-5.1229,-5.1229,-5.1229,-5.1229,-5.1229,-5.1229,-5.1229,-5.087,-5.0445,-5.0224,-5.0128,-4.9969,-4.9567,-4.9776,-5.0713,-5.112,-5.1182,-5.1229,-5.1229,-5.1229,-5.1229,-5.0964,-5.0807,-4.9776,-4.9063,-4.8339,-4.7517,-4.9098,-5.0383,-4.9936,-5.0143,-5.0917,-5.1229,-5.1229,-5.1229,-5.1229,-5.1229,-5.1229,-5.1229,-5.1229,-5.1229,-5.1229,-5.1229,-5.1229,-5.1229,-5.1229,-5.1229,-5.5538,-5.5618,-5.6773,-5.7222,-5.7222,-5.7222,-5.6718,-5.6204,-5.7039,-5.7039,-5.6454,-5.7335,-5.7881,-5.7828,-5.7426,-5.6432,-5.4489,-5.2604,-5.2063,-5.1727,-5.1773,-5.1619,-5.1542,-5.1261,-5.1109,-5.0961,-5.0616,-4.9823,-4.894,-4.8371,-4.7952,-4.7653,-4.7459,-4.7309,-4.7309,-4.7309,-4.7309,-4.7309,-4.7309,-4.7309,-4.7309,-4.7309,-4.7309,-4.7309,-4.7309,-4.7369,-4.7623,-4.8222,-4.8865,-4.9508,-5.0122,-5.0644,-5.1124,-5.1229,-5.1229,-5.1229,-5.1229,-5.1229,-5.1229,-5.1229,-5.1229,-5.1229,-5.1229,-5.1229,-5.1229,-5.1229,-5.1229,-5.1229,-5.1229,-5.1229,-5.1229,-5.1229,-5.1229,-5.1229,-5.1229,-5.1182,-5.1073,-5.0964,-5.0917,-5.0603,-5.0017,-5.0239,-5.1026,-5.1229,-5.1229,-5.1229,-5.1229,-5.1229,-5.112,-5.0555,-5.0032,-4.8702,-4.7873,-4.7517,-4.7619,-4.8837,-4.9664,-4.9567,-5.0191,-5.112,-5.1229,-5.1229,-5.1229,-5.1229,-5.1229,-5.1229,-5.1229,-5.1229,-5.1229,-5.1229,-5.1229,-5.1229,-5.1229,-5.1229,-5.1229,-5.3265,-5.3396,-5.4531,-5.4986,-5.5068,-5.5125,-5.5002,-5.4961,-5.5929,-5.6337,-5.6126,-5.7297,-5.7792,-5.7718,-5.6832,-5.577,-5.478,-5.4153,-5.3396,-5.2767,-5.2694,-5.2664,-5.2501,-5.1588,-5.1479,-5.1464,-5.1219,-5.0659,-5.0035,-4.9117,-4.8297,-4.8057,-4.7549,-4.7339,-4.7444,-4.7354,-4.7309,-4.7324,-4.7339,-4.7354,-4.7384,-4.7399,-4.7444,-4.7369,-4.7459,-4.7683,-4.8192,-4.879,-4.9419,-5.0032,-5.0705,-5.1094,-5.1229,-5.1229,-5.1229,-5.1229,-5.1229,-5.1229,-5.1229,-5.1229,-5.1229,-5.1229,-5.1229,-5.1229,-5.1229,-5.1229,-5.1229,-5.1229,-5.1229,-5.1229,-5.1229,-5.1229,-5.1229,-5.1229,-5.1229,-5.1229,-5.1229,-5.1229,-5.1229,-5.1167,-5.0603,-5.0698,-5.1229,-5.1229,-5.1229,-5.1229,-5.1182,-5.112,-5.0603,-4.9727,-4.9161,-4.7873,-4.7591,-4.7337,-4.7968,-4.9104,-4.9664,-4.9567,-5.0239,-5.1229,-5.1229,-5.1229,-5.1229,-5.1229,-5.1229,-5.1229,-5.1229,-5.1229,-5.1229,-5.1229,-5.1229,-5.1229,-5.1229,-5.1229,-5.1229,-5.232,-5.2989,-5.4126,-5.4589,-5.4589,-5.4589,-5.4211,-5.3956,-5.4822,-5.5312,-5.553,-5.6454,-5.726,-5.7554,-5.6701,-5.5952,-5.5434,-5.4945,-5.4405,-5.3956,-5.3785,-5.3498,-5.29,-5.244,-5.22,-5.2109,-5.226,-5.2615,-5.1728,-5.0166,-4.876,-4.8296,-4.7713,-4.7549,-4.7758,-4.7489,-4.7593,-4.7758,-4.7878,-4.7863,-4.7952,-4.8177,-4.8237,-4.7908,-4.8192,-4.8506,-4.888,-4.9464,-4.9898,-5.03,-5.087,-5.1214,-5.1229,-5.1229,-5.1229,-5.1229,-5.1229,-5.1229,-5.1229,-5.1229,-5.1229,-5.1229,-5.1229,-5.1229,-5.1229,-5.1229,-5.1229,-5.1229,-5.1229,-5.1229,-5.1229,-5.1229,-5.1229,-5.1229,-5.1229,-5.1229,-5.1229,-5.1229,-5.1229,-5.1229,-5.1229,-5.1229,-5.1229,-5.1229,-5.1167,-5.1167,-5.0855,-5.0508,-4.9323,-4.7721,-4.7364,-4.7005,-4.7169,-4.7549,-4.8489,-4.9533,-5.0368,-5.0508,-5.0508,-5.1229,-5.1229,-5.1229,-5.1229,-5.1229,-5.1229,-5.1229,-5.1229,-5.1229,-5.1229,-5.1229,-5.1229,-5.1229,-5.1229,-5.1229,-5.1167,-5.1727,-5.2575,-5.3412,-5.3742,-5.3742,-5.3742,-5.3253,-5.2694,-5.3715,-5.4337,-5.4961,-5.6047,-5.7206,-5.7591,-5.7076,-5.6492,-5.6142,-5.5651,-5.5272,-5.5084,-5.463,-5.4084,-5.3368,-5.2989,-5.247,-5.2885,-5.2723,-5.3278,-5.3134,-5.1769,-4.9834,-4.9143,-4.8473,-4.8206,-4.8267,-4.8207,-4.8177,-4.8535,-4.8536,-4.8536,-4.864,-4.9,-4.888,-4.8865,-4.903,-4.9389,-4.9553,-4.9898,-5.0151,-5.0569,-5.0883,-5.1214,-5.1229,-5.1229,-5.1229,-5.1229,-5.1229,-5.1229,-5.1229,-5.1229,-5.1229,-5.1229,-5.1229,-5.1229,-5.1229,-5.1229,-5.1229,-5.1229,-5.1229,-5.1229,-5.1229,-5.1229,-5.1229,-5.1229,-5.1229,-5.1229,-5.1229,-5.1229,-5.1229,-5.1229,-5.1229,-5.1229,-5.1229,-5.1229,-5.1167,-5.1105,-5.0698,-4.9887,-4.8239,-4.6226,-4.5767,-4.5714,-4.6837,-4.7235,-4.778,-4.8958,-5.0132,-5.1229,-5.1229,-5.1229,-5.1229,-5.1229,-5.1229,-5.1229,-5.1229,-5.1229,-5.1229,-5.1229,-5.1229,-5.1229,-5.1229,-5.1229,-5.1229,-5.1229,-5.1182,-5.1261,-5.1293,-5.1479,-5.1542,-5.1557,-5.1433,-5.1433,-5.1557,-5.256,-5.3613,-5.4838,-5.6679,-5.7701,-5.7808,-5.7645,-5.7076,-5.6243,-5.7222,-5.6718,-5.5889,-5.515,-5.4672,-5.3828,-5.2856,-5.2094,-5.29,-5.3193,-5.3785,-5.4026,-5.2995,-5.1875,-5.1428,-4.9669,-4.9284,-4.9149,-4.906,-4.9,-4.9194,-4.9254,-4.9209,-4.9224,-4.9404,-4.9389,-4.9314,-4.9344,-4.9538,-5.0061,-5.0255,-5.0495,-5.099,-5.1139,-5.1214,-5.1229,-5.1229,-5.1229,-5.1229,-5.1229,-5.1229,-5.1229,-5.1229,-5.1229,-5.1229,-5.1229,-5.1229,-5.1229,-5.1229,-5.1229,-5.1229,-5.1229,-5.1229,-5.1229,-5.1229,-5.1229,-5.1229,-5.1229,-5.1229,-5.1229,-5.1229,-5.1229,-5.1229,-5.1229,-5.1229,-5.0917,-5.0855,-5.0603,-5.054,-4.8936,-4.8074,-4.685,-4.5155,-4.4535,-4.4684,-4.6226,-4.6739,-4.6514,-4.7944,-5.0443,-5.1229,-5.1229,-5.1229,-5.1229,-5.1229,-5.1229,-5.1229,-5.1229,-5.1229,-5.1229,-5.1229,-5.1229,-5.1229,-5.1229,-5.1229,-5.1229,-5.1229,-5.1229,-5.1229,-5.1229,-5.1229,-5.1229,-5.1229,-5.1229,-5.1229,-5.1261,-5.1681,-5.2945,-5.4713,-5.6811,-5.7881,-5.7881,-5.7845,-5.7297,-5.6492,-5.7389,-5.7001,-5.6454,-5.577,-5.5191,-5.4279,-5.3324,-5.2856,-5.3613,-5.394,-5.497,-5.6327,-5.4205,-5.3719,-5.2809,-5.0706,-4.9885,-4.9688,-4.9853,-4.9868,-4.9868,-4.9868,-4.9868,-4.9942,-5.0272,-5.0272,-4.9868,-5.0361,-5.0541,-5.0764,-5.0779,-5.0958,-5.1139,-5.1214,-5.1229,-5.1229,-5.1229,-5.1229,-5.1229,-5.1229,-5.1229,-5.1229,-5.1229,-5.1229,-5.1229,-5.1229,-5.1229,-5.1229,-5.1229,-5.1229,-5.1229,-5.1229,-5.1229,-5.1229,-5.1229,-5.1229,-5.1229,-5.1229,-5.1229,-5.1229,-5.1229,-5.1229,-5.1229,-5.1229,-5.1229,-5.0807,-5.0383,-5.0128,-4.9727,-4.7923,-4.6265,-4.5195,-4.4427,-4.392,-4.4331,-4.5872,-4.6804,-4.6706,-4.8716,-5.1105,-5.1229,-5.1229,-5.1229,-5.1229,-5.1229,-5.1229,-5.1229,-5.1167,-5.112,-5.112,-5.1182,-5.1229,-5.1229,-5.1229,-5.1229,-5.1229,-5.1229,-5.1229,-5.1229,-5.1229,-5.1229,-5.1229,-5.1229,-5.1229,-5.1229,-5.1229,-5.1214,-5.223,-5.4253,-5.6337,-5.7372,-5.7372,-5.7335,-5.7039,-5.6376,-5.6509,-5.626,-5.5714,-5.5134,-5.4806,-5.394,-5.3149,-5.2649,-5.3828,-5.4237,-5.497,-5.626,-5.4904,-5.402,-5.2965,-5.1478,-5.0531,-5.0391,-5.048,-5.048,-5.048,-5.048,-5.048,-5.0554,-5.087,-5.1035,-5.0539,-5.093,-5.1079,-5.1124,-5.1124,-5.1154,-5.1199,-5.1229,-5.1229,-5.1229,-5.1229,-5.1229,-5.1229,-5.1229,-5.1229,-5.1229,-5.1229,-5.1229,-5.1229,-5.1229,-5.1229,-5.1229,-5.1229,-5.1229,-5.1229,-5.1229,-5.1229,-5.1229,-5.1229,-5.1229,-5.1229,-5.1229,-5.1229,-5.1229,-5.1229,-5.1229,-5.1229,-5.1229,-5.112,-5.0397,-4.9727,-4.8339,-4.7923,-4.6837,-4.5342,-4.4318,-4.3755,-4.3602,-4.4385,-4.5767,-4.6517,-4.7172,-4.9286,-5.1058,-5.1229,-5.1229,-5.1229,-5.1229,-5.1229,-5.1229,-5.1229,-5.112,-5.1011,-5.087,-5.076,-5.0964,-5.1229,-5.1229,-5.1229,-5.1229,-5.1229,-5.1229,-5.1167,-5.1229,-5.1229,-5.1229,-5.1229,-5.1229,-5.1229,-5.1214,-5.1354,-5.2033,-5.3324,-5.5337,-5.6243,-5.6243,-5.626,-5.6008,-5.5674,-5.5191,-5.4822,-5.4531,-5.3924,-5.3237,-5.2723,-5.2275,-5.2184,-5.2723,-5.3221,-5.3897,-5.4945,-5.3871,-5.3253,-5.2827,-5.1729,-5.0945,-5.1122,-5.1184,-5.1184,-5.1184,-5.1124,-5.1094,-5.1094,-5.1154,-5.1078,-5.1124,-5.1139,-5.1229,-5.1229,-5.1229,-5.1229,-5.1229,-5.1229,-5.1229,-5.1229,-5.1229,-5.1229,-5.1229,-5.1229,-5.1229,-5.1229,-5.1229,-5.1229,-5.1229,-5.1229,-5.1229,-5.1229,-5.1229,-5.1229,-5.1229,-5.1229,-5.1229,-5.1229,-5.1229,-5.1229,-5.1229,-5.1229,-5.1229,-5.1229,-5.1229,-5.1229,-5.1229,-5.1182,-5.1026,-5.0095,-4.895,-4.6902,-4.5872,-4.5289,-4.4468,-4.3534,-4.3338,-4.3338,-4.4277,-4.5674,-4.7108,-4.807,-4.9683,-5.0949,-5.112,-5.1229,-5.1229,-5.1229,-5.1229,-5.1229,-5.1182,-5.0807,-5.0397,-5.0302,-5.0239,-5.0603,-5.0964,-5.1167,-5.1229,-5.1229,-5.1229,-5.1229,-5.0383,-5.1214,-5.1229,-5.1229,-5.1229,-5.1229,-5.1229,-5.1354,-5.1972,-5.253,-5.3105,-5.4573,-5.515,-5.515,-5.5068,-5.4822,-5.4137,-5.478,-5.4421,-5.3412,-5.2945,-5.2973,-5.2515,-5.1926,-5.1804,-5.2604,-5.2989,-5.3368,-5.4672,-5.334,-5.2945,-5.2604,-5.1773,-5.1261,-5.1214,-5.1229,-5.1214,-5.1214,-5.1214,-5.1214,-5.1229,-5.1229,-5.1229,-5.1229,-5.1229,-5.1229,-5.1229,-5.1229,-5.1229,-5.1229,-5.1229,-5.1229,-5.1229,-5.1229,-5.1229,-5.1229,-5.1229,-5.1229,-5.1229,-5.1229,-5.1229,-5.1229,-5.1229,-5.1229,-5.1229,-5.1229,-5.1229,-5.1229,-5.1229,-5.1229,-5.1229,-5.1229,-5.1229,-5.1229,-5.1229,-5.1229,-5.1229,-5.1229,-5.1229,-5.1229,-5.1182,-4.9984,-4.895,-4.8702,-4.7005,-4.5102,-4.4535,-4.4004,-4.324,-4.3283,-4.3338,-4.4277,-4.5555,-4.7381,-4.8938,-4.9703,-5.0698,-5.112,-5.1229,-5.1229,-5.1229,-5.1229,-5.1058,-5.0964,-5.035,-4.9776,-4.9727,-4.9776,-5.035,-5.0713,-5.1026,-5.1229,-5.1229,-5.1229,-5.1229,-4.9984,-5.1167,-5.1229,-5.1229,-5.1229,-5.1229,-5.1229,-5.1354,-5.1987,-5.232,-5.253,-5.3498,-5.3999,-5.3999,-5.3913,-5.3785,-5.2945,-5.3121,-5.3237,-5.232,-5.232,-5.223,-5.1926,-5.1681,-5.1588,-5.223,-5.2395,-5.2738,-5.3149,-5.2649,-5.2275,-5.2018,-5.1603,-5.1308,-5.1229,-5.1229,-5.1229,-5.1229,-5.1229,-5.1229,-5.1229,-5.1229,-5.1229,-5.1229,-5.1229,-5.1229,-5.1229,-5.1229,-5.1229,-5.1229,-5.1229,-5.1229,-5.1229,-5.1229,-5.1229,-5.1229,-5.1229,-5.1229,-5.1229,-5.1229,-5.1229,-5.1229,-5.1229,-5.1229,-5.1229,-5.1229,-5.1229,-5.1229,-5.1229,-5.1229,-5.1229,-5.1229,-5.1229,-5.1229,-5.1229,-5.1229,-5.1229,-5.1229,-5.1229,-5.1229,-5.1026,-4.9567,-4.8339,-4.7873,-4.7262,-4.5462,-4.381,-4.3449,-4.3141,-4.3129,-4.3227,-4.3949,-4.4821,-4.6331,-4.7791,-4.8944,-4.9921,-5.1011,-5.1229,-5.1229,-5.1229,-5.1182,-5.0964,-5.0588,-4.9873,-4.9357,-4.9147,-4.9308,-4.9727,-5.0397,-5.112,-5.1229,-5.1229,-5.1229,-5.1229,-4.9936,-5.1073,-5.1167,-5.1229,-5.1229,-5.1229,-5.1229,-5.1229,-5.1214,-5.1261,-5.1354,-5.244,-5.2856,-5.2856,-5.2856,-5.2767,-5.256,-5.185,-5.1603,-5.1433,-5.1526,-5.1433,-5.1386,-5.1308,-5.1386,-5.1308,-5.1386,-5.1635,-5.1386,-5.1557,-5.1479,-5.1354,-5.1308,-5.1229,-5.1229,-5.1229,-5.1229,-5.1229,-5.1229,-5.1229,-5.1229,-5.1229,-5.1229,-5.1229,-5.1229,-5.1229,-5.1229,-5.1229,-5.1229,-5.1229,-5.1229,-5.1229,-5.1229,-5.1229,-5.1229,-5.1229,-5.1229,-5.1229,-5.1229,-5.1229,-5.1229,-5.1229,-5.1229,-5.1229,-5.1229,-5.1229,-5.1229,-5.1229,-5.1229,-5.1229,-5.1229,-5.1229,-5.1229,-5.1229,-5.1229,-5.1229,-5.1229,-5.1229,-5.1229,-5.1229,-5.1229,-5.0302,-4.921,-4.8489,-4.7822,-4.6174,-4.4738,-4.4113,-4.37,-4.3085,-4.3172,-4.3202,-4.416,-4.509,-4.6463,-4.824,-4.9684,-5.0934,-5.1167,-5.1229,-5.1229,-5.1073,-5.065,-5.0176,-4.9406,-4.8886,-4.8489,-4.8539,-4.8901,-4.9727,-5.1011,-5.1229,-5.1229,-5.1229,-5.1229,-4.8539,-4.9839,-5.0807,-5.1229,-5.1229,-5.1229,-5.1229,-5.1229,-5.1229,-5.1229,-5.1214,-5.1557,-5.1804,-5.1681,-5.1681,-5.1727,-5.1588,-5.1371,-5.1308,-5.1229,-5.1229,-5.1229,-5.1229,-5.1229,-5.1229,-5.1229,-5.1229,-5.1229,-5.1261,-5.1229,-5.1229,-5.1229,-5.1229,-5.1229,-5.1229,-5.1229,-5.1229,-5.1229,-5.1229,-5.1229,-5.1229,-5.1229,-5.1229,-5.1229,-5.1229,-5.1229,-5.1229,-5.1229,-5.1229,-5.1229,-5.1229,-5.1229,-5.1229,-5.1229,-5.1229,-5.1229,-5.1229,-5.1229,-5.1229,-5.1182,-5.1182,-5.112,-5.112,-5.1229,-5.1229,-5.1167,-5.1167,-5.1229,-5.1229,-5.1229,-5.1229,-5.1229,-5.1011,-5.0855,-5.0855,-5.0855,-5.0855,-5.0807,-5.087,-5.1229,-5.1229,-5.0807,-4.9727,-4.9357,-4.8589,-4.6954,-4.5767,-4.5035,-4.4155,-4.3504,-4.3085,-4.3103,-4.3807,-4.4838,-4.6384,-4.8098,-4.948,-5.0701,-5.0996,-5.1229,-5.1229,-5.0964,-5.0397,-4.9679,-4.8787,-4.8175,-4.7619,-4.8024,-4.8901,-5.0032,-5.1167,-5.1167,-5.1182,-5.0964,-5.0917,-4.7923,-4.9308,-5.065,-5.1229,-5.1229,-5.1229,-5.1229,-5.1229,-5.1229,-5.1229,-5.1229,-5.1229,-5.1229,-5.1261,-5.1261,-5.1261,-5.1261,-5.1261,-5.1229,-5.1229,-5.1229,-5.1229,-5.1229,-5.1229,-5.1229,-5.1229,-5.1229,-5.1229,-5.1229,-5.1229,-5.1229,-5.1229,-5.1229,-5.1229,-5.1229,-5.1229,-5.1229,-5.1229,-5.1229,-5.1229,-5.1229,-5.1229,-5.1229,-5.1229,-5.1229,-5.1229,-5.1229,-5.1229,-5.1229,-5.1229,-5.1229,-5.1229,-5.1229,-5.1229,-5.1229,-5.112,-5.054,-5.0745,-5.0902,-5.054,-5.076,-5.0917,-5.0745,-5.0397,-5.065,-5.0745,-5.1011,-5.1229,-5.1229,-5.1229,-5.1229,-5.1167,-5.076,-5.043,-5.0383,-5.0335,-5.0335,-5.035,-5.0665,-5.1073,-5.1073,-5.0807,-5.0397,-5.008,-4.9245,-4.7503,-4.6331,-4.57,-4.4671,-4.3657,-4.3184,-4.3017,-4.3849,-4.4825,-4.6449,-4.8198,-4.9543,-5.0668,-5.1058,-5.1229,-5.1229,-5.0964,-5.0445,-4.9357,-4.8125,-4.7822,-4.7873,-4.8539,-4.9406,-5.043,-5.0793,-5.0383,-5.0224,-5.0128,-5.0128,-4.7822,-4.9112,-5.0588,-5.1229,-5.1229,-5.1229,-5.1229,-5.1229,-5.1229,-5.1229,-5.1229,-5.1229,-5.1229,-5.1229,-5.1229,-5.1229,-5.1229,-5.1229,-5.1229,-5.1229,-5.1229,-5.1229,-5.1229,-5.1229,-5.1229,-5.1229,-5.1229,-5.1229,-5.1229,-5.1229,-5.1229,-5.1229,-5.1229,-5.1229,-5.1229,-5.1229,-5.1229,-5.1229,-5.1229,-5.1229,-5.1229,-5.1229,-5.1229,-5.1229,-5.1229,-5.1229,-5.1229,-5.1229,-5.1229,-5.1229,-5.1229,-5.1229,-5.1229,-5.1229,-5.1229,-5.0807,-5.0128,-5.0335,-5.054,-5.0191,-5.0335,-5.0383,-5.0143,-5.0032,-5.0397,-4.9873,-4.9873,-5.0493,-5.0508,-5.0917,-5.1026,-5.1073,-5.0807,-5.0128,-4.9776,-4.9406,-4.9049,-4.9421,-5.0239,-5.0713,-5.1167,-5.0917,-5.0917,-5.0603,-5.0335,-4.8325,-4.7248,-4.6733,-4.5912,-4.463,-4.4167,-4.3826,-4.4307,-4.5475,-4.7276,-4.8808,-4.9858,-5.0713,-5.1073,-5.1229,-5.1229,-5.0917,-5.0555,-4.947,-4.8425,-4.8489,-4.8702,-4.9357,-4.9921,-5.043,-5.0478,-4.9538,-4.9182,-4.9049,-4.8901,-4.7313,-4.7873,-5.0191,-5.1229,-5.1229,-5.1229,-5.1229,-5.1229,-5.1229,-5.1229,-5.1229,-5.1229,-5.1229,-5.1229,-5.1229,-5.1229,-5.1229,-5.1229,-5.1229,-5.1229,-5.1229,-5.1229,-5.1229,-5.1229,-5.1229,-5.1229,-5.1229,-5.1229,-5.1229,-5.1229,-5.1229,-5.1229,-5.1229,-5.1229,-5.1229,-5.1229,-5.1229,-5.1229,-5.1229,-5.1229,-5.1229,-5.1229,-5.1229,-5.1229,-5.1229,-5.1229,-5.1229,-5.1229,-5.1229,-5.1229,-5.1229,-5.1229,-5.1229,-5.1229,-5.1229,-5.0964,-4.9984,-5.0143,-5.0397,-5.0143,-5.0032,-5.0698,-5.0807,-5.076,-5.0287,-4.895,-4.8539,-4.9259,-4.9936,-5.0445,-5.076,-5.0807,-5.0603,-4.9776,-4.895,-4.8325,-4.7707,-4.8738,-4.9727,-5.0508,-5.1073,-5.1229,-5.1229,-5.1073,-5.087,-5.0095,-4.9161,-4.8439,-4.7923,-4.7005,-4.6539,-4.6102,-4.5377,-4.6395,-4.8077,-4.9372,-5.0397,-5.0807,-5.112,-5.1229,-5.1229,-5.0807,-5.0335,-4.9679,-4.9063,-4.921,-4.9567,-5.0191,-5.0698,-5.0683,-4.9965,-4.8908,-4.7887,-4.7453,-4.7364,-4.6526,-4.7402,-5.0017,-5.1229,-5.1229,-5.1229,-5.1229,-5.1229,-5.1229,-5.1229,-5.1229,-5.1229,-5.1229,-5.1229,-5.1229,-5.1229,-5.1229,-5.1229,-5.1229,-5.1229,-5.1229,-5.1229,-5.1229,-5.1229,-5.1229,-5.1229,-5.1229,-5.1229,-5.1229,-5.1229,-5.1229,-5.1229,-5.1229,-5.1229,-5.1229,-5.1229,-5.1229,-5.1229,-5.1229,-5.1229,-5.1229,-5.1229,-5.1229,-5.1229,-5.1229,-5.1229,-5.1229,-5.1229,-5.1229,-5.1229,-5.1229,-5.1229,-5.1229,-5.1229,-5.1229,-5.0855,-5.0239,-4.9776,-5.0302,-5.0191,-4.9824,-5.065,-5.0493,-5.008,-4.8653,-4.7453,-4.7721,-4.8439,-4.9308,-4.9839,-4.9936,-4.9984,-4.9259,-4.8489,-4.7517,-4.6695,-4.735,-4.8525,-4.9727,-5.087,-5.1229,-5.1229,-5.1229,-5.1229,-5.0807,-4.9873,-4.9259,-4.9323,-4.895,-4.8901,-4.8589,-4.8247,-4.7447,-4.7348,-4.8579,-4.9824,-5.0917,-5.1167,-5.1229,-5.1229,-5.1167,-5.065,-5.0128,-4.9984,-4.9984,-5.0176,-5.0588,-5.087,-5.0397,-5.0017,-4.9184,-4.8243,-4.7191,-4.6083,-4.5568,-4.5978,-4.7656,-5.0128,-5.1229,-5.1229,-5.1229,-5.1229,-5.1229,-5.1229,-5.1229,-5.1229,-5.1229,-5.1229,-5.1229,-5.1229,-5.1229,-5.1229,-5.1229,-5.1229,-5.1229,-5.1229,-5.1229,-5.1229,-5.1229,-5.1229,-5.1229,-5.1229,-5.1229,-5.1229,-5.1229,-5.1229,-5.1229,-5.1229,-5.1229,-5.1229,-5.1229,-5.1229,-5.1229,-5.1229,-5.1229,-5.1229,-5.1229,-5.1229,-5.1229,-5.1229,-5.1229,-5.1229,-5.1229,-5.1229,-5.1229,-5.1229,-5.1229,-5.0964,-5.0855,-5.0713,-5.0302,-4.8901,-4.921,-4.9984,-4.9455,-4.9969,-5.043,-4.9713,-4.8837,-4.7568,-4.7057,-4.7313,-4.767,-4.8539,-4.9063,-4.9112,-4.9112,-4.8325,-4.7043,-4.6069,-4.5661,-4.694,-4.8125,-4.9406,-5.0807,-5.1182,-5.1182,-5.0917,-5.0964,-5.0603,-4.9616,-4.9357,-4.9421,-4.9518,-4.9776,-4.9776,-4.965,-4.9301,-4.9403,-4.9664,-5.0128,-5.1229,-5.1229,-5.1229,-5.1229,-5.112,-5.0807,-5.0745,-5.0917,-5.0964,-5.0855,-5.0902,-5.1073,-5.0445,-4.9761,-4.7389,-4.6301,-4.6608,-4.5462,-4.3962,-4.6487,-4.895,-5.0555,-5.1229,-5.1229,-5.1229,-5.1229,-5.1229,-5.1229,-5.1229,-5.1229,-5.1229,-5.1229,-5.1229,-5.1229,-5.1229,-5.1229,-5.1229,-5.1229,-5.1229,-5.1229,-5.1229,-5.1229,-5.1229,-5.1229,-5.1229,-5.1229,-5.1229,-5.1229,-5.1229,-5.1229,-5.1229,-5.1229,-5.1229,-5.1229,-5.1229,-5.1229,-5.1229,-5.1229,-5.1229,-5.1229,-5.1229,-5.1229,-5.1229,-5.1229,-5.1229,-5.1229,-5.1229,-5.1229,-5.1229,-5.1229,-5.1229,-5.0902,-5.0383,-5.0032,-4.9776,-4.8289,-4.8489,-4.8999,-4.8936,-4.9616,-5.0855,-5.0287,-4.9679,-4.8389,-4.7094,-4.7146,-4.694,-4.7656,-4.8339,-4.8589,-4.8901,-4.8339,-4.6069,-4.4535,-4.5356,-4.6487,-4.7453,-4.8475,-4.9936,-5.112,-5.0603,-4.9839,-5.0143,-5.0603,-5.0032,-5.0239,-5.0302,-5.0445,-5.0665,-5.0807,-5.073,-5.0639,-5.0872,-5.0855,-5.0603,-5.1229,-5.1229,-5.1229,-5.1229,-5.1229,-5.1229,-5.1229,-5.1229,-5.1229,-5.112,-5.1182,-5.1229,-5.0855,-4.976,-4.5829,-4.4115,-4.4903,-4.4941,-4.3547]},{"header":{"parameterUnit":"m.s-1","parameterCategory":1,"la1":31.0,"la2":29.5877,"lo1":-88.7671,"lo2":-86.6584,"dy":0.0162,"dx":0.0185,"nx":115,"ny":88,"refTime":"2025-07-31T00:00:00:Z","depth":0,"parameterNumber":3,"parameterNumberName":"V-component_of_WINDS"},"data":[0.0,0.0,0.0,0.0,0.0,0.0,0.0,0.0,0.0,0.0,0.0,0.0,0.0,0.0,0.0,0.0,0.0,0.0,0.0,0.0,0.0,0.0,0.0,0.0,0.0,0.0,0.0,0.0,0.0,0.0,0.0,0.0,0.0,0.0,0.0,0.0,0.0,0.0,0.0,0.0,0.0,0.0,0.0,0.0,0.0,0.0,0.0,0.0,0.0,0.0,0.0,0.0,0.0,0.0,0.0,0.0,0.0,0.0,0.0,0.0,0.0,0.0,0.0,0.0,0.0,0.0,0.0,0.0,0.0,0.0,0.0,0.0,0.0,0.0,0.0,0.0,0.0,0.0,0.0,0.0,0.0,0.0,0.0,0.0,0.0,0.0,0.0,0.0,0.0,0.0,0.0,0.0,0.0,0.0,0.0,0.0,0.0,0.0,0.0,0.0,0.0,0.0,0.0,0.0,0.0,0.0,0.0,0.0,0.0,0.0,0.0,0.0,0.0,0.0,0.0,0.0,0.0,0.0,0.0,0.0,0.0,0.0,0.0,0.0,0.0,0.0,0.0,0.0,0.0,0.0,0.0,0.0,0.0,0.0,0.0,0.0,0.0,0.0,0.0,0.0,0.0,0.0,0.0,0.0,0.0,0.0,0.0,0.0,0.0,0.0,0.0,0.0,0.0,0.0,0.0,0.0,0.0,0.0,0.0,0.0,0.0,0.0,0.0,0.0,0.0,0.0,0.0,0.0,0.0,0.0,0.0,0.0,0.0,0.0,0.0,0.0,0.0,0.0,0.0,0.0,0.0,0.0,0.0,0.0,0.0,0.0,0.0,0.0,0.0,0.0,0.0,0.0,0.0,0.0,0.0,0.0,0.0,0.0,0.0,0.0,0.0,0.0,0.0,0.0,0.0,0.0,0.0,0.0,0.0,0.0,0.0,0.0,0.0,0.0,0.0,0.0,0.0,0.0,0.0,0.0,0.0,0.0,0.0,0.0,0.0,0.0,0.0,0.0,0.0,0.0,0.0,0.0,0.0,0.0,0.0,0.0,0.0,0.0,0.0,0.0,0.0,0.0,0.0,0.0,0.0,0.0,0.0,0.0,0.0,0.0,0.0,0.0,0.0,0.0,0.0,0.0,0.0,0.0,0.0,0.0,0.0,0.0,0.0,0.0,0.0,0.0,0.0,0.0,0.0,0.0,0.0,0.0,0.0,0.0,0.0,0.0,0.0,0.0,0.0,0.0,0.0,0.0,0.0,0.0,0.0,0.0,0.0,0.0,0.0,0.0,0.0,0.0,0.0,0.0,0.0,0.0,0.0,0.0,0.0,0.0,0.0,0.0,0.0,0.0,0.0,0.0,0.0,0.0,0.0,0.0,0.0,0.0,0.0,0.0,0.0,0.0,0.0,0.0,0.0,0.0,0.0,0.0,0.0,0.0,0.0,0.0,0.0,0.0,0.0,0.0,0.0,0.0,0.0,0.0,0.0,0.0,0.0,0.0,0.0,0.0,0.0,0.0,0.0,0.0,0.0,0.0,0.0,0.0,0.0,0.0,0.0,0.0,0.0,0.0,0.0,0.0,0.0,0.0,0.0,0.0,0.0,0.0,0.0,0.0,0.0,0.0,0.0,0.0,0.0,0.0,0.0,0.0,0.0,0.0,0.0,0.0,0.0,0.0,0.0,0.0,0.0,0.0,0.0,0.0,0.0,0.0,0.0,0.0,0.0,0.0,0.0,0.0,0.0,0.0,0.0,0.0,0.0,0.0,0.0,0.0,0.0,0.0,0.0,0.0,0.0,0.0,0.0,0.0,0.0,0.0,0.0,0.0,0.0,0.0,0.0,0.0,0.0,0.0,0.0,0.0,0.0,0.0,0.0,0.0,0.0,0.0,0.0,0.0,0.0,0.0,0.0,0.0,0.0,0.0,0.0,0.0,0.0,0.0,0.0,0.0,0.0,0.0,0.0,0.0,0.0,0.0,0.0,0.0,0.0,0.0,0.0,0.0,0.0,0.0,0.0,0.0,0.0,0.0,0.0,0.0,0.0,0.0,0.0,0.0,0.0,0.0,0.0,0.0,0.0,0.0,0.0,0.0,0.0,0.0,0.0,0.0,0.0,0.0,0.0,0.0,0.0,0.0,0.0,0.0,0.0,0.0,0.0,0.0,0.0,0.0,0.0,0.0,0.0,0.0,0.0,0.0,0.0,0.0,0.0,0.0,0.0,0.0,0.0,0.0,0.0,0.0,0.0,0.0,0.0,0.0,0.0,0.0,0.0,0.0,0.0,0.0,0.0,0.0,0.0,0.0,0.0,0.0,0.0,0.0,0.0,0.0,0.0,0.0,0.0,0.0,0.0,0.0,0.0,0.0,0.0,0.0,0.0,0.0,0.0,0.0,0.0,0.0,0.0,0.0,0.0,0.0,0.0,0.0,0.0,0.0,0.0,0.0,0.0,0.0,0.0,0.0,0.0,0.0,0.0,0.0,0.0,0.0,0.0,0.0,0.0,0.0,0.0,0.0,0.0,0.0,0.0,0.0,0.0,0.0,0.0,0.0,0.0,0.0,0.0,0.0,0.0,0.0,0.0,0.0,0.0,0.0,0.0,0.0,0.0,0.0,0.0,0.0,0.0,0.0,0.0,0.0,0.0,0.0,0.0,0.0,0.0,0.0,0.0,0.0,0.0,0.0,0.0,0.0,0.0,0.0,0.0,0.0,0.0,0.0,0.0,0.0,0.0,0.0,0.0,0.0,0.0,0.0,0.0,0.0,0.0,0.0,0.0,0.0,0.0,0.0,0.0,0.0,0.0,0.0,0.0,0.0,0.0,0.0,0.0,0.0,0.0,0.0,0.0,0.0,0.0,0.0,0.0,0.0,0.0,0.0,0.0,0.0,0.0,0.0,0.0,0.0,0.0,0.0,0.0,0.0,0.0,0.0,0.0,0.0,0.0,0.0,0.0,0.0,0.0,0.0,0.0,0.0,0.0,0.0,0.0,0.0,0.0,0.0,0.0,0.0,0.0,0.0,0.0,0.0,0.0,0.0,0.0,0.0,0.0,0.0,0.0,0.0,0.0,0.0,0.0,0.0,0.0,0.0,0.0,0.0,0.0,0.0,0.0,0.0,0.0,0.0,0.0,0.0,0.0,0.0,0.0,0.0,0.0,0.0,0.0,0.0,0.0,0.0,0.0,0.0,0.0,0.0,0.0,0.0,0.0,0.0,0.0,0.0,0.0,0.0,0.0,0.0,0.0,0.0,0.0,0.0,0.0,0.0,0.0,0.0,0.0,0.0,0.0,0.0,0.0,0.0,0.0,0.0,0.0,0.0,0.0,0.0,0.0,0.0,0.0,0.0,0.0,0.0,0.0,0.0,0.0,0.0,0.0,0.0,0.0,0.0,0.0,0.0,0.0,0.0,0.0,0.0,0.0,0.0,0.0,0.0,0.0,0.0,0.0,0.0,0.0,0.0,0.0,0.0,0.0,0.0,0.0,0.0,0.0,0.0,0.0,0.0,0.0,0.0,0.0,0.0,0.0,0.0,0.0,0.0,0.0,0.0,0.0,0.0,0.0,0.0,0.0,0.0,0.0,0.0,0.0,0.0,0.0,0.0,0.0,0.0,0.0,0.0,0.0,0.0,0.0,0.0,0.0,0.0,0.0,0.0,0.0,0.0,0.0,0.0,0.0,0.0,0.0,0.0,0.0,0.0,0.0,0.0,0.0,0.0,0.0,0.0,0.0,0.0,0.0,0.0,0.0,0.0,0.0,0.0,0.0,0.0,0.0,0.0,0.0,0.0,0.0,0.0,0.0,0.0,0.0,0.0,0.0,0.0,0.0,0.0,0.0,0.0,0.0,0.0,0.0,0.0,0.0,0.0,0.0,0.0,0.0,0.0,0.0,0.0,0.0,0.0,0.0,0.0,0.0,0.0,0.0,0.0,0.0,0.0,0.0,0.0,0.0,0.0,0.0,0.0,0.0,0.0,0.0,0.0,0.0,0.0,0.0,0.0,0.0,0.0,0.0,0.0,0.0,0.0,0.0,0.0,0.0,0.0,0.0,0.0,0.0,0.0,0.0,0.0,0.0,0.0,0.0,0.0,0.0,0.0,0.0,0.0,0.0,0.0,0.0,0.0,0.0,0.0,0.0,0.0,0.0,0.0,0.0,0.0,0.0,0.0,0.0,0.0,0.0,0.0,0.0,0.0,0.0,0.0,0.0,0.0,0.0,0.0,0.0,0.0,0.0,0.0,0.0,0.0,0.0,0.0,0.0,0.0,0.0,0.0,-0.6642,0.0,0.0,0.0,0.0,0.0,0.0,0.0,0.0,0.0,0.0,0.0,0.0,0.0,0.0,0.0,0.0,0.0,0.0,0.0,0.0,0.0,0.0,0.0,0.0,0.0,0.0,0.0,0.0,0.0,0.0,0.0,0.0,0.0,0.0,0.0,0.0,0.0,0.0,0.0,0.0,0.0,0.0,0.0,0.0,0.0,0.0,0.0,0.0,0.0,0.0,0.0,0.0,0.0,0.0,0.0,0.0,0.0,0.0,0.0,0.0,0.0,0.0,0.0,0.0,0.0,0.0,0.0,0.0,0.0,0.0,0.0,0.0,0.0,0.0,0.0,0.0,0.0,0.0,0.0,0.0,0.0,0.0,0.0,0.0,0.0,0.0,0.0,0.0,0.0,0.0,0.0,0.0,0.0,0.0,0.0,0.0,0.0,0.0,0.0,0.0,0.0,0.0,0.0,0.0,0.0,0.0,0.0,0.0,0.0,0.0,-1.0847,-0.984,-0.9105,-0.8072,-0.6669,0.0,0.0,0.0,0.0,0.0,0.0,0.0,0.0,0.0,0.0,0.0,0.0,0.0,0.0,0.0,0.0,0.0,0.0,0.0,0.0,0.0,0.0,0.0,0.0,0.0,0.0,0.0,0.0,0.0,0.0,0.0,0.0,0.0,0.0,0.0,0.0,0.0,0.0,0.0,0.0,0.0,0.0,0.0,0.0,0.0,0.0,0.0,0.0,0.0,0.0,0.0,0.0,0.0,0.0,0.0,0.0,0.0,0.0,0.0,0.0,0.0,0.0,0.0,0.0,0.0,0.0,0.0,0.0,0.0,0.0,0.0,0.0,0.0,0.0,0.0,0.0,0.0,0.0,0.0,0.0,0.0,0.0,0.0,0.0,0.0,0.0,0.0,0.0,0.0,0.0,0.0,0.0,0.0,0.0,0.0,0.0,0.0,0.0,0.0,0.0,0.0,0.0,0.0,0.0,0.0,0.0,0.0,0.0,0.0,0.0,0.0,0.0,-0.9457,-0.8425,-0.72,0.0,0.0,0.0,0.0,0.0,0.0,0.0,0.0,0.0,0.0,0.0,0.0,0.0,0.0,0.0,0.0,0.0,0.0,0.0,0.0,0.0,0.0,0.0,0.0,0.0,0.0,0.0,0.0,0.0,0.0,0.0,0.0,0.0,0.0,0.0,0.0,0.0,0.0,0.0,0.0,0.0,0.0,0.0,0.0,0.0,0.0,0.0,0.0,0.0,0.0,0.0,0.0,0.0,0.0,0.0,0.0,0.0,0.0,0.0,0.0,0.0,0.0,0.0,0.0,0.0,0.0,0.0,0.0,0.0,0.0,0.0,0.0,0.0,0.0,0.0,0.0,0.0,0.0,0.0,0.0,0.0,0.0,0.0,0.0,0.0,0.0,0.0,0.0,0.0,0.0,0.0,0.0,0.0,0.0,0.0,0.0,0.0,0.0,0.0,0.0,0.0,0.0,0.0,0.0,0.0,0.0,0.0,0.0,0.0,0.0,-1.1072,-1.1499,-1.0495,0.0,-0.8829,0.0,0.0,0.0,0.0,0.0,0.0,0.0,0.0,0.0,0.0,0.0,0.0,0.0,0.0,0.0,0.0,0.0,0.0,0.0,0.0,0.0,0.0,0.0,0.0,0.0,0.0,0.0,0.0,0.0,0.0,0.0,0.0,0.0,0.0,0.0,0.0,0.0,0.0,0.0,0.0,0.0,0.0,0.0,0.0,0.0,0.0,0.0,0.0,0.0,0.0,0.0,0.0,0.0,0.0,0.0,0.0,0.0,0.0,0.0,0.0,0.0,0.0,0.0,0.0,0.0,0.0,0.0,0.0,0.0,0.0,0.0,0.0,0.0,0.0,0.0,0.0,0.0,0.0,0.0,0.0,0.0,0.0,0.0,0.0,0.0,0.0,0.0,0.0,0.0,0.0,0.0,0.0,0.0,0.0,0.0,0.0,0.0,0.0,0.0,0.0,0.0,0.0,0.0,0.0,0.0,0.0,0.0,0.0,0.0,0.0,-1.215,-1.1942,-1.0322,-0.9523,0.0,0.0,0.0,0.0,0.0,0.0,0.0,0.0,0.0,0.0,0.0,0.0,0.0,0.0,0.0,0.0,0.0,0.0,0.0,0.0,0.0,0.0,0.0,0.0,0.0,0.0,0.0,0.0,0.0,0.0,0.0,0.0,0.0,0.0,0.0,0.0,0.0,0.0,0.0,0.0,0.0,0.0,0.0,0.0,0.0,0.0,0.0,0.0,0.0,0.0,0.0,0.0,0.0,0.0,0.0,0.0,0.0,0.0,0.0,0.0,0.0,0.0,0.0,0.0,0.0,0.0,0.0,0.0,0.0,0.0,0.0,0.0,0.0,0.0,0.0,0.0,0.0,0.0,0.0,0.0,0.0,0.0,0.0,0.0,0.0,0.0,0.0,0.0,0.0,0.0,0.0,0.0,0.0,0.0,0.0,0.0,0.0,0.0,0.0,0.0,0.0,0.0,0.0,0.0,0.0,0.0,0.0,0.0,0.0,0.0,-1.3272,0.0,-1.1882,-1.0448,-0.9818,-1.0097,0.0,0.0,0.0,0.0,0.0,0.0,0.0,0.0,0.0,0.0,0.0,0.0,0.0,0.0,0.0,0.0,0.0,0.0,0.0,0.0,0.0,0.0,0.0,0.0,0.0,0.0,0.0,0.0,0.0,0.0,0.0,0.0,0.0,0.0,0.0,0.0,0.0,0.0,0.0,0.0,0.0,0.0,0.0,0.0,0.0,0.0,0.0,0.0,0.0,0.0,0.0,0.0,0.0,0.0,0.0,0.0,0.0,0.0,0.0,0.0,0.0,0.0,0.0,0.0,0.0,0.0,0.0,0.0,0.0,0.0,0.0,0.0,0.0,0.0,0.0,0.0,0.0,0.0,0.0,0.0,0.0,0.0,0.0,0.0,0.0,0.0,0.0,0.0,0.0,0.0,0.0,0.0,0.0,0.0,0.0,0.0,0.0,0.0,0.0,0.0,0.0,0.0,0.0,0.0,0.0,0.0,0.0,0.0,0.0,-1.3656,-1.1935,-1.1465,-1.1329,-1.0936,0.0,0.0,0.0,0.0,0.0,0.0,0.0,0.0,0.0,0.0,0.0,0.0,0.0,0.0,0.0,0.0,0.0,0.0,0.0,0.0,0.0,0.0,0.0,0.0,0.0,0.0,0.0,0.0,0.0,0.0,0.0,0.0,0.0,0.0,0.0,0.0,0.0,0.0,0.0,0.0,0.0,0.0,0.0,0.0,0.0,0.0,0.0,0.0,0.0,0.0,0.0,0.0,0.0,0.0,0.0,0.0,0.0,0.0,0.0,0.0,0.0,0.0,0.0,0.0,0.0,0.0,0.0,0.0,0.0,0.0,0.0,0.0,0.0,0.0,0.0,0.0,0.0,0.0,0.0,0.0,0.0,0.0,0.0,0.0,0.0,0.0,0.0,0.0,0.0,0.0,0.0,0.0,0.0,0.0,0.0,0.0,0.0,0.0,0.0,0.0,0.0,0.0,0.0,0.0,0.0,0.0,0.0,0.0,0.0,-1.4138,-1.2826,-1.2168,-1.2267,-1.1182,-1.0583,0.0,0.0,0.0,0.0,0.0,0.0,0.0,0.0,0.0,0.0,0.0,0.0,0.0,0.0,0.0,0.0,0.0,0.0,0.0,0.0,0.0,0.0,0.0,0.0,0.0,0.0,0.0,0.0,0.0,0.0,0.0,0.0,0.0,0.0,0.0,0.0,0.0,0.0,0.0,0.0,0.0,0.0,0.0,0.0,0.0,0.0,0.0,0.0,0.0,0.0,0.0,0.0,0.0,0.0,0.0,0.0,0.0,0.0,0.0,0.0,0.0,0.0,0.0,0.0,0.0,0.0,0.0,0.0,0.0,0.0,0.0,0.0,0.0,0.0,0.0,0.0,0.0,0.0,0.0,0.0,0.0,0.0,0.0,0.0,0.0,0.0,0.0,0.0,0.0,0.0,0.0,0.0,0.0,0.0,0.0,0.0,0.0,0.0,0.0,0.0,0.0,0.0,0.0,0.0,0.0,0.0,0.0,0.0,0.0,-1.3583,0.0,-1.3222,0.0,-1.1336,-1.0461,0.0,0.0,0.0,0.0,0.0,0.0,0.0,0.0,0.0,0.0,0.0,0.0,0.0,0.0,0.0,0.0,0.0,0.0,0.0,0.0,0.0,0.0,0.0,0.0,0.0,0.0,0.0,0.0,0.0,0.0,0.0,0.0,0.0,0.0,0.0,0.0,0.0,0.0,0.0,0.0,0.0,0.0,0.0,0.0,0.0,0.0,0.0,0.0,0.0,0.0,0.0,0.0,0.0,0.0,0.0,0.0,0.0,0.0,0.0,0.0,0.0,0.0,0.0,0.0,0.0,0.0,0.0,0.0,0.0,0.0,0.0,0.0,0.0,0.0,0.0,0.0,0.0,0.0,0.0,0.0,0.0,0.0,0.0,0.0,0.0,0.0,0.0,0.0,0.0,0.0,0.0,0.0,0.0,0.0,0.0,0.0,0.0,0.0,0.0,0.0,0.0,0.0,0.0,0.0,0.0,0.0,0.0,0.0,-1.3665,-1.5017,-1.5626,-1.5007,-1.3194,-1.2023,-1.0626,0.0,0.0,0.0,0.0,0.0,0.0,0.0,0.0,0.0,0.0,0.0,0.0,0.0,0.0,0.0,0.0,0.0,0.0,0.0,0.0,0.0,0.0,0.0,0.0,0.0,0.0,0.0,0.0,0.0,0.0,0.0,0.0,0.0,0.0,0.0,0.0,0.0,0.0,0.0,0.0,0.0,0.0,0.0,0.0,0.0,0.0,0.0,0.0,0.0,0.0,0.0,0.0,0.0,0.0,0.0,0.0,0.0,0.0,0.0,0.0,0.0,0.0,0.0,0.0,0.0,0.0,0.0,0.0,0.0,0.0,0.0,0.0,0.0,0.0,0.0,0.0,0.0,0.0,0.0,0.0,0.0,0.0,0.0,0.0,0.0,0.0,0.0,0.0,0.0,0.0,0.0,0.0,0.0,0.0,0.0,0.0,0.0,0.0,0.0,0.0,0.0,0.0,0.0,0.0,0.0,0.0,0.0,0.0,0.0,-1.4644,-1.5662,-1.576,-1.4751,-1.3018,-1.186,0.0,0.0,0.0,0.0,0.0,0.0,0.0,0.0,0.0,0.0,0.0,0.0,0.0,0.0,0.0,0.0,0.0,0.0,0.0,0.0,0.0,0.0,0.0,0.0,0.0,0.0,0.0,0.0,0.0,0.0,0.0,0.0,0.0,0.0,0.0,0.0,0.0,0.0,0.0,0.0,0.0,0.0,0.0,0.0,0.0,0.0,0.0,0.0,0.0,0.0,0.0,0.0,0.0,0.0,0.0,0.0,0.0,0.0,0.0,0.0,0.0,0.0,0.0,0.0,0.0,0.0,0.0,0.0,0.0,0.0,0.0,0.0,0.0,0.0,0.0,0.0,0.0,0.0,0.0,0.0,0.0,0.0,0.0,0.0,0.0,0.0,0.0,0.0,0.0,0.0,0.0,0.0,0.0,0.0,0.0,0.0,0.0,0.0,0.0,0.0,0.0,0.0,0.0,0.0,0.0,0.0,0.0,0.0,0.0,-1.696,-1.7465,-1.7431,-1.6773,-1.4806,-1.3379,-1.2631,0.0,0.0,0.0,0.0,0.0,0.0,0.0,0.0,0.0,0.0,0.0,0.0,0.0,0.0,0.0,0.0,0.0,0.0,0.0,0.0,0.0,0.0,0.0,0.0,0.0,0.0,0.0,0.0,0.0,0.0,0.0,0.0,0.0,0.0,0.0,0.0,0.0,0.0,0.0,0.0,0.0,0.0,0.0,0.0,0.0,0.0,0.0,0.0,0.0,0.0,0.0,0.0,0.0,0.0,0.0,0.0,0.0,0.0,0.0,0.0,0.0,0.0,0.0,0.0,0.0,0.0,0.0,0.0,0.0,0.0,0.0,0.0,0.0,0.0,0.0,0.0,0.0,0.0,0.0,0.0,0.0,0.0,0.0,0.0,0.0,0.0,0.0,0.0,0.0,0.0,0.0,0.0,0.0,0.0,0.0,0.0,0.0,0.0,0.0,0.0,0.0,0.0,0.0,0.0,0.0,0.0,0.0,0.0,-2.1219,-2.0728,-2.0021,-1.9097,-1.7182,-1.5189,0.0,0.0,0.0,0.0,0.0,0.0,0.0,0.0,0.0,0.0,0.0,0.0,0.0,0.0,0.0,0.0,0.0,0.0,0.0,0.0,0.0,0.0,0.0,0.0,0.0,0.0,0.0,0.0,0.0,0.0,0.0,0.0,0.0,0.0,0.0,0.0,0.0,0.0,0.0,0.0,0.0,0.0,0.0,0.0,0.0,0.0,0.0,0.0,0.0,0.0,0.0,0.0,0.0,0.0,0.0,0.0,0.0,0.0,0.0,0.0,0.0,0.0,0.0,0.0,0.0,0.0,0.0,0.0,0.0,0.0,0.0,0.0,0.0,0.0,0.0,0.0,0.0,0.0,0.0,0.0,0.0,0.0,0.0,0.0,0.0,0.0,0.0,0.0,0.0,0.0,0.0,0.0,0.0,0.0,0.0,0.0,0.0,0.0,0.0,0.0,0.0,0.0,0.0,0.0,0.0,0.0,0.0,0.0,0.0,-2.1504,-2.2686,-2.2749,-2.1607,-1.9357,-1.7405,0.0,0.0,0.0,0.0,0.0,0.0,0.0,0.0,0.0,0.0,0.0,0.0,0.0,0.0,0.0,0.0,0.0,0.0,0.0,0.0,0.0,0.0,0.0,0.0,0.0,0.0,0.0,0.0,0.0,0.0,0.0,0.0,0.0,0.0,0.0,0.0,0.0,0.0,0.0,0.0,0.0,0.0,0.0,0.0,0.0,0.0,0.0,0.0,0.0,0.0,0.0,0.0,0.0,0.0,0.0,0.0,0.0,0.0,0.0,0.0,0.0,0.0,0.0,0.0,0.0,0.0,0.0,0.0,0.0,0.0,0.0,0.0,0.0,0.0,0.0,0.0,0.0,0.0,0.0,0.0,0.0,0.0,0.0,0.0,0.0,0.0,0.0,0.0,0.0,0.0,0.0,0.0,0.0,0.0,0.0,0.0,0.0,0.0,0.0,0.0,0.0,0.0,0.0,0.0,0.0,0.0,0.0,0.0,-2.1206,-2.3154,-2.4526,-2.4813,-2.3955,-2.166,-1.9504,0.0,0.0,0.0,0.0,0.0,0.0,0.0,0.0,0.0,0.0,0.0,0.0,0.0,0.0,0.0,0.0,0.0,0.0,0.0,0.0,0.0,0.0,0.0,0.0,0.0,0.0,0.0,0.0,0.0,0.0,0.0,0.0,0.0,0.0,0.0,0.0,0.0,0.0,0.0,0.0,0.0,0.0,0.0,0.0,0.0,0.0,0.0,0.0,0.0,0.0,0.0,0.0,0.0,0.0,0.0,0.0,0.0,0.0,0.0,0.0,0.0,0.0,0.0,0.0,0.0,0.0,0.0,0.0,0.0,0.0,0.0,0.0,0.0,0.0,0.0,0.0,0.0,0.0,0.0,0.0,0.0,0.0,0.0,0.0,0.0,0.0,0.0,0.0,0.0,0.0,0.0,0.0,0.0,0.0,0.0,0.0,0.0,0.0,0.0,0.0,0.0,0.0,0.0,0.0,0.0,0.0,0.0,0.0,-2.3279,-2.5326,-2.6155,-2.632,-2.5654,-2.373,-2.1455,0.0,0.0,0.0,0.0,0.0,0.0,0.0,0.0,0.0,0.0,0.0,0.0,0.0,0.0,0.0,0.0,0.0,0.0,0.0,0.0,0.0,0.0,0.0,0.0,0.0,0.0,0.0,0.0,0.0,0.0,0.0,0.0,0.0,0.0,0.0,0.0,0.0,0.0,0.0,0.0,0.0,0.0,0.0,0.0,0.0,0.0,0.0,0.0,0.0,0.0,0.0,0.0,0.0,0.0,0.0,0.0,0.0,0.0,0.0,0.0,0.0,0.0,0.0,0.0,0.0,0.0,0.0,0.0,0.0,0.0,0.0,0.0,0.0,0.0,0.0,0.0,0.0,0.0,0.0,0.0,0.0,0.0,0.0,0.0,0.0,0.0,0.0,0.0,0.0,0.0,0.0,0.0,0.0,0.0,0.0,0.0,0.0,0.0,0.0,0.0,0.0,0.0,0.0,0.0,0.0,0.0,0.0,0.0,-2.4649,-2.5912,-2.715,-2.7153,-2.5742,-2.4297,-2.2461,0.0,0.0,0.0,0.0,0.0,0.0,0.0,0.0,0.0,0.0,0.0,0.0,0.0,0.0,0.0,0.0,0.0,0.0,0.0,0.0,0.0,0.0,0.0,0.0,0.0,0.0,0.0,0.0,0.0,0.0,0.0,0.0,0.0,0.0,0.0,0.0,0.0,0.0,0.0,0.0,0.0,0.0,0.0,0.0,0.0,0.0,0.0,0.0,-1.8737,0.0,0.0,0.0,0.0,0.0,0.0,0.0,0.0,0.0,0.0,0.0,0.0,0.0,0.0,0.0,0.0,0.0,0.0,0.0,0.0,0.0,0.0,0.0,0.0,0.0,0.0,0.0,0.0,0.0,0.0,0.0,0.0,0.0,0.0,0.0,0.0,0.0,0.0,0.0,0.0,0.0,0.0,0.0,0.0,0.0,0.0,0.0,0.0,0.0,0.0,0.0,0.0,0.0,0.0,0.0,0.0,0.0,0.0,0.0,-2.5279,-2.6814,-2.7202,-2.6831,-2.5732,-2.5059,-2.3496,0.0,0.0,0.0,0.0,0.0,0.0,0.0,0.0,0.0,0.0,0.0,0.0,0.0,0.0,0.0,0.0,0.0,0.0,0.0,0.0,0.0,0.0,0.0,0.0,0.0,0.0,0.0,0.0,0.0,0.0,0.0,0.0,0.0,0.0,0.0,0.0,0.0,0.0,0.0,0.0,0.0,0.0,0.0,0.0,0.0,0.0,0.0,0.0,0.0,0.0,0.0,0.0,0.0,0.0,0.0,0.0,0.0,0.0,0.0,0.0,0.0,0.0,0.0,0.0,0.0,0.0,0.0,0.0,0.0,0.0,0.0,0.0,0.0,0.0,0.0,0.0,0.0,0.0,0.0,0.0,0.0,0.0,0.0,0.0,0.0,0.0,0.0,0.0,0.0,0.0,0.0,0.0,0.0,0.0,0.0,0.0,0.0,0.0,0.0,0.0,0.0,0.0,0.0,0.0,0.0,0.0,0.0,-2.4192,-2.5573,-2.7811,-2.7119,-2.636,-2.5752,-2.5684,-2.427,-2.1317,0.0,0.0,0.0,0.0,0.0,0.0,0.0,0.0,0.0,0.0,0.0,0.0,0.0,0.0,0.0,0.0,0.0,0.0,0.0,0.0,0.0,0.0,0.0,0.0,0.0,0.0,0.0,0.0,0.0,0.0,0.0,0.0,0.0,0.0,0.0,0.0,0.0,0.0,-1.542,-1.6768,0.0,0.0,0.0,0.0,0.0,0.0,0.0,0.0,-2.0564,0.0,0.0,0.0,0.0,0.0,0.0,0.0,0.0,0.0,0.0,0.0,0.0,0.0,0.0,0.0,0.0,0.0,0.0,0.0,0.0,0.0,0.0,0.0,0.0,0.0,0.0,0.0,0.0,0.0,0.0,0.0,0.0,0.0,0.0,0.0,0.0,0.0,0.0,0.0,0.0,0.0,0.0,0.0,0.0,0.0,0.0,0.0,0.0,0.0,0.0,0.0,0.0,0.0,0.0,0.0,0.0,-2.6515,-2.5278,-2.6062,-2.9014,-2.8317,-2.7191,-2.5801,-2.5684,-2.427,-2.1377,0.0,0.0,0.0,0.0,0.0,0.0,0.0,0.0,0.0,0.0,0.0,0.0,0.0,0.0,0.0,0.0,0.0,0.0,0.0,0.0,0.0,0.0,0.0,0.0,0.0,0.0,0.0,0.0,0.0,0.0,0.0,0.0,0.0,0.0,0.0,0.0,0.0,0.0,0.0,-1.8867,-1.9697,0.0,0.0,0.0,0.0,0.0,0.0,0.0,0.0,-2.2159,0.0,0.0,0.0,0.0,0.0,0.0,0.0,0.0,0.0,0.0,0.0,0.0,0.0,0.0,0.0,0.0,0.0,0.0,0.0,0.0,0.0,0.0,0.0,0.0,0.0,0.0,0.0,0.0,0.0,0.0,0.0,0.0,0.0,0.0,0.0,0.0,0.0,0.0,0.0,0.0,0.0,0.0,0.0,0.0,0.0,0.0,0.0,0.0,0.0,0.0,0.0,0.0,0.0,0.0,0.0,-2.5761,-2.5847,-2.6945,-2.9249,-2.7741,-2.6503,-2.5723,-2.4873,-2.3565,0.0,0.0,0.0,0.0,0.0,0.0,0.0,0.0,0.0,0.0,0.0,0.0,0.0,0.0,0.0,0.0,0.0,0.0,0.0,0.0,0.0,0.0,0.0,0.0,0.0,0.0,0.0,0.0,0.0,0.0,0.0,0.0,0.0,0.0,0.0,0.0,0.0,0.0,0.0,0.0,-2.0141,-2.0747,-2.1203,0.0,0.0,0.0,0.0,0.0,0.0,-2.303,-2.364,0.0,0.0,0.0,0.0,0.0,0.0,0.0,0.0,0.0,0.0,0.0,0.0,0.0,0.0,0.0,0.0,0.0,0.0,0.0,0.0,0.0,0.0,0.0,0.0,0.0,0.0,0.0,0.0,0.0,0.0,0.0,0.0,0.0,0.0,0.0,0.0,0.0,0.0,0.0,0.0,0.0,0.0,0.0,0.0,0.0,0.0,0.0,0.0,0.0,0.0,0.0,0.0,0.0,0.0,0.0,-2.4398,-2.5966,-2.7517,-2.8905,-2.7115,-2.5975,-2.5654,-2.4228,-2.305,0.0,0.0,0.0,0.0,0.0,0.0,0.0,0.0,0.0,0.0,0.0,0.0,0.0,0.0,0.0,0.0,0.0,0.0,0.0,0.0,0.0,0.0,0.0,0.0,0.0,0.0,0.0,0.0,0.0,0.0,0.0,0.0,0.0,0.0,0.0,0.0,0.0,0.0,0.0,0.0,0.0,-2.201,-2.2229,-2.2008,0.0,0.0,0.0,0.0,-2.4098,-2.5115,0.0,0.0,0.0,0.0,0.0,0.0,0.0,0.0,0.0,0.0,0.0,0.0,0.0,0.0,0.0,0.0,0.0,0.0,0.0,0.0,0.0,0.0,0.0,0.0,0.0,0.0,0.0,0.0,0.0,0.0,0.0,0.0,0.0,0.0,0.0,0.0,0.0,0.0,0.0,0.0,0.0,0.0,0.0,0.0,0.0,0.0,0.0,0.0,0.0,0.0,0.0,0.0,0.0,0.0,0.0,0.0,-2.3197,-2.5292,-2.6854,-2.776,-2.7552,-2.6849,-2.5723,-2.4785,-2.3474,0.0,0.0,0.0,0.0,0.0,0.0,0.0,0.0,0.0,0.0,0.0,0.0,0.0,0.0,0.0,0.0,0.0,0.0,0.0,0.0,0.0,0.0,0.0,0.0,0.0,0.0,0.0,0.0,0.0,0.0,0.0,0.0,0.0,0.0,0.0,0.0,0.0,0.0,0.0,0.0,0.0,-2.4157,-2.3568,-2.3697,-2.4115,0.0,0.0,-2.6801,-2.6308,-2.8592,0.0,0.0,0.0,0.0,0.0,0.0,0.0,0.0,0.0,0.0,0.0,0.0,0.0,0.0,0.0,0.0,0.0,0.0,0.0,0.0,0.0,0.0,0.0,0.0,0.0,0.0,0.0,0.0,0.0,0.0,0.0,0.0,0.0,0.0,0.0,0.0,0.0,0.0,0.0,0.0,0.0,0.0,0.0,0.0,0.0,0.0,0.0,0.0,0.0,0.0,0.0,0.0,0.0,0.0,0.0,-2.2121,-2.31,-2.6417,-2.8326,-2.8604,-2.8634,-2.8366,-2.7804,-2.5877,-2.425,0.0,0.0,0.0,0.0,0.0,0.0,0.0,0.0,0.0,0.0,0.0,0.0,0.0,0.0,0.0,0.0,0.0,0.0,0.0,0.0,0.0,0.0,0.0,0.0,0.0,0.0,0.0,0.0,0.0,0.0,0.0,0.0,0.0,0.0,0.0,0.0,0.0,0.0,0.0,0.0,0.0,0.0,-2.5359,-2.5925,0.0,0.0,0.0,-2.8778,-2.8514,0.0,0.0,0.0,0.0,0.0,0.0,0.0,0.0,0.0,0.0,0.0,0.0,0.0,0.0,0.0,0.0,0.0,0.0,0.0,0.0,0.0,0.0,0.0,0.0,0.0,0.0,0.0,0.0,0.0,0.0,0.0,0.0,0.0,0.0,0.0,0.0,0.0,0.0,0.0,0.0,0.0,0.0,0.0,0.0,0.0,0.0,0.0,0.0,0.0,0.0,0.0,0.0,0.0,0.0,0.0,0.0,0.0,-2.309,-2.7666,-2.9863,-2.9408,-2.967,-2.9727,-2.9362,-2.7105,0.0,0.0,0.0,0.0,0.0,0.0,0.0,0.0,0.0,0.0,0.0,0.0,0.0,0.0,0.0,0.0,0.0,0.0,0.0,0.0,0.0,0.0,0.0,0.0,0.0,0.0,0.0,-1.7137,0.0,0.0,0.0,0.0,0.0,0.0,0.0,0.0,0.0,0.0,0.0,0.0,0.0,0.0,-2.7447,-2.7215,-2.8161,-2.9171,0.0,0.0,-3.0676,-3.0731,-3.19,-3.2089,0.0,0.0,0.0,0.0,0.0,0.0,0.0,0.0,0.0,0.0,0.0,0.0,0.0,0.0,0.0,0.0,0.0,0.0,0.0,0.0,0.0,0.0,0.0,0.0,0.0,0.0,0.0,0.0,0.0,0.0,0.0,0.0,0.0,0.0,0.0,0.0,0.0,0.0,0.0,0.0,0.0,0.0,0.0,0.0,0.0,0.0,0.0,0.0,0.0,0.0,0.0,0.0,0.0,0.0,0.0,-2.3204,-2.8453,-3.0658,-2.9499,-3.0496,-3.0541,-2.943,-2.8309,-2.6739,0.0,0.0,0.0,0.0,0.0,0.0,0.0,0.0,0.0,0.0,0.0,0.0,0.0,0.0,0.0,0.0,0.0,0.0,0.0,0.0,0.0,0.0,0.0,0.0,0.0,0.0,0.0,0.0,0.0,0.0,0.0,0.0,0.0,0.0,0.0,0.0,0.0,0.0,0.0,0.0,0.0,-2.878,-2.9063,-3.02,-3.1584,0.0,0.0,-3.287,-3.287,-3.3803,-3.3238,-2.9565,0.0,0.0,0.0,0.0,0.0,0.0,0.0,0.0,0.0,0.0,0.0,0.0,0.0,0.0,0.0,0.0,0.0,0.0,0.0,0.0,0.0,0.0,0.0,0.0,0.0,0.0,0.0,0.0,0.0,0.0,0.0,0.0,0.0,0.0,0.0,0.0,0.0,0.0,0.0,0.0,0.0,0.0,0.0,0.0,0.0,0.0,0.0,0.0,0.0,0.0,0.0,0.0,0.0,-2.3222,-2.3569,-2.8702,-3.1094,-3.0584,-3.1721,-3.2152,-3.1701,-3.0597,-2.8721,0.0,0.0,0.0,0.0,0.0,0.0,0.0,0.0,0.0,0.0,0.0,0.0,0.0,0.0,0.0,0.0,0.0,0.0,0.0,0.0,0.0,0.0,0.0,0.0,0.0,0.0,0.0,0.0,-2.0474,-2.1055,-2.1179,0.0,0.0,0.0,0.0,0.0,0.0,0.0,0.0,0.0,0.0,-3.0697,-3.1524,-3.265,0.0,0.0,-3.4449,-3.3972,-3.3633,-3.3935,-3.3244,-3.0432,-2.9691,0.0,0.0,0.0,0.0,0.0,0.0,0.0,0.0,0.0,0.0,0.0,0.0,0.0,0.0,0.0,0.0,0.0,0.0,0.0,0.0,0.0,0.0,0.0,0.0,0.0,0.0,0.0,0.0,0.0,0.0,0.0,0.0,0.0,0.0,0.0,0.0,0.0,0.0,0.0,0.0,0.0,0.0,0.0,0.0,0.0,0.0,0.0,0.0,0.0,0.0,0.0,0.0,-2.3695,-2.4333,-2.918,-3.1687,-3.1797,-3.2655,-3.3124,-3.3099,-3.2139,-3.0319,0.0,0.0,0.0,0.0,0.0,0.0,0.0,0.0,0.0,0.0,0.0,0.0,0.0,0.0,0.0,0.0,0.0,0.0,0.0,0.0,0.0,0.0,0.0,0.0,0.0,0.0,0.0,0.0,-2.1506,-2.192,-2.1559,0.0,0.0,0.0,0.0,0.0,0.0,0.0,0.0,0.0,0.0,-3.2187,-3.2999,-3.3888,-3.4625,-3.4956,-3.4381,-3.3847,-3.3658,-3.3452,-3.2699,-3.0909,0.0,0.0,0.0,0.0,0.0,0.0,0.0,0.0,0.0,0.0,0.0,0.0,0.0,0.0,0.0,0.0,0.0,0.0,0.0,0.0,0.0,0.0,0.0,0.0,0.0,0.0,0.0,0.0,0.0,0.0,-1.2964,0.0,0.0,0.0,0.0,0.0,0.0,0.0,0.0,0.0,0.0,0.0,0.0,0.0,0.0,0.0,0.0,0.0,0.0,0.0,0.0,0.0,0.0,-2.4487,-2.5603,-2.9916,-3.2478,-3.3013,-3.3068,-3.3124,-3.3111,-3.2503,-3.1411,-2.9691,0.0,0.0,0.0,0.0,0.0,0.0,0.0,0.0,0.0,0.0,0.0,0.0,0.0,0.0,0.0,0.0,0.0,0.0,0.0,0.0,0.0,0.0,0.0,0.0,0.0,0.0,-2.0729,-2.1207,-2.1506,0.0,0.0,0.0,0.0,0.0,0.0,0.0,0.0,0.0,0.0,-3.1286,-3.3056,-3.3088,-3.3583,-3.3972,-3.3985,-3.2924,-3.2326,-3.3048,-3.2561,-3.173,0.0,0.0,0.0,0.0,0.0,0.0,0.0,0.0,0.0,0.0,0.0,0.0,0.0,0.0,0.0,0.0,0.0,0.0,0.0,0.0,0.0,0.0,0.0,0.0,0.0,0.0,0.0,-1.7627,-1.6668,0.0,0.0,0.0,0.0,0.0,0.0,0.0,0.0,0.0,0.0,0.0,-2.7283,-2.8201,0.0,0.0,0.0,0.0,0.0,0.0,0.0,0.0,0.0,0.0,0.0,0.0,-2.5259,-2.6804,-3.0344,-3.2491,-3.3099,-3.3124,-3.3124,-3.3068,-3.2935,-3.1662,-2.9251,0.0,0.0,0.0,0.0,0.0,0.0,0.0,0.0,0.0,0.0,0.0,0.0,0.0,0.0,0.0,0.0,0.0,0.0,0.0,0.0,0.0,0.0,0.0,0.0,0.0,-2.1757,0.0,0.0,0.0,0.0,0.0,0.0,0.0,0.0,0.0,0.0,0.0,-2.8712,-3.0344,-3.1687,-3.2767,-3.352,-3.3784,-3.4161,0.0,0.0,0.0,0.0,0.0,0.0,0.0,0.0,0.0,0.0,0.0,0.0,0.0,0.0,-3.4085,-3.0456,-2.9783,-2.9881,-3.025,0.0,0.0,0.0,0.0,0.0,0.0,0.0,0.0,0.0,0.0,0.0,0.0,0.0,0.0,0.0,0.0,-1.8906,0.0,0.0,0.0,0.0,0.0,0.0,0.0,0.0,-2.9386,-3.0846,-3.0656,-3.1763,-3.1901,0.0,-2.9905,-2.7695,0.0,0.0,0.0,0.0,0.0,0.0,0.0,0.0,-2.6113,-2.7632,-3.0834,-3.2692,-3.3099,-3.3124,-3.3124,-3.3124,-3.3124,-3.2039,-2.9854,-2.821,-2.6217,0.0,0.0,0.0,0.0,0.0,0.0,0.0,0.0,0.0,0.0,0.0,0.0,0.0,0.0,0.0,0.0,0.0,0.0,0.0,0.0,0.0,0.0,0.0,-2.2673,0.0,0.0,0.0,0.0,0.0,0.0,0.0,0.0,0.0,-2.7908,-2.9352,-3.0984,-3.2616,-3.3144,-3.3508,-3.3847,0.0,0.0,0.0,0.0,0.0,0.0,0.0,-3.3298,-3.2648,-3.2996,-3.3696,-3.46,-3.5852,-3.6644,-3.6433,0.0,0.0,-3.3335,-3.2615,-3.2722,-3.3076,-3.3268,-3.3552,-3.4324,-3.4625,-3.4763,0.0,0.0,0.0,0.0,0.0,0.0,0.0,0.0,-2.2734,-2.249,0.0,-2.1582,0.0,0.0,0.0,0.0,0.0,-2.7077,0.0,0.0,-3.3101,-3.4437,-3.3935,-3.396,-3.3972,-3.3947,-3.337,-3.2277,-3.057,-2.6919,0.0,0.0,0.0,0.0,0.0,0.0,-2.7115,-2.826,-3.1411,-3.3068,-3.3124,-3.3124,-3.3124,-3.3124,-3.3124,-3.2566,-3.1486,-3.0884,-2.8892,-2.5182,-2.4402,0.0,0.0,0.0,0.0,0.0,0.0,0.0,0.0,0.0,0.0,0.0,0.0,0.0,0.0,0.0,0.0,0.0,0.0,0.0,0.0,-2.2506,0.0,0.0,0.0,0.0,0.0,0.0,0.0,0.0,0.0,0.0,-3.0821,-3.2127,-3.3709,-3.5182,0.0,0.0,0.0,0.0,-3.4361,-3.3395,-3.3835,-3.4063,-3.3382,-3.499,-3.5627,-3.3605,0.0,0.0,-3.6568,-3.6945,-3.7136,-3.6644,-3.7901,-3.8718,-3.8027,-3.6971,-3.6417,-3.6408,-3.5934,-3.5633,-3.5671,-3.6207,-3.6568,-2.5869,0.0,0.0,0.0,0.0,-2.4863,-2.5566,-2.6641,-2.6641,-2.6055,-2.5068,-2.4592,0.0,0.0,0.0,0.0,0.0,0.0,-3.1185,-3.2202,-3.3922,-3.4851,-3.5044,-3.5479,-3.5688,-3.5688,-3.509,-3.4555,-3.4016,-3.2227,-2.885,-2.4148,0.0,0.0,0.0,0.0,-2.8775,-2.9942,-3.2001,-3.3124,-3.3124,-3.3124,-3.3124,-3.3124,-3.3124,-3.2918,-3.2591,-3.2064,-3.0873,-2.8991,-2.6869,0.0,0.0,0.0,0.0,0.0,0.0,0.0,0.0,0.0,0.0,0.0,0.0,0.0,0.0,0.0,0.0,0.0,0.0,0.0,-2.3138,-2.3552,-2.4117,0.0,0.0,0.0,0.0,0.0,0.0,0.0,0.0,0.0,-3.455,-3.4424,-3.4286,0.0,0.0,-3.411,-3.3407,-3.4123,-3.4889,-3.5387,0.0,0.0,0.0,-3.6223,-3.6311,-3.6031,-3.7352,-3.8378,-3.8228,-3.8605,-3.8919,-3.8743,-3.912,-3.9408,-3.9207,-3.868,-3.8178,-3.8154,-3.8041,-3.8088,-3.8404,-3.8642,-3.873,-2.9355,-2.792,-2.6697,-2.6494,-2.6904,-2.7121,-2.7676,-2.8555,-2.8721,-2.8359,-2.7637,-2.7373,-2.626,-2.465,-2.6325,0.0,0.0,0.0,-3.3778,-3.4456,-3.529,-3.5755,-3.5893,-3.6254,-3.6417,-3.6392,-3.6031,-3.5755,-3.5483,-3.465,-3.1938,-2.757,0.0,0.0,-2.6493,-2.8499,-3.0004,-3.0947,-3.234,-3.3124,-3.3124,-3.3124,-3.3124,-3.3124,-3.3124,-3.3124,-3.3124,-3.2742,-3.1972,-3.0634,-2.8999,-2.7041,0.0,0.0,0.0,0.0,0.0,0.0,0.0,0.0,0.0,0.0,0.0,-2.0426,0.0,0.0,0.0,0.0,-2.2623,-2.4381,-2.5824,-2.6151,0.0,0.0,0.0,0.0,0.0,0.0,0.0,-3.2855,-3.4311,-3.5567,-3.6593,-3.6295,-3.5981,-3.5881,-3.5479,-3.5077,-3.4751,0.0,-3.6182,-3.6669,-3.692,-3.7197,-3.7684,-3.7566,-3.7579,-3.8102,-3.873,-3.9182,-3.9207,-3.9484,-3.9685,-3.9697,-3.9697,-3.9697,-3.9697,-3.9422,-3.9221,-3.9228,-3.9244,-3.9372,-3.9898,-4.0023,-4.0074,-3.1992,-3.1377,-2.8603,-2.7637,-2.8002,-2.834,-2.8721,-2.9101,-2.9502,-2.9714,-2.9619,-2.9619,-2.9055,-2.812,-2.9737,0.0,-3.4832,-3.5984,-3.6518,-3.6556,-3.6973,-3.691,-3.648,-3.643,-3.6417,-3.6417,-3.6417,-3.6107,-3.5558,-3.5019,-3.3721,-3.1687,-3.1097,-3.0192,-2.9151,-3.0142,-3.1009,-3.1524,-3.2596,-3.3124,-3.3124,-3.3124,-3.3124,-3.3124,-3.3043,-3.3048,-3.3006,-3.2955,-3.2252,-3.0747,-3.0618,-2.9151,-2.6041,0.0,0.0,0.0,0.0,0.0,0.0,0.0,0.0,0.0,0.0,0.0,0.0,0.0,0.0,0.0,-2.6465,0.0,-2.9038,-2.9679,0.0,0.0,0.0,-3.1913,-3.2541,-3.401,-3.5177,-3.5633,0.0,0.0,-3.7324,0.0,-3.8278,-3.8856,-3.7965,-3.7224,-3.7199,-3.7626,-3.7902,-3.7425,-3.7789,-3.824,-3.8628,-3.878,-3.902,-3.9433,-3.9697,-3.9672,-3.9659,-3.9685,-3.9697,-3.9697,-3.9697,-3.9697,-3.9697,-3.9672,-3.971,-3.976,-3.976,-3.9936,-4.0463,-4.0588,-4.0701,-3.2588,-3.2412,-3.1367,-3.0625,-3.0146,-3.0234,-3.0332,-3.043,-3.0537,-3.0381,-3.0049,-3.0049,-3.0292,-3.077,-3.226,-3.3883,-3.5617,-3.6973,-3.7613,-3.76,-3.7324,-3.7111,-3.7021,-3.6619,-3.6417,-3.6417,-3.6417,-3.6342,-3.6132,-3.5571,-3.4818,-3.3878,-3.2968,-3.1725,-3.0319,-3.1245,-3.2102,-3.2709,-3.2943,-3.3124,-3.3124,-3.3124,-3.3124,-3.3124,-3.2641,-3.2416,-3.2416,-3.2014,-3.1601,-3.1232,-3.0798,-2.9824,-2.8188,-2.5756,0.0,0.0,0.0,0.0,0.0,0.0,0.0,0.0,0.0,-2.4588,-2.0981,0.0,-2.6791,0.0,-2.772,-2.9804,-3.1286,-3.1549,0.0,0.0,-3.3859,-3.4474,-3.5843,-3.6722,-3.7274,-3.7412,-3.8027,-3.8517,-3.8529,-3.858,-3.8868,-3.9396,-3.853,-3.7651,-3.7287,-3.8089,-3.8617,-3.853,-3.8906,-3.9308,-3.941,-3.9472,-3.9534,-3.9672,-3.9697,-3.9697,-3.9697,-3.9697,-3.9697,-3.9697,-3.9697,-3.9697,-3.9697,-3.9697,-3.986,-4.0212,-4.0335,-4.047,-4.0987,-4.1087,-4.1191,-3.2959,-3.2773,-3.2549,-3.206,-3.1445,-3.125,-3.1162,-3.1152,-3.0976,-3.0742,-3.0498,-3.0498,-3.1187,-3.2367,-3.3823,-3.5218,-3.6609,-3.806,-3.8617,-3.8366,-3.8078,-3.7663,-3.7174,-3.6872,-3.6644,-3.6417,-3.6417,-3.6417,-3.6392,-3.6044,-3.5629,-3.5031,-3.4474,-3.347,-3.2127,-3.1926,-3.2001,-3.2328,-3.2566,-3.2817,-3.3111,-3.3124,-3.2943,-3.2704,-3.2378,-3.2089,-3.1863,-3.1562,-3.1286,-3.106,-3.0771,-3.0218,-2.934,-2.7155,-2.5536,0.0,0.0,0.0,0.0,0.0,0.0,0.0,0.0,0.0,0.0,0.0,-2.9026,0.0,-3.0859,-3.2817,-3.3947,-3.4487,-3.5469,-3.7261,-3.7356,-3.7882,-3.9411,-3.9538,-3.9396,-3.9145,-3.9408,-3.9509,-3.9283,-3.9245,-3.9346,-3.9647,-3.9145,-3.8655,-3.8417,-3.8868,-3.9233,-3.9309,-3.9496,-3.9697,-3.9697,-3.9697,-3.9697,-3.9697,-3.9697,-3.9697,-3.9697,-3.9697,-3.9697,-3.9697,-3.9697,-3.9697,-3.9697,-3.9697,-3.9936,-4.0598,-4.0874,-4.1087,-4.1593,-4.1706,-4.1743,-3.3213,-3.2881,-3.2871,-3.2656,-3.2305,-3.1865,-3.1621,-3.1494,-3.1133,-3.0937,-3.0898,-3.0898,-3.1604,-3.2907,-3.4348,-3.5825,-3.7305,-3.8752,-3.9267,-3.8981,-3.8906,-3.8316,-3.7299,-3.7211,-3.6897,-3.643,-3.6417,-3.6417,-3.6417,-3.6417,-3.6094,-3.552,-3.5433,-3.4881,-3.3872,-3.2378,-3.1612,-3.1612,-3.2014,-3.2466,-3.2955,-3.2893,-3.2629,-3.2139,-3.1997,-3.1788,-3.1323,-3.1223,-3.0972,-3.0545,-3.0507,-3.0319,-2.9892,-2.8373,-2.7281,0.0,-2.5393,0.0,0.0,0.0,0.0,0.0,0.0,0.0,0.0,-3.043,-3.1662,-3.2667,-3.4605,-3.6034,-3.6681,-3.7676,-3.9089,-4.0878,-4.1067,-4.1516,-4.2838,-4.2241,-4.1509,-4.1016,-4.0706,-4.0325,-3.9873,-3.9798,-3.9798,-3.9722,-3.9747,-3.9685,-3.9659,-3.9634,-3.9647,-3.9697,-3.9697,-3.9697,-3.9697,-3.9697,-3.9697,-3.9697,-3.9697,-3.9697,-3.9697,-3.9697,-3.9697,-3.9697,-3.9697,-3.9697,-3.9697,-3.9697,-4.0074,-4.1025,-4.1238,-4.1517,-4.2082,-4.2313,-4.2476,-3.3379,-3.3301,-3.331,-3.3252,-3.3154,-3.2734,-3.2158,-3.1514,-3.1426,-3.1211,-3.0898,-3.0898,-3.1054,-3.1441,-3.2861,-3.4348,-3.5781,-3.7252,-3.8521,-3.9521,-3.9133,-3.8567,-3.7852,-3.74,-3.6897,-3.643,-3.6417,-3.6417,-3.6417,-3.6417,-3.6094,-3.5508,-3.5056,-3.455,-3.3897,0.0,0.0,0.0,-3.239,-3.2265,-3.2353,-3.1938,-3.165,-3.1537,-3.1148,0.0,-3.0746,-3.0344,-3.0055,-2.9955,-2.9942,0.0,0.0,0.0,0.0,0.0,0.0,0.0,0.0,0.0,0.0,0.0,-3.2001,-3.1603,-3.1047,-3.3138,-3.4831,-3.5588,-3.6784,-3.7776,-3.8354,-3.9396,-4.0606,-4.2108,-4.302,-4.4056,-4.5362,-4.4408,-4.3611,-4.3454,-4.177,-4.0488,-4.0375,-4.035,-4.0199,-3.9823,-4.0074,-4.0162,-3.976,-3.971,-3.9697,-3.9697,-3.9697,-3.9697,-3.9697,-3.9697,-3.9697,-3.9697,-3.9697,-3.9697,-3.9697,-3.9697,-3.9697,-3.9697,-3.9697,-3.9697,-3.9697,-3.9697,-4.0061,-4.1128,-4.1275,-4.1589,-4.2597,-4.2879,-4.2861,-3.3418,0.0,-3.3418,-3.3418,0.0,-3.3193,-3.2744,-3.2119,-3.1699,-3.1279,-3.0898,-3.0898,-3.1267,-3.2035,-3.3529,-3.5013,-3.6433,-3.7926,-3.8961,-3.9685,-3.9408,-3.8981,-3.8417,-3.7852,-3.7312,-3.682,-3.6543,-3.6048,-3.5415,-3.5427,-3.5293,-3.4916,-3.4695,-3.4582,-3.4668,-3.4173,-3.3621,-3.3124,-3.2503,-3.2353,-3.2616,-3.2378,-3.2089,-3.18,0.0,0.0,0.0,0.0,0.0,0.0,0.0,0.0,0.0,0.0,0.0,-3.0934,-3.0721,-3.0809,-3.1348,-3.1913,-3.2943,-3.4575,-3.5512,-3.5387,-3.4004,-3.5893,-3.7299,-3.7637,-3.8354,-3.9069,-3.9634,-4.0438,-4.1573,-4.3151,-4.353,-4.4413,-4.6089,-4.4864,-4.3773,-4.3993,-4.2518,-4.1153,-4.0588,-4.0777,-4.0689,-4.0212,-4.0325,-4.0425,-4.0136,-3.986,-3.9697,-3.9697,-3.9697,-3.9697,-3.9697,-3.9697,-3.9697,-3.9697,-3.9697,-3.9697,-3.9697,-3.9697,-3.9697,-3.9697,-3.9697,-3.9697,-3.9722,-3.9898,-4.0337,-4.1122,-4.1534,-4.1982,-4.2854,-4.2986,-4.2986,-3.3418,-3.3418,-3.3418,-3.3418,-3.3418,-3.3418,-3.3184,-3.2734,0.0,0.0,0.0,-3.0996,-3.1626,-3.2804,-3.4247,-3.5715,-3.7198,-3.8635,-3.9465,-3.9697,-3.9697,-3.9396,-3.8894,-3.8379,-3.7715,-3.687,-3.641,-3.5453,-3.408,-3.403,-3.4178,-3.4385,-3.4385,-3.4812,-3.5574,-3.5094,-3.4424,-3.3533,-3.2767,-3.2541,-3.296,-3.2918,-3.2704,-3.2215,-3.2315,-3.2152,-3.1712,-3.1687,-3.1486,-3.1072,-3.106,-3.1286,-3.18,-3.1825,-3.229,-3.3269,-3.347,-3.3746,-3.4299,-3.4851,-3.5629,-3.6769,-3.8215,-3.8441,-3.6958,-3.8215,-3.9108,-3.9145,-3.9572,-4.0061,-4.0614,-4.1153,-4.221,-4.3993,-4.3669,-4.4359,-4.6539,-4.4941,-4.3714,-4.4069,-4.3069,-4.1835,-4.0852,-4.1053,-4.1075,-4.0664,-4.0614,-4.0548,-4.0475,-4.0023,-3.9697,-3.9697,-3.9697,-3.9697,-3.9697,-3.9697,-3.9697,-3.9697,-3.9697,-3.9697,-3.9697,-3.9697,-3.9697,-3.9697,-3.9697,-3.9747,-3.9848,-4.0199,-4.0704,-4.1304,-4.1856,-4.2363,-4.2823,-4.2986,-4.2986,-3.3418,-3.3418,-3.3418,-3.3418,-3.3418,-3.3418,-3.3184,-3.2764,-3.2285,-3.1836,-3.1435,-3.1435,-3.1339,-3.1276,-3.2758,-3.4236,-3.5672,-3.7156,-3.8465,0.0,-3.9697,-3.9408,-3.8881,-3.8831,-3.7605,-3.5581,-3.5399,-3.4419,-3.2778,-3.2593,-3.3216,-3.4227,-3.4385,-3.5029,-3.6113,-3.5705,-3.5307,-3.5119,-3.3721,-3.2754,-3.234,-3.2328,-3.229,-3.224,-3.2717,-3.293,-3.2842,-3.2885,-3.2805,-3.2742,-3.2772,-3.298,-3.3508,-3.3533,-3.3822,-3.4449,-3.4893,-3.5441,-3.6028,-3.6533,-3.7324,-3.8417,-3.917,-3.9258,-3.8668,-3.917,-3.9772,-4.0224,-4.0337,-4.0626,-4.1125,-4.1706,-4.2605,-4.3966,-4.4492,-4.5342,-4.6799,-4.5608,-4.4645,-4.4783,-4.3313,-4.2011,-4.1379,-4.125,-4.1191,-4.0764,-4.0978,-4.1065,-4.0551,-4.0049,-3.9735,-3.9697,-3.9697,-3.9697,-3.9697,-3.9697,-3.9697,-3.9697,-3.9697,-3.9697,-3.9697,-3.9697,-3.9697,-3.9697,-3.9697,-3.986,-4.0262,-4.045,-4.0955,-4.1755,-4.2141,-4.2439,-4.2886,-4.2986,-4.2986,-3.3418,-3.3418,-3.3418,-3.3418,-3.3418,-3.3418,-3.332,-3.3125,-3.293,-3.248,-3.1865,-3.1621,-3.186,-3.2486,-3.3749,-3.4626,-3.5409,-3.7648,-3.8635,-3.8582,-3.9362,-3.9559,-3.9308,-3.9057,-3.7899,-3.6069,-3.5681,-3.4152,-3.1802,-3.1625,-3.2141,-3.3327,-3.4715,-3.581,-3.6345,-3.6107,-3.583,-3.5483,-3.4512,-3.3834,-3.3583,-3.3527,-3.3571,-3.3571,-3.3847,-3.3972,-3.3972,-3.3972,-3.3972,-3.3972,-3.3972,-3.4223,-3.4751,-3.4788,-3.5039,-3.5579,-3.6132,-3.6546,-3.6832,-3.7662,-3.8454,-3.9245,-3.9546,-3.9597,-3.9346,-3.9823,-4.0249,-4.0501,-4.0777,-4.1191,-4.1718,-4.2049,-4.2574,-4.3454,-4.3765,-4.4481,-4.5502,-4.4738,-4.4222,-4.4725,-4.3647,-4.2451,-4.1856,-4.1781,-4.1706,-4.1467,-4.1656,-4.1467,-4.0664,-4.0312,-4.0023,-3.976,-3.9697,-3.9697,-3.9697,-3.9697,-3.9697,-3.9697,-3.9697,-3.9697,-3.9697,-3.9697,-3.9697,-3.9697,-3.9697,-3.991,-4.0425,-4.0724,-4.1307,-4.1902,-4.2469,-4.2753,-4.2924,-4.2986,-4.2986,-3.3418,-3.3418,-3.3418,-3.3418,-3.3418,-3.3418,-3.3418,-3.3418,-3.3408,-3.3057,-3.2432,-3.1904,-3.2216,-3.3265,-3.4341,-3.4792,-3.5233,-3.7861,-3.8582,-3.7743,-3.9025,-3.9697,-3.9595,-3.8964,-3.7731,-3.6291,-3.5422,-3.3521,-3.0942,-3.0593,-3.1137,-3.2476,-3.5041,-3.6417,-3.6417,-3.6417,-3.6157,-3.5683,-3.5303,-3.4977,-3.4693,-3.4839,-3.4868,-3.4868,-3.5027,-3.509,-3.509,-3.509,-3.5102,-3.509,-3.509,-3.529,-3.5646,-3.5809,-3.6107,-3.6593,-3.7061,-3.7437,-3.76,-3.8492,-3.9233,-3.9647,-3.981,-3.9885,-3.9923,-4.0513,-4.0827,-4.0789,-4.1163,-4.1743,-4.2288,-4.2401,-4.2564,-4.2936,-4.2986,-4.3436,-4.4264,-4.3589,-4.3338,-4.4264,-4.3852,-4.3165,-4.2473,-4.246,-4.2518,-4.2204,-4.2213,-4.1798,-4.0915,-4.0614,-4.03,-3.9885,-3.9697,-3.9697,-3.9697,-3.9697,-3.9697,-3.9697,-3.9697,-3.9697,-3.9697,-3.9697,-3.9697,-3.971,-3.9835,-4.0136,-4.0614,-4.1153,-4.1681,-4.2305,-4.269,-4.2949,-4.2974,-4.2986,-4.2986,-3.3418,-3.3418,-3.3418,-3.3418,-3.3418,-3.3418,-3.3418,-3.3418,-3.3418,-3.3398,-3.3184,-3.2461,-3.1945,-3.188,-3.2908,-3.3371,-3.3519,-3.6368,-3.7571,-3.7624,-3.9013,-3.9697,-3.953,-3.8287,-3.6655,-3.482,-3.3465,-3.1916,-2.9927,-2.9476,-3.0261,-3.2387,-3.5054,-3.6417,-3.6417,-3.6417,-3.638,-3.6342,-3.6279,-3.573,-3.4813,-3.5169,-3.5433,-3.5433,-3.5956,-3.6254,-3.6191,-3.6254,-3.6254,-3.6254,-3.6241,-3.6279,-3.638,-3.6747,-3.7048,-3.7123,-3.7626,-3.8153,-3.868,-3.927,-3.9622,-3.9722,-4.0149,-4.0413,-4.0463,-4.1367,-4.1781,-4.148,-4.1769,-4.2351,-4.2811,-4.2886,-4.2886,-4.2949,-4.2986,-4.3073,-4.324,-4.3073,-4.3073,-4.3141,-4.4264,-4.4165,-4.2885,-4.319,-4.3353,-4.2322,-4.2288,-4.1982,-4.1304,-4.084,-4.0362,-3.9873,-3.9697,-3.9697,-3.9697,-3.9697,-3.9697,-3.9697,-3.9697,-3.9697,-3.9697,-3.9697,-3.9697,-3.9735,-4.0086,-4.0538,-4.1103,-4.1706,-4.225,-4.2652,-4.2929,-4.2986,-4.2986,-4.2986,-4.2986,-3.3418,-3.3418,-3.3418,-3.3418,-3.3418,-3.3418,-3.3418,-3.3418,-3.3418,-3.3418,-3.335,-3.2793,-3.2305,-3.1995,-3.3012,-3.2903,-3.2055,-3.4847,-3.6205,-3.6325,-3.7701,-3.8413,-3.8295,-3.7796,-3.6198,-3.3854,-3.3064,-3.1835,-3.0436,-3.0838,-3.1841,-3.2858,-3.5163,-3.6417,-3.6417,-3.6417,-3.6417,-3.6417,-3.6417,-3.6179,-3.578,-3.5906,-3.6019,-3.6044,-3.6245,-3.6417,-3.6417,-3.6417,-3.6417,-3.643,-3.6659,-3.6895,-3.686,-3.7362,-3.7663,-3.7701,-3.8203,-3.8768,-3.932,-3.9584,-3.9697,-3.9697,-4.0199,-4.0526,-4.0563,-4.1517,-4.2099,-4.1944,-4.2376,-4.2803,-4.2949,-4.2986,-4.2986,-4.2986,-4.2986,-4.2974,-4.2986,-4.3713,-4.4167,-4.4277,-4.5409,-4.5647,-4.4194,-4.3614,-4.3172,-4.2418,-4.2439,-4.2271,-4.1451,-4.1075,-4.0651,-3.9923,-3.9697,-3.9697,-3.9697,-3.9697,-3.9697,-3.9697,-3.9697,-3.9697,-3.9697,-3.9697,-3.9697,-3.9697,-4.0199,-4.0727,-4.1204,-4.1781,-4.2363,-4.2773,-4.2986,-4.2986,-4.2986,-4.2986,-4.2986,-3.3418,-3.3418,-3.3418,-3.3418,-3.3418,-3.3418,-3.3418,-3.3418,-3.3418,-3.3418,-3.3398,-3.3096,-3.2734,-3.2468,-3.2889,-3.2512,-3.2064,-3.419,-3.5508,-3.5999,-3.7412,-3.8137,-3.806,-3.7186,-3.5825,-3.3957,-3.3283,-3.2498,-3.1706,-3.3123,-3.3868,-3.3991,-3.5649,-3.6556,-3.643,-3.6417,-3.6417,-3.6417,-3.6417,-3.6417,-3.6405,-3.6417,-3.6417,-3.6417,-3.6417,-3.6417,-3.6417,-3.6556,-3.6631,-3.6644,-3.7159,-3.7412,-3.7425,-3.7939,-3.8304,-3.8479,-3.8856,-3.927,-3.9672,-3.9835,-3.9923,-3.9973,-4.0551,-4.0965,-4.1128,-4.1831,-4.2389,-4.2464,-4.2803,-4.2961,-4.2986,-4.2986,-4.2986,-4.2986,-4.2986,-4.3073,-4.3534,-4.4468,-4.5088,-4.5568,-4.637,-4.6591,-4.5195,-4.3881,-4.2854,-4.259,-4.2627,-4.2459,-4.1514,-4.1125,-4.0727,-3.986,-3.9697,-3.9697,-3.9697,-3.9697,-3.9697,-3.9697,-3.9697,-3.9697,-3.9697,-3.9697,-3.9697,-3.976,-4.0312,-4.0827,-4.1317,-4.1831,-4.2489,-4.2798,-4.2986,-4.2986,-4.2986,-4.2986,-4.2986,-3.3418,-3.3418,-3.3418,-3.3418,-3.3418,-3.3418,-3.3418,-3.3418,-3.3418,-3.3418,-3.3418,-3.3389,-3.3154,-3.2715,-3.2124,-3.2352,-3.3482,-3.4566,-3.5859,-3.7145,-3.8635,-3.9517,-3.9413,-3.6769,-3.5288,-3.4736,-3.362,-3.3452,-3.427,-3.5706,-3.6046,-3.5244,-3.6431,-3.692,-3.6531,-3.643,-3.6417,-3.6417,-3.6455,-3.6417,-3.643,-3.643,-3.648,-3.6468,-3.6417,-3.6417,-3.6493,-3.692,-3.7136,-3.7149,-3.7676,-3.7977,-3.8015,-3.8517,-3.9057,-3.9496,-3.9609,-3.9659,-3.9772,-4.0162,-4.045,-4.0601,-4.1392,-4.2087,-4.2011,-4.2552,-4.2836,-4.2924,-4.2936,-4.2986,-4.2986,-4.2986,-4.2986,-4.2986,-4.2986,-4.3547,-4.4738,-4.4994,-4.5648,-4.6643,-4.7057,-4.6578,-4.5249,-4.3865,-4.3129,-4.2798,-4.2577,-4.2007,-4.1455,-4.0862,-4.0375,-3.9923,-3.9697,-3.9697,-3.9697,-3.9697,-3.9697,-3.9697,-3.9697,-3.9697,-3.9697,-3.9697,-3.9697,-3.9923,-4.0639,-4.1112,-4.148,-4.1995,-4.2647,-4.2986,-4.2986,-4.2986,-4.2986,-4.2986,-4.2986,-3.3418,-3.3418,-3.3418,-3.3418,-3.3418,-3.3418,-3.3418,-3.3418,-3.3418,-3.3418,-3.3418,-3.3418,-3.334,-3.3164,-3.2598,-3.2314,-3.2303,-3.2697,-3.4043,-3.5979,-3.6649,-3.737,-3.8031,-3.6217,-3.4736,-3.3912,-3.335,-3.377,-3.5063,-3.6162,-3.6502,-3.633,-3.6838,-3.7121,-3.686,-3.6581,-3.6417,-3.6455,-3.6732,-3.6769,-3.6543,-3.7048,-3.7262,-3.6933,-3.6581,-3.6568,-3.692,-3.7086,-3.7337,-3.7688,-3.8241,-3.8567,-3.8617,-3.9094,-3.9484,-3.9659,-3.9697,-3.9848,-4.0174,-4.04,-4.0676,-4.1,-4.1718,-4.2238,-4.2301,-4.2647,-4.2986,-4.2986,-4.2986,-4.2986,-4.2986,-4.2986,-4.2986,-4.2986,-4.303,-4.3547,-4.4792,-4.5767,-4.6888,-4.7923,-4.7721,-4.685,-4.5978,-4.4372,-4.3085,-4.2936,-4.2552,-4.1944,-4.1417,-4.0824,-4.03,-3.986,-3.9697,-3.9697,-3.9697,-3.9697,-3.9697,-3.9697,-3.9697,-3.971,-3.971,-3.976,-3.9772,-4.0049,-4.0789,-4.1363,-4.1706,-4.2233,-4.2861,-4.2986,-4.2986,-4.2986,-4.2986,-4.2986,-4.2986,-3.3418,-3.3418,-3.3418,-3.3418,-3.3418,-3.3418,-3.3418,-3.3418,-3.3418,-3.3418,-3.3418,-3.3418,-3.3418,-3.3379,-3.3125,-3.2617,-3.1994,-3.2167,-3.366,-3.6075,-3.6068,-3.6553,-3.7186,-3.6487,-3.5222,-3.4114,-3.4348,-3.5277,-3.6638,-3.7343,-3.7572,-3.7445,-3.7643,-3.7613,-3.7425,-3.7073,-3.6945,-3.6973,-3.7262,-3.7262,-3.7036,-3.7613,-3.7839,-3.7462,-3.7134,-3.7048,-3.7437,-3.7626,-3.7889,-3.8291,-3.8843,-3.9145,-3.917,-3.9484,-3.9697,-3.971,-3.9873,-4.0111,-4.0501,-4.0827,-4.1216,-4.158,-4.2108,-4.2476,-4.2514,-4.2773,-4.2949,-4.2986,-4.2986,-4.2986,-4.2986,-4.2986,-4.2986,-4.2986,-4.2986,-4.3755,-4.5449,-4.6539,-4.767,-4.8589,-4.7923,-4.7043,-4.6265,-4.4318,-4.324,-4.2974,-4.2371,-4.1743,-4.1313,-4.0701,-4.0162,-3.9785,-3.9697,-3.9697,-3.9697,-3.9697,-3.9697,-3.9697,-3.9772,-3.9772,-3.9898,-3.991,-4.0061,-4.0325,-4.0789,-4.143,-4.2007,-4.2534,-4.2798,-4.2949,-4.2986,-4.2986,-4.2986,-4.2986,-4.2986,-3.3418,-3.3418,-3.3418,-3.3418,-3.3418,-3.3418,-3.3418,-3.3418,-3.3418,-3.3418,-3.3418,-3.3418,-3.3418,-3.3408,-3.3369,-3.3144,-3.2903,-3.3182,-3.4769,-3.7168,-3.7122,-3.7061,-3.7252,-3.7091,-3.6487,-3.5387,-3.6703,-3.8084,-3.9245,-3.9339,-3.9204,-3.8918,-3.8768,-3.8454,-3.8015,-3.7902,-3.7902,-3.7902,-3.7952,-3.7977,-3.8002,-3.8078,-3.8128,-3.804,-3.8015,-3.804,-3.8065,-3.8517,-3.8818,-3.8957,-3.9358,-3.9672,-3.9622,-3.9685,-3.9697,-3.9835,-4.0212,-4.0488,-4.0689,-4.1517,-4.2049,-4.2263,-4.269,-4.2886,-4.2873,-4.2936,-4.2986,-4.2986,-4.2986,-4.2986,-4.2986,-4.2986,-4.2986,-4.2986,-4.2986,-4.4058,-4.6226,-4.7159,-4.767,-4.8752,-4.8074,-4.6643,-4.5302,-4.4113,-4.3295,-4.2909,-4.217,-4.1543,-4.1363,-4.0714,-3.9936,-3.9772,-3.9823,-3.9873,-3.9785,-3.9697,-3.9697,-3.971,-3.9823,-3.991,-4.0237,-4.0375,-4.0614,-4.089,-4.1329,-4.1944,-4.2396,-4.2848,-4.2873,-4.2986,-4.2986,-4.2986,-4.2986,-4.2986,-4.2986,-3.3418,-3.3418,-3.3418,-3.3418,-3.3418,-3.3418,-3.3418,-3.3418,-3.3418,-3.3418,-3.3418,-3.3418,-3.3418,-3.3418,-3.3418,-3.335,-3.3236,-3.3212,-3.3858,-3.4929,-3.4984,-3.5358,-3.5936,-3.5999,-3.6259,-3.6757,-3.7252,-3.8243,-3.9478,-3.9697,-3.9584,-3.9408,-3.9057,-3.8844,-3.8605,-3.8228,-3.8002,-3.804,-3.8404,-3.8429,-3.814,-3.8781,-3.8981,-3.8693,-3.8956,-3.917,-3.917,-3.8981,-3.9069,-3.9408,-3.9597,-3.9697,-3.9697,-3.9697,-3.9873,-4.0212,-4.0413,-4.0902,-4.1568,-4.1999,-4.2401,-4.2703,-4.2886,-4.2961,-4.2986,-4.2986,-4.2986,-4.2986,-4.2986,-4.2986,-4.2986,-4.2986,-4.2986,-4.2986,-4.3042,-4.4071,-4.6747,-4.8702,-4.9518,-4.921,-4.8802,-4.7923,-4.6591,-4.5195,-4.3962,-4.3078,-4.2321,-4.1869,-4.1756,-4.1204,-4.0664,-4.0375,-4.0287,-4.0023,-3.981,-3.9697,-3.9697,-3.981,-3.9961,-4.0212,-4.0538,-4.0927,-4.1178,-4.1505,-4.1957,-4.2389,-4.2798,-4.2986,-4.2986,-4.2986,-4.2986,-4.2986,-4.2986,-4.2986,-4.2986,-3.3418,-3.3418,-3.3418,-3.3418,-3.3418,-3.3418,-3.3418,-3.3418,-3.3418,-3.3418,-3.3418,-3.3418,-3.3418,-3.3418,-3.3418,-3.3418,-3.3389,-3.3135,-3.303,-3.3236,-3.3559,-3.4285,-3.5289,-3.5945,-3.6876,-3.8084,-3.8307,-3.8804,-3.9645,-3.9697,-3.9697,-3.9609,-3.9346,-3.9182,-3.9157,-3.8831,-3.863,-3.8693,-3.8994,-3.8994,-3.8856,-3.932,-3.9521,-3.9283,-3.9509,-3.9685,-3.9659,-3.9346,-3.9333,-3.9622,-3.9697,-3.9772,-3.9961,-4.0023,-4.0249,-4.0727,-4.1053,-4.1455,-4.2137,-4.2376,-4.2652,-4.2924,-4.2986,-4.2986,-4.2986,-4.2986,-4.2986,-4.2986,-4.2986,-4.2986,-4.2986,-4.2986,-4.2986,-4.2986,-4.2986,-4.4222,-4.6799,-4.9518,-5.0698,-5.0095,-4.9504,-4.8539,-4.7248,-4.5859,-4.4522,-4.3275,-4.2564,-4.2213,-4.2112,-4.1668,-4.1166,-4.0739,-4.0488,-4.0162,-3.9785,-3.9697,-3.9697,-3.9898,-4.0124,-4.0488,-4.0865,-4.1367,-4.1731,-4.2082,-4.2497,-4.2585,-4.2961,-4.2974,-4.2986,-4.2986,-4.2986,-4.2986,-4.2986,-4.2986,-4.2986,-3.3418,-3.3418,-3.3418,-3.3418,-3.3418,-3.3418,-3.3418,-3.3418,-3.3418,-3.3418,-3.3418,-3.3418,-3.3418,-3.3418,-3.3418,-3.3481,-3.3587,-3.3684,-3.3364,-3.3115,-3.3489,-3.4382,-3.5356,-3.6595,-3.7967,-3.931,-3.953,-3.9645,-3.9697,-3.9697,-3.9697,-3.9685,-3.9647,-3.9672,-3.9597,-3.9647,-3.9559,-3.9534,-3.9622,-3.9609,-3.9584,-3.9659,-3.9685,-3.9634,-3.9672,-3.9697,-3.9685,-3.9634,-3.9647,-3.9697,-3.9697,-3.9923,-4.0375,-4.0513,-4.0648,-4.1304,-4.1882,-4.2137,-4.2351,-4.269,-4.2924,-4.2974,-4.2986,-4.2986,-4.2986,-4.2986,-4.2986,-4.2986,-4.2986,-4.2986,-4.2986,-4.2986,-4.2986,-4.303,-4.3449,-4.4738,-4.6747,-4.9421,-5.0745,-5.076,-4.9921,-4.8738,-4.7415,-4.5978,-4.4738,-4.3318,-4.2627,-4.2426,-4.2288,-4.1932,-4.1304,-4.1028,-4.0953,-4.053,-4.0203,-3.9986,-4.0011,-4.0134,-4.0373,-4.0814,-4.1241,-4.1756,-4.2275,-4.2585,-4.2798,-4.2898,-4.2961,-4.2974,-4.2986,-4.2986,-4.2986,-4.2986,-4.2986,-4.2986,-4.2986,-3.3418,-3.3418,-3.3418,-3.3418,-3.3418,-3.3418,-3.3418,-3.3418,-3.3418,-3.3418,-3.3418,-3.3418,-3.3418,-3.3418,-3.3418,-3.4017,-3.4788,-3.5036,-3.4943,-3.4436,-3.4237,-3.4654,-3.5489,-3.6811,-3.8243,-3.953,-3.9697,-3.9697,-3.9697,-3.9697,-3.9697,-3.9697,-3.9697,-3.9697,-3.9697,-3.9697,-3.9697,-3.9697,-3.9697,-3.9697,-3.9697,-3.9697,-3.9697,-3.9697,-3.9697,-3.9697,-3.9697,-3.9697,-3.9697,-3.9697,-3.9697,-3.9948,-4.0475,-4.0588,-4.1015,-4.1806,-4.2125,-4.2414,-4.2698,-4.2886,-4.2974,-4.2986,-4.2986,-4.2986,-4.2986,-4.2986,-4.2986,-4.2986,-4.2986,-4.2986,-4.2986,-4.2986,-4.2986,-4.3227,-4.4576,-4.5753,-4.6317,-4.8802,-5.0855,-4.9984,-5.0287,-4.9308,-4.767,-4.6539,-4.5409,-4.3619,-4.2836,-4.2753,-4.2585,-4.2534,-4.2082,-4.1894,-4.1722,-4.1178,-4.0698,-4.0415,-4.0362,-4.042,-4.0696,-4.1112,-4.163,-4.2133,-4.2547,-4.2979,-4.2898,-4.2961,-4.2974,-4.2986,-4.2986,-4.2986,-4.2986,-4.2986,-4.2986,-4.2986,-4.2986,-3.3418,-3.3418,-3.3418,-3.3418,-3.3418,-3.3418,-3.3418,-3.3418,-3.3418,-3.3418,-3.3418,-3.3418,-3.3418,-3.3418,-3.3418,-3.431,-3.5622,-3.5098,-3.5321,-3.6135,-3.5522,-3.5272,-3.5654,-3.6823,-3.8243,-3.9581,-3.9697,-3.9697,-3.9697,-3.9697,-3.9697,-3.9697,-3.9697,-3.9697,-3.9697,-3.9697,-3.9697,-3.9697,-3.9697,-3.9697,-3.9697,-3.9697,-3.9697,-3.9697,-3.9697,-3.9697,-3.9697,-3.9697,-3.9697,-3.9747,-3.991,-4.0287,-4.0761,-4.1103,-4.1605,-4.2434,-4.2552,-4.2728,-4.2886,-4.2986,-4.2986,-4.2986,-4.2986,-4.2986,-4.2986,-4.2986,-4.2986,-4.2986,-4.2986,-4.2986,-4.2986,-4.2986,-4.3283,-4.4004,-4.5806,-4.6747,-4.5912,-4.9098,-5.0555,-5.0335,-5.008,-4.9616,-4.7364,-4.6643,-4.5209,-4.3657,-4.2974,-4.2936,-4.2924,-4.2961,-4.2891,-4.2514,-4.2183,-4.1663,-4.1197,-4.0927,-4.0849,-4.0934,-4.13,-4.1626,-4.2045,-4.2509,-4.2723,-4.2974,-4.2974,-4.2986,-4.2986,-4.2986,-4.2986,-4.2986,-4.2986,-4.2986,-4.2986,-4.2986,-4.2986,-3.3418,-3.3418,-3.3418,-3.3418,-3.3418,-3.3418,-3.3418,-3.3418,-3.3418,-3.3418,-3.3418,-3.3418,-3.3418,-3.3418,-3.3418,-3.4373,-3.6051,-3.516,-3.5776,-3.6516,-3.6389,-3.5645,-3.5612,-3.6858,-3.8255,-3.953,-3.9697,-3.9697,-3.9697,-3.9697,-3.9697,-3.9697,-3.9697,-3.9697,-3.9697,-3.9697,-3.9697,-3.9697,-3.9697,-3.9697,-3.9697,-3.9697,-3.9697,-3.9697,-3.9697,-3.9697,-3.9697,-3.9697,-3.9722,-3.9798,-4.0249,-4.0714,-4.1213,-4.1819,-4.2414,-4.2785,-4.2898,-4.2924,-4.303,-4.2986,-4.2986,-4.2986,-4.2986,-4.2986,-4.2986,-4.2986,-4.2986,-4.2986,-4.2986,-4.2986,-4.2986,-4.2986,-4.3394,-4.4318,-4.5872,-4.6733,-4.7568,-4.9518,-5.1167,-5.0964,-4.9887,-4.8653,-4.7108,-4.582,-4.4535,-4.3449,-4.2986,-4.2986,-4.2986,-4.2974,-4.2811,-4.2564,-4.2296,-4.2078,-4.1727,-4.1409,-4.1422,-4.1455,-4.1927,-4.2296,-4.2522,-4.2836,-4.2898,-4.2986,-4.2986,-4.2986,-4.2986,-4.2986,-4.2986,-4.2986,-4.2986,-4.2986,-4.2986,-4.2986,-4.2986,-3.3418,-3.3418,-3.3418,-3.3418,-3.3418,-3.3418,-3.3418,-3.3418,-3.3418,-3.3418,-3.3418,-3.3418,-3.3418,-3.3418,-3.3534,-3.4922,-3.7374,-3.7183,-3.748,-3.7166,-3.6048,-3.5667,-3.5949,-3.7091,-3.8291,-3.9426,-3.9697,-3.9697,-3.9697,-3.9697,-3.9697,-3.9697,-3.9697,-3.9697,-3.9697,-3.9697,-3.9697,-3.9697,-3.9697,-3.9697,-3.9697,-3.9697,-3.9697,-3.9697,-3.9697,-3.9697,-3.9697,-3.9697,-3.9898,-4.0249,-4.0501,-4.0852,-4.1379,-4.1907,-4.2489,-4.2836,-4.2986,-4.2986,-4.2986,-4.2986,-4.2986,-4.2986,-4.2986,-4.2986,-4.2986,-4.2986,-4.2986,-4.2986,-4.2986,-4.2986,-4.2986,-4.2986,-4.3295,-4.3907,-4.4833,-4.603,-4.7262,-4.9455,-5.0508,-4.9936,-4.9323,-4.8289,-4.5912,-4.5356,-4.4277,-4.3295,-4.2986,-4.2986,-4.2986,-4.2986,-4.2836,-4.2678,-4.3013,-4.2928,-4.2712,-4.2484,-4.2509,-4.2301,-4.2574,-4.2703,-4.2886,-4.2986,-4.2986,-4.2986,-4.2986,-4.2986,-4.2986,-4.2986,-4.2986,-4.2986,-4.2986,-4.2986,-4.2986,-4.2986,-4.2986,-3.3418,-3.3418,-3.3418,-3.3418,-3.3418,-3.3418,-3.3418,-3.3418,-3.3418,-3.3418,-3.3418,-3.3418,-3.3418,-3.3418,-3.3534,-3.516,-3.8045,-3.9826,-3.9453,-3.8337,-3.749,-3.7655,-3.761,-3.8076,-3.88,-3.9667,-3.9697,-3.9697,-3.9697,-3.9697,-3.9697,-3.9697,-3.9697,-3.9697,-3.9697,-3.9697,-3.9697,-3.9697,-3.9697,-3.9697,-3.9697,-3.9697,-3.9697,-3.9697,-3.9697,-3.9697,-3.9697,-3.9697,-3.9998,-4.0425,-4.0777,-4.1153,-4.1693,-4.2233,-4.2728,-4.2898,-4.2986,-4.2986,-4.2986,-4.2986,-4.2986,-4.2986,-4.2986,-4.2986,-4.2986,-4.2986,-4.2986,-4.2986,-4.2986,-4.2986,-4.2986,-4.2986,-4.3197,-4.3962,-4.4522,-4.5568,-4.7057,-4.895,-5.008,-4.9196,-4.8589,-4.7211,-4.5767,-4.4738,-4.4071,-4.303,-4.2986,-4.2986,-4.2986,-4.2986,-4.2986,-4.304,-4.3691,-4.3862,-4.3723,-4.3674,-4.3741,-4.3467,-4.3182,-4.3045,-4.2949,-4.2986,-4.2986,-4.2986,-4.2986,-4.2986,-4.2986,-4.2986,-4.2986,-4.2986,-4.2986,-4.2986,-4.2986,-4.2986,-4.2986,-3.3786,-3.3713,-3.3481,-3.3418,-3.3418,-3.3418,-3.3418,-3.3418,-3.3418,-3.3418,-3.3418,-3.3418,-3.3418,-3.3418,-3.3418,-3.5222,-3.8272,-4.1133,-4.1118,-3.9055,-3.9418,-3.9423,-3.9424,-3.9245,-3.9455,-3.9855,-3.9923,-3.9885,-3.986,-3.9735,-3.9697,-3.9697,-3.9697,-3.9697,-3.9697,-3.9697,-3.9697,-3.9697,-3.9697,-3.9697,-3.9697,-3.9697,-3.9697,-3.9697,-3.9697,-3.9697,-3.9735,-3.9848,-4.0111,-4.0626,-4.1112,-4.1718,-4.2246,-4.2672,-4.2986,-4.2986,-4.2986,-4.2986,-4.2986,-4.2986,-4.2986,-4.2986,-4.2986,-4.2986,-4.2986,-4.2986,-4.2986,-4.2986,-4.2986,-4.2986,-4.2986,-4.2986,-4.356,-4.4222,-4.4576,-4.5356,-4.6578,-4.7859,-4.8175,-4.8175,-4.7299,-4.603,-4.49,-4.381,-4.3351,-4.2986,-4.2986,-4.2986,-4.2986,-4.3042,-4.3042,-4.3351,-4.3907,-4.5035,-4.5077,-4.3688,-4.3891,-4.4134,-4.3771,-4.327,-4.2986,-4.2986,-4.2986,-4.2986,-4.2986,-4.2986,-4.2986,-4.2986,-4.2986,-4.2986,-4.2986,-4.2986,-4.2986,-4.2986,-4.2986,-3.5386,-3.5273,-3.3965,-3.3418,-3.3418,-3.3418,-3.3418,-3.3418,-3.3481,-3.3418,-3.3481,-3.3418,-3.3418,-3.3418,-3.3418,-3.5222,-3.8331,-4.1248,-4.2012,-4.0419,-4.054,-4.0488,-4.0185,-4.011,-4.0324,-4.0691,-4.0676,-4.045,-4.0212,-3.9948,-3.9772,-3.9722,-3.9697,-3.9697,-3.9697,-3.9697,-3.9697,-3.9697,-3.9697,-3.9697,-3.9697,-3.9697,-3.9697,-3.9697,-3.9697,-3.9697,-3.981,-4.0149,-4.0626,-4.1125,-4.1718,-4.2258,-4.266,-4.2911,-4.2974,-4.2986,-4.2986,-4.2986,-4.2986,-4.2986,-4.2986,-4.2986,-4.2986,-4.2986,-4.2986,-4.2986,-4.2986,-4.2986,-4.2986,-4.2986,-4.2986,-4.2986,-4.303,-4.3338,-4.3534,-4.3949,-4.5048,-4.5661,-4.5925,-4.5964,-4.5449,-4.5048,-4.4071,-4.3394,-4.3197,-4.2986,-4.2986,-4.2986,-4.2986,-4.303,-4.3085,-4.356,-4.4113,-4.5409,-4.6499,-4.4524,-4.3594,-4.4212,-4.4004,-4.3227,-4.2986,-4.2986,-4.2986,-4.2986,-4.2986,-4.2986,-4.2986,-4.2986,-4.2986,-4.2986,-4.2986,-4.2986,-4.2986,-4.2986,-4.2986,-3.5806,-3.5622,-3.408,-3.3418,-3.3418,-3.3418,-3.3892,-3.4435,-3.3786,-3.3892,-3.4195,-3.3839,-3.3418,-3.3418,-3.3418,-3.516,-3.8331,-4.1488,-4.2432,-4.1911,-4.1817,-4.1744,-4.1382,-4.1382,-4.1731,-4.1918,-4.1643,-4.1015,-4.0551,-4.0275,-3.9961,-3.9735,-3.9697,-3.9697,-3.9697,-3.9697,-3.9697,-3.9697,-3.9697,-3.9697,-3.9697,-3.9697,-3.9697,-3.9697,-3.9697,-3.9697,-3.9798,-4.0224,-4.0764,-4.125,-4.1856,-4.2409,-4.2798,-4.2986,-4.2986,-4.2986,-4.2986,-4.2986,-4.2986,-4.2986,-4.2986,-4.2986,-4.2986,-4.2986,-4.2986,-4.2986,-4.2986,-4.2986,-4.2986,-4.2986,-4.2986,-4.2986,-4.2986,-4.2986,-4.2986,-4.3351,-4.3755,-4.3949,-4.4058,-4.4209,-4.463,-4.4427,-4.3504,-4.3085,-4.3042,-4.2986,-4.2986,-4.2986,-4.2986,-4.324,-4.3394,-4.4427,-4.5155,-4.5872,-4.6695,-4.5088,-4.3797,-4.4277,-4.4071,-4.3295,-4.2986,-4.2986,-4.2986,-4.2986,-4.2986,-4.2986,-4.2986,-4.2986,-4.2986,-4.2986,-4.2986,-4.2986,-4.2986,-4.2986,-4.2986,-3.676,-3.6639,-3.5046,-3.4383,-3.4383,-3.4383,-3.5098,-3.5806,-3.4612,-3.4612,-3.5448,-3.4195,-3.3418,-3.3471,-3.408,-3.552,-3.8331,-4.1007,-4.1785,-4.2263,-4.2206,-4.2363,-4.2488,-4.2918,-4.2886,-4.2667,-4.2472,-4.1806,-4.1065,-4.0588,-4.0237,-3.9986,-3.9823,-3.9697,-3.9697,-3.9697,-3.9697,-3.9697,-3.9697,-3.9697,-3.9697,-3.9697,-3.9697,-3.9697,-3.9697,-3.9747,-3.9961,-4.0463,-4.1003,-4.1543,-4.2057,-4.259,-4.2898,-4.2986,-4.2986,-4.2986,-4.2986,-4.2986,-4.2986,-4.2986,-4.2986,-4.2986,-4.2986,-4.2986,-4.2986,-4.2986,-4.2986,-4.2986,-4.2986,-4.2986,-4.2986,-4.2986,-4.2986,-4.2986,-4.2986,-4.3042,-4.3141,-4.324,-4.3295,-4.3602,-4.4155,-4.3962,-4.3197,-4.2986,-4.2986,-4.2986,-4.2986,-4.2986,-4.3085,-4.3657,-4.4167,-4.5515,-4.6331,-4.6695,-4.6591,-4.5342,-4.4522,-4.463,-4.4016,-4.3085,-4.2986,-4.2986,-4.2986,-4.2986,-4.2986,-4.2986,-4.2986,-4.2986,-4.2986,-4.2986,-4.2986,-4.2986,-4.2986,-4.2986,-4.2986,-4.0047,-3.9873,-3.8272,-3.7615,-3.7495,-3.7445,-3.7626,-3.7686,-3.6234,-3.5632,-3.5928,-3.4258,-3.3534,-3.366,-3.4912,-3.6478,-3.7914,-3.8805,-3.9873,-4.0765,-4.0892,-4.0961,-4.1203,-4.2432,-4.2625,-4.2613,-4.2693,-4.2602,-4.1521,-4.067,-4.0526,-4.0325,-3.9898,-3.9722,-3.981,-3.9735,-3.9697,-3.971,-3.9722,-3.9735,-3.976,-3.9772,-3.981,-3.9747,-3.9823,-4.0011,-4.0438,-4.094,-4.1467,-4.1982,-4.2547,-4.2873,-4.2986,-4.2986,-4.2986,-4.2986,-4.2986,-4.2986,-4.2986,-4.2986,-4.2986,-4.2986,-4.2986,-4.2986,-4.2986,-4.2986,-4.2986,-4.2986,-4.2986,-4.2986,-4.2986,-4.2986,-4.2986,-4.2986,-4.2986,-4.2986,-4.2986,-4.2986,-4.2986,-4.303,-4.3602,-4.3492,-4.2986,-4.2986,-4.2986,-4.2986,-4.3042,-4.3085,-4.3602,-4.4481,-4.5048,-4.6331,-4.6564,-4.6823,-4.612,-4.4995,-4.4522,-4.463,-4.3962,-4.2986,-4.2986,-4.2986,-4.2986,-4.2986,-4.2986,-4.2986,-4.2986,-4.2986,-4.2986,-4.2986,-4.2986,-4.2986,-4.2986,-4.2986,-4.2986,-4.1431,-4.0476,-3.8876,-3.8223,-3.8223,-3.8223,-3.8757,-3.9111,-3.7854,-3.7133,-3.6842,-3.5448,-3.432,-3.3902,-3.5088,-3.6162,-3.6952,-3.7675,-3.845,-3.9111,-3.9347,-3.9768,-4.0592,-4.1248,-4.1615,-4.1728,-4.1476,-4.0739,-4.0415,-4.0715,-4.0824,-4.0435,-4.0036,-3.9898,-4.0074,-3.9848,-3.9936,-4.0074,-4.0174,-4.0162,-4.0237,-4.0425,-4.0475,-4.0199,-4.0438,-4.0701,-4.1015,-4.1505,-4.1869,-4.2301,-4.2685,-4.2974,-4.2986,-4.2986,-4.2986,-4.2986,-4.2986,-4.2986,-4.2986,-4.2986,-4.2986,-4.2986,-4.2986,-4.2986,-4.2986,-4.2986,-4.2986,-4.2986,-4.2986,-4.2986,-4.2986,-4.2986,-4.2986,-4.2986,-4.2986,-4.2986,-4.2986,-4.2986,-4.2986,-4.2986,-4.2986,-4.2986,-4.2986,-4.2986,-4.303,-4.303,-4.3338,-4.3713,-4.49,-4.6487,-4.685,-4.7211,-4.6964,-4.6523,-4.5514,-4.4405,-4.3784,-4.3713,-4.3713,-4.2986,-4.2986,-4.2986,-4.2986,-4.2986,-4.2986,-4.2986,-4.2986,-4.2986,-4.2986,-4.2986,-4.2986,-4.2986,-4.2986,-4.2986,-4.303,-4.2263,-4.1076,-3.9884,-3.9405,-3.9405,-3.9405,-4.0129,-4.0892,-3.9475,-3.858,-3.7686,-3.6051,-3.4373,-3.3839,-3.455,-3.5386,-3.5939,-3.666,-3.7194,-3.7506,-3.8164,-3.8935,-3.9943,-4.0476,-4.1179,-4.058,-4.0822,-3.9966,-3.9407,-3.9724,-4.0535,-4.0331,-4.0315,-4.036,-4.0501,-4.045,-4.0425,-4.0636,-4.0727,-4.0727,-4.0724,-4.1025,-4.1015,-4.0912,-4.105,-4.1351,-4.158,-4.1869,-4.2175,-4.2527,-4.2791,-4.2974,-4.2986,-4.2986,-4.2986,-4.2986,-4.2986,-4.2986,-4.2986,-4.2986,-4.2986,-4.2986,-4.2986,-4.2986,-4.2986,-4.2986,-4.2986,-4.2986,-4.2986,-4.2986,-4.2986,-4.2986,-4.2986,-4.2986,-4.2986,-4.2986,-4.2986,-4.2986,-4.2986,-4.2986,-4.2986,-4.2986,-4.2986,-4.2986,-4.303,-4.3073,-4.3492,-4.4331,-4.5978,-4.7974,-4.8439,-4.8489,-4.735,-4.662,-4.544,-4.4373,-4.3579,-4.2986,-4.2986,-4.2986,-4.2986,-4.2986,-4.2986,-4.2986,-4.2986,-4.2986,-4.2986,-4.2986,-4.2986,-4.2986,-4.2986,-4.2986,-4.2986,-4.2986,-4.3042,-4.2918,-4.2849,-4.2625,-4.2488,-4.25,-4.2681,-4.2681,-4.25,-4.1064,-3.9581,-3.7865,-3.516,-3.365,-3.3544,-3.3786,-3.455,-3.5745,-3.4383,-3.5098,-3.6295,-3.7374,-3.8104,-3.9288,-4.065,-4.1716,-4.0592,-4.0175,-3.9347,-3.8714,-3.9036,-3.9715,-3.991,-4.0491,-4.0989,-4.1241,-4.1166,-4.1116,-4.1279,-4.1238,-4.1291,-4.1304,-4.1363,-4.1351,-4.1288,-4.1313,-4.1568,-4.2099,-4.2263,-4.2464,-4.2785,-4.2911,-4.2974,-4.2986,-4.2986,-4.2986,-4.2986,-4.2986,-4.2986,-4.2986,-4.2986,-4.2986,-4.2986,-4.2986,-4.2986,-4.2986,-4.2986,-4.2986,-4.2986,-4.2986,-4.2986,-4.2986,-4.2986,-4.2986,-4.2986,-4.2986,-4.2986,-4.2986,-4.2986,-4.2986,-4.2986,-4.2986,-4.2986,-4.3295,-4.3338,-4.3602,-4.3645,-4.5236,-4.6122,-4.7364,-4.9063,-4.9679,-4.9518,-4.7974,-4.6841,-4.571,-4.4611,-4.3369,-4.2986,-4.2986,-4.2986,-4.2986,-4.2986,-4.2986,-4.2986,-4.2986,-4.2986,-4.2986,-4.2986,-4.2986,-4.2986,-4.2986,-4.2986,-4.2986,-4.2986,-4.2986,-4.2986,-4.2986,-4.2986,-4.2986,-4.2986,-4.2986,-4.2986,-4.2918,-4.2319,-4.0534,-3.8045,-3.4984,-3.3418,-3.3418,-3.3481,-3.4258,-3.5386,-3.4143,-3.4674,-3.5448,-3.6478,-3.7314,-3.8628,-4.0001,-4.065,-3.9581,-3.91,-3.7604,-3.5539,-3.7955,-3.8672,-3.9255,-4.0605,-4.1397,-4.1693,-4.1831,-4.1844,-4.1844,-4.1844,-4.1844,-4.1907,-4.2183,-4.2183,-4.1844,-4.2258,-4.2409,-4.269,-4.2703,-4.2854,-4.2911,-4.2974,-4.2986,-4.2986,-4.2986,-4.2986,-4.2986,-4.2986,-4.2986,-4.2986,-4.2986,-4.2986,-4.2986,-4.2986,-4.2986,-4.2986,-4.2986,-4.2986,-4.2986,-4.2986,-4.2986,-4.2986,-4.2986,-4.2986,-4.2986,-4.2986,-4.2986,-4.2986,-4.2986,-4.2986,-4.2986,-4.2986,-4.2986,-4.3394,-4.3797,-4.4058,-4.4481,-4.6279,-4.7909,-4.8999,-4.9776,-5.0302,-4.9887,-4.8339,-4.6804,-4.5598,-4.4348,-4.3073,-4.2986,-4.2986,-4.2986,-4.2986,-4.2986,-4.2986,-4.2986,-4.303,-4.3085,-4.3085,-4.3042,-4.2986,-4.2986,-4.2986,-4.2986,-4.2986,-4.2986,-4.2986,-4.2986,-4.2986,-4.2986,-4.2986,-4.2986,-4.2986,-4.2986,-4.2986,-4.2974,-4.1545,-3.8698,-3.5632,-3.4133,-3.4133,-3.4195,-3.4612,-3.5571,-3.5396,-3.5755,-3.6528,-3.7363,-3.7843,-3.91,-4.0233,-4.0949,-3.9288,-3.8687,-3.7604,-3.5755,-3.7735,-3.8889,-3.9731,-4.0765,-4.1933,-4.2283,-4.2451,-4.2451,-4.2451,-4.2451,-4.2451,-4.2514,-4.2685,-4.2823,-4.2502,-4.2735,-4.2861,-4.2898,-4.2898,-4.2924,-4.2961,-4.2986,-4.2986,-4.2986,-4.2986,-4.2986,-4.2986,-4.2986,-4.2986,-4.2986,-4.2986,-4.2986,-4.2986,-4.2986,-4.2986,-4.2986,-4.2986,-4.2986,-4.2986,-4.2986,-4.2986,-4.2986,-4.2986,-4.2986,-4.2986,-4.2986,-4.2986,-4.2986,-4.2986,-4.2986,-4.2986,-4.2986,-4.3085,-4.381,-4.4481,-4.5872,-4.6279,-4.735,-4.8837,-4.9873,-5.0445,-5.0603,-4.9839,-4.8439,-4.6925,-4.5454,-4.4183,-4.3129,-4.2986,-4.2986,-4.2986,-4.2986,-4.2986,-4.2986,-4.2986,-4.3085,-4.3184,-4.3351,-4.3449,-4.324,-4.2986,-4.2986,-4.2986,-4.2986,-4.2986,-4.2986,-4.303,-4.2986,-4.2986,-4.2986,-4.2986,-4.2986,-4.2986,-4.2974,-4.2806,-4.1854,-4.0001,-3.7062,-3.5745,-3.5745,-3.5755,-3.6112,-3.6589,-3.7314,-3.7854,-3.8272,-3.9089,-4.0117,-4.0822,-4.1488,-4.1602,-4.0822,-4.0105,-3.9159,-3.7675,-3.9229,-4.0129,-4.0719,-4.1703,-4.2748,-4.2992,-4.2949,-4.2949,-4.2949,-4.2898,-4.2873,-4.2873,-4.2924,-4.2954,-4.2898,-4.2911,-4.2986,-4.2986,-4.2986,-4.2986,-4.2986,-4.2986,-4.2986,-4.2986,-4.2986,-4.2986,-4.2986,-4.2986,-4.2986,-4.2986,-4.2986,-4.2986,-4.2986,-4.2986,-4.2986,-4.2986,-4.2986,-4.2986,-4.2986,-4.2986,-4.2986,-4.2986,-4.2986,-4.2986,-4.2986,-4.2986,-4.2986,-4.2986,-4.2986,-4.2986,-4.2986,-4.3042,-4.3197,-4.4126,-4.5249,-4.7313,-4.8339,-4.8886,-4.9713,-5.0636,-5.0855,-5.0855,-4.9936,-4.8553,-4.7108,-4.5617,-4.4149,-4.3227,-4.3085,-4.2986,-4.2986,-4.2986,-4.2986,-4.2986,-4.3042,-4.3394,-4.381,-4.392,-4.3962,-4.3602,-4.324,-4.303,-4.2986,-4.2986,-4.2986,-4.2986,-4.3797,-4.2974,-4.2986,-4.2986,-4.2986,-4.2986,-4.2986,-4.2806,-4.1899,-4.1133,-4.0291,-3.8212,-3.7374,-3.7374,-3.7495,-3.7854,-3.8794,-3.7914,-3.8461,-3.9884,-4.0534,-4.0465,-4.1121,-4.1955,-4.2137,-4.1007,-4.0476,-3.9943,-3.8104,-4.0012,-4.0534,-4.1007,-4.2206,-4.2918,-4.2974,-4.2986,-4.2974,-4.2974,-4.2974,-4.2974,-4.2986,-4.2986,-4.2986,-4.2986,-4.2986,-4.2986,-4.2986,-4.2986,-4.2986,-4.2986,-4.2986,-4.2986,-4.2986,-4.2986,-4.2986,-4.2986,-4.2986,-4.2986,-4.2986,-4.2986,-4.2986,-4.2986,-4.2986,-4.2986,-4.2986,-4.2986,-4.2986,-4.2986,-4.2986,-4.2986,-4.2986,-4.2986,-4.2986,-4.2986,-4.2986,-4.2986,-4.2986,-4.2986,-4.2986,-4.2986,-4.3042,-4.4222,-4.5249,-4.5515,-4.7211,-4.9112,-4.9679,-5.0176,-5.0964,-5.0902,-5.0855,-4.9936,-4.8745,-4.7277,-4.5835,-4.4655,-4.3492,-4.3085,-4.2986,-4.2986,-4.2986,-4.2986,-4.3129,-4.324,-4.3865,-4.4427,-4.4481,-4.4427,-4.3865,-4.3504,-4.3197,-4.2986,-4.2986,-4.2986,-4.2986,-4.4222,-4.303,-4.2986,-4.2986,-4.2986,-4.2986,-4.2986,-4.2806,-4.1911,-4.1431,-4.1133,-3.9768,-3.9053,-3.9053,-3.917,-3.9347,-4.0534,-4.0303,-4.0117,-4.1431,-4.1431,-4.1545,-4.1955,-4.2319,-4.2432,-4.1545,-4.1305,-4.0834,-4.0233,-4.0949,-4.1488,-4.1842,-4.2444,-4.2862,-4.2986,-4.2986,-4.2986,-4.2986,-4.2986,-4.2986,-4.2986,-4.2986,-4.2986,-4.2986,-4.2986,-4.2986,-4.2986,-4.2986,-4.2986,-4.2986,-4.2986,-4.2986,-4.2986,-4.2986,-4.2986,-4.2986,-4.2986,-4.2986,-4.2986,-4.2986,-4.2986,-4.2986,-4.2986,-4.2986,-4.2986,-4.2986,-4.2986,-4.2986,-4.2986,-4.2986,-4.2986,-4.2986,-4.2986,-4.2986,-4.2986,-4.2986,-4.2986,-4.2986,-4.2986,-4.2986,-4.3197,-4.463,-4.5872,-4.6331,-4.6954,-4.8752,-5.0397,-5.076,-5.1073,-5.1058,-5.0949,-5.0224,-4.9236,-4.7873,-4.6556,-4.5342,-4.4264,-4.3184,-4.2986,-4.2986,-4.2986,-4.3042,-4.324,-4.3589,-4.4318,-4.4833,-4.5035,-4.4887,-4.4481,-4.381,-4.3085,-4.2986,-4.2986,-4.2986,-4.2986,-4.4277,-4.3141,-4.303,-4.2986,-4.2986,-4.2986,-4.2986,-4.2986,-4.2974,-4.2918,-4.2806,-4.1248,-4.065,-4.065,-4.065,-4.0765,-4.1064,-4.2081,-4.2444,-4.2681,-4.2569,-4.2681,-4.2737,-4.2862,-4.2737,-4.2862,-4.2737,-4.2375,-4.2737,-4.25,-4.2625,-4.2806,-4.2862,-4.2986,-4.2986,-4.2986,-4.2986,-4.2986,-4.2986,-4.2986,-4.2986,-4.2986,-4.2986,-4.2986,-4.2986,-4.2986,-4.2986,-4.2986,-4.2986,-4.2986,-4.2986,-4.2986,-4.2986,-4.2986,-4.2986,-4.2986,-4.2986,-4.2986,-4.2986,-4.2986,-4.2986,-4.2986,-4.2986,-4.2986,-4.2986,-4.2986,-4.2986,-4.2986,-4.2986,-4.2986,-4.2986,-4.2986,-4.2986,-4.2986,-4.2986,-4.2986,-4.2986,-4.2986,-4.2986,-4.2986,-4.2986,-4.392,-4.4994,-4.5714,-4.6383,-4.8024,-4.947,-5.008,-5.0493,-5.112,-5.0996,-5.0919,-4.9804,-4.8565,-4.7281,-4.5778,-4.4442,-4.3215,-4.303,-4.2986,-4.2986,-4.3141,-4.3547,-4.4004,-4.4779,-4.5289,-4.5714,-4.5661,-4.5302,-4.4481,-4.3184,-4.2986,-4.2986,-4.2986,-4.2986,-4.5661,-4.4385,-4.3394,-4.2986,-4.2986,-4.2986,-4.2986,-4.2986,-4.2986,-4.2986,-4.2974,-4.25,-4.2137,-4.2319,-4.2319,-4.2263,-4.2432,-4.2725,-4.2862,-4.2986,-4.2986,-4.2986,-4.2986,-4.2986,-4.2986,-4.2986,-4.2986,-4.2986,-4.2918,-4.2986,-4.2986,-4.2986,-4.2986,-4.2986,-4.2986,-4.2986,-4.2986,-4.2986,-4.2986,-4.2986,-4.2986,-4.2986,-4.2986,-4.2986,-4.2986,-4.2986,-4.2986,-4.2986,-4.2986,-4.2986,-4.2986,-4.2986,-4.2986,-4.2986,-4.2986,-4.2986,-4.2986,-4.2986,-4.2986,-4.3042,-4.3042,-4.3085,-4.3085,-4.2986,-4.2986,-4.303,-4.303,-4.2986,-4.2986,-4.2986,-4.2986,-4.2986,-4.3184,-4.3338,-4.3338,-4.3338,-4.3338,-4.3394,-4.3351,-4.2986,-4.2986,-4.3394,-4.4481,-4.4833,-4.5608,-4.7262,-4.8439,-4.9147,-5.0017,-5.0713,-5.112,-5.1028,-5.0063,-4.8718,-4.7303,-4.5843,-4.4552,-4.3398,-4.3172,-4.2986,-4.2986,-4.324,-4.381,-4.4535,-4.5395,-4.6017,-4.6591,-4.6174,-4.5302,-4.4167,-4.303,-4.303,-4.3042,-4.324,-4.3295,-4.6279,-4.4887,-4.3547,-4.2986,-4.2986,-4.2986,-4.2986,-4.2986,-4.2986,-4.2986,-4.2986,-4.2986,-4.2986,-4.2918,-4.2918,-4.2918,-4.2918,-4.2918,-4.2986,-4.2986,-4.2986,-4.2986,-4.2986,-4.2986,-4.2986,-4.2986,-4.2986,-4.2986,-4.2986,-4.2986,-4.2986,-4.2986,-4.2986,-4.2986,-4.2986,-4.2986,-4.2986,-4.2986,-4.2986,-4.2986,-4.2986,-4.2986,-4.2986,-4.2986,-4.2986,-4.2986,-4.2986,-4.2986,-4.2986,-4.2986,-4.2986,-4.2986,-4.2986,-4.2986,-4.2986,-4.3085,-4.3645,-4.3436,-4.3283,-4.3645,-4.3449,-4.3295,-4.3436,-4.381,-4.3547,-4.3436,-4.3184,-4.2986,-4.2986,-4.2986,-4.2986,-4.303,-4.3449,-4.3742,-4.3797,-4.3852,-4.3852,-4.3865,-4.356,-4.3141,-4.3141,-4.3394,-4.381,-4.4113,-4.4928,-4.6682,-4.7873,-4.8475,-4.9504,-5.0555,-5.1011,-5.1152,-5.0,-4.8704,-4.7267,-4.5738,-4.4511,-4.3466,-4.3129,-4.2986,-4.2986,-4.324,-4.3755,-4.4833,-4.6069,-4.6383,-4.6331,-4.5661,-4.4779,-4.3742,-4.3381,-4.3797,-4.3949,-4.4058,-4.4058,-4.6383,-4.5102,-4.3589,-4.2986,-4.2986,-4.2986,-4.2986,-4.2986,-4.2986,-4.2986,-4.2986,-4.2986,-4.2986,-4.2986,-4.2986,-4.2986,-4.2986,-4.2986,-4.2986,-4.2986,-4.2986,-4.2986,-4.2986,-4.2986,-4.2986,-4.2986,-4.2986,-4.2986,-4.2986,-4.2986,-4.2986,-4.2986,-4.2986,-4.2986,-4.2986,-4.2986,-4.2986,-4.2986,-4.2986,-4.2986,-4.2986,-4.2986,-4.2986,-4.2986,-4.2986,-4.2986,-4.2986,-4.2986,-4.2986,-4.2986,-4.2986,-4.2986,-4.2986,-4.2986,-4.2986,-4.3394,-4.4058,-4.3852,-4.3645,-4.4016,-4.3852,-4.3797,-4.4071,-4.4167,-4.381,-4.4318,-4.4318,-4.37,-4.3713,-4.3295,-4.3197,-4.3141,-4.3394,-4.4058,-4.4427,-4.4779,-4.5142,-4.4792,-4.3962,-4.3504,-4.303,-4.3295,-4.3295,-4.3602,-4.3852,-4.5859,-4.694,-4.7453,-4.8275,-4.9567,-5.0032,-5.0305,-4.8885,-4.7504,-4.6662,-4.5316,-4.4305,-4.3504,-4.3141,-4.2986,-4.2986,-4.3295,-4.3657,-4.4738,-4.5753,-4.5714,-4.5515,-4.4833,-4.4264,-4.3742,-4.3687,-4.4604,-4.4968,-4.5142,-4.5302,-4.6902,-4.6331,-4.4016,-4.2986,-4.2986,-4.2986,-4.2986,-4.2986,-4.2986,-4.2986,-4.2986,-4.2986,-4.2986,-4.2986,-4.2986,-4.2986,-4.2986,-4.2986,-4.2986,-4.2986,-4.2986,-4.2986,-4.2986,-4.2986,-4.2986,-4.2986,-4.2986,-4.2986,-4.2986,-4.2986,-4.2986,-4.2986,-4.2986,-4.2986,-4.2986,-4.2986,-4.2986,-4.2986,-4.2986,-4.2986,-4.2986,-4.2986,-4.2986,-4.2986,-4.2986,-4.2986,-4.2986,-4.2986,-4.2986,-4.2986,-4.2986,-4.2986,-4.2986,-4.2986,-4.2986,-4.324,-4.4222,-4.4071,-4.381,-4.4071,-4.4167,-4.3492,-4.3394,-4.3449,-4.3907,-4.5249,-4.5661,-4.4941,-4.4277,-4.3755,-4.3449,-4.3394,-4.3602,-4.4427,-4.5249,-4.5859,-4.6474,-4.5449,-4.4481,-4.3713,-4.3141,-4.2986,-4.2986,-4.3141,-4.3351,-4.4126,-4.5048,-4.5767,-4.6279,-4.7211,-4.767,-4.774,-4.6785,-4.5692,-4.5325,-4.4846,-4.381,-4.3394,-4.3085,-4.2986,-4.2986,-4.3394,-4.3852,-4.4535,-4.5155,-4.4994,-4.463,-4.4016,-4.3492,-4.3479,-4.4302,-4.5409,-4.6345,-4.6733,-4.685,-4.7656,-4.6785,-4.4155,-4.2986,-4.2986,-4.2986,-4.2986,-4.2986,-4.2986,-4.2986,-4.2986,-4.2986,-4.2986,-4.2986,-4.2986,-4.2986,-4.2986,-4.2986,-4.2986,-4.2986,-4.2986,-4.2986,-4.2986,-4.2986,-4.2986,-4.2986,-4.2986,-4.2986,-4.2986,-4.2986,-4.2986,-4.2986,-4.2986,-4.2986,-4.2986,-4.2986,-4.2986,-4.2986,-4.2986,-4.2986,-4.2986,-4.2986,-4.2986,-4.2986,-4.2986,-4.2986,-4.2986,-4.2986,-4.2986,-4.2986,-4.2986,-4.2986,-4.2986,-4.2986,-4.2986,-4.3338,-4.3962,-4.4427,-4.392,-4.4016,-4.4372,-4.3547,-4.37,-4.4113,-4.5568,-4.6733,-4.6487,-4.5767,-4.4887,-4.4385,-4.4277,-4.4222,-4.4941,-4.5714,-4.6695,-4.7517,-4.6837,-4.5648,-4.4481,-4.3351,-4.2986,-4.2986,-4.2986,-4.2986,-4.3394,-4.4318,-4.4941,-4.49,-4.5249,-4.5302,-4.5608,-4.5685,-4.5025,-4.4931,-4.5103,-4.4372,-4.3295,-4.303,-4.2986,-4.2986,-4.303,-4.3547,-4.4058,-4.4222,-4.4222,-4.4004,-4.3589,-4.3351,-4.381,-4.4155,-4.5168,-4.6284,-4.7191,-4.8139,-4.8653,-4.8239,-4.6526,-4.4058,-4.2986,-4.2986,-4.2986,-4.2986,-4.2986,-4.2986,-4.2986,-4.2986,-4.2986,-4.2986,-4.2986,-4.2986,-4.2986,-4.2986,-4.2986,-4.2986,-4.2986,-4.2986,-4.2986,-4.2986,-4.2986,-4.2986,-4.2986,-4.2986,-4.2986,-4.2986,-4.2986,-4.2986,-4.2986,-4.2986,-4.2986,-4.2986,-4.2986,-4.2986,-4.2986,-4.2986,-4.2986,-4.2986,-4.2986,-4.2986,-4.2986,-4.2986,-4.2986,-4.2986,-4.2986,-4.2986,-4.2986,-4.2986,-4.2986,-4.324,-4.3338,-4.3504,-4.392,-4.5302,-4.4994,-4.4222,-4.4725,-4.4209,-4.3742,-4.4468,-4.5342,-4.6643,-4.7159,-4.6902,-4.6539,-4.5661,-4.5155,-4.5102,-4.5102,-4.5859,-4.7146,-4.8125,-4.8539,-4.7248,-4.6069,-4.4779,-4.3394,-4.3042,-4.3042,-4.3295,-4.324,-4.3602,-4.4576,-4.4833,-4.4792,-4.4684,-4.4427,-4.4427,-4.4509,-4.4196,-4.4287,-4.4522,-4.4058,-4.2986,-4.2986,-4.2986,-4.2986,-4.3085,-4.3394,-4.3436,-4.3295,-4.324,-4.3338,-4.3283,-4.3141,-4.3755,-4.4414,-4.5763,-4.6809,-4.774,-4.8752,-5.0239,-4.7721,-4.5249,-4.3657,-4.2986,-4.2986,-4.2986,-4.2986,-4.2986,-4.2986,-4.2986,-4.2986,-4.2986,-4.2986,-4.2986,-4.2986,-4.2986,-4.2986,-4.2986,-4.2986,-4.2986,-4.2986,-4.2986,-4.2986,-4.2986,-4.2986,-4.2986,-4.2986,-4.2986,-4.2986,-4.2986,-4.2986,-4.2986,-4.2986,-4.2986,-4.2986,-4.2986,-4.2986,-4.2986,-4.2986,-4.2986,-4.2986,-4.2986,-4.2986,-4.2986,-4.2986,-4.2986,-4.2986,-4.2986,-4.2986,-4.2986,-4.2986,-4.2986,-4.3283,-4.3797,-4.4167,-4.4427,-4.5925,-4.5714,-4.5195,-4.5236,-4.4576,-4.3338,-4.3907,-4.4535,-4.582,-4.7094,-4.7043,-4.7248,-4.6526,-4.5872,-4.5608,-4.5302,-4.5872,-4.8125,-4.9679,-4.8851,-4.7721,-4.6733,-4.57,-4.4277,-4.3085,-4.3602,-4.4385,-4.4071,-4.3602,-4.4167,-4.3962,-4.392,-4.3755,-4.356,-4.3394,-4.3424,-4.3441,-4.3257,-4.3338,-4.3602,-4.2986,-4.2986,-4.2986,-4.2986,-4.2986,-4.2986,-4.2986,-4.2986,-4.2986,-4.3085,-4.3042,-4.2986,-4.3338,-4.4121,-4.5929,-4.7204,-4.8152,-4.9259,-5.065]}]]